[[{"header":{"parameterUnit":"m.s-1","parameterCategory":1,"la1":31.0,"la2":29.5877,"lo1":-88.7671,"lo2":-86.6584,"dy":0.0162,"dx":0.0185,"nx":115,"ny":88,"refTime":"2024-05-08T12:00:00:Z","depth":0,"parameterNumber":2,"parameterNumberName":"U-component_of_WINDS"},"data":[0.0,0.0,0.0,0.0,0.0,0.0,0.0,0.0,0.0,0.0,0.0,0.0,0.0,0.0,0.0,0.0,0.0,0.0,0.0,0.0,0.0,0.0,0.0,0.0,0.0,0.0,0.0,0.0,0.0,0.0,0.0,0.0,0.0,0.0,0.0,0.0,0.0,0.0,0.0,0.0,0.0,0.0,0.0,0.0,0.0,0.0,0.0,0.0,0.0,0.0,0.0,0.0,0.0,0.0,0.0,0.0,0.0,0.0,0.0,0.0,0.0,0.0,0.0,0.0,0.0,0.0,0.0,0.0,0.0,0.0,0.0,0.0,0.0,0.0,0.0,0.0,0.0,0.0,0.0,0.0,0.0,0.0,0.0,0.0,0.0,0.0,0.0,0.0,0.0,0.0,0.0,0.0,0.0,0.0,0.0,0.0,0.0,0.0,0.0,0.0,0.0,0.0,0.0,0.0,0.0,0.0,0.0,0.0,0.0,0.0,0.0,0.0,0.0,0.0,0.0,0.0,0.0,0.0,0.0,0.0,0.0,0.0,0.0,0.0,0.0,0.0,0.0,0.0,0.0,0.0,0.0,0.0,0.0,0.0,0.0,0.0,0.0,0.0,0.0,0.0,0.0,0.0,0.0,0.0,0.0,0.0,0.0,0.0,0.0,0.0,0.0,0.0,0.0,0.0,0.0,0.0,0.0,0.0,0.0,0.0,0.0,0.0,0.0,0.0,0.0,0.0,0.0,0.0,0.0,0.0,0.0,0.0,0.0,0.0,0.0,0.0,0.0,0.0,0.0,0.0,0.0,0.0,0.0,0.0,0.0,0.0,0.0,0.0,0.0,0.0,0.0,0.0,0.0,0.0,0.0,0.0,0.0,0.0,0.0,0.0,0.0,0.0,0.0,0.0,0.0,0.0,0.0,0.0,0.0,0.0,0.0,0.0,0.0,0.0,0.0,0.0,0.0,0.0,0.0,0.0,0.0,0.0,0.0,0.0,0.0,0.0,0.0,0.0,0.0,0.0,0.0,0.0,0.0,0.0,0.0,0.0,0.0,0.0,0.0,0.0,0.0,0.0,0.0,0.0,0.0,0.0,0.0,0.0,0.0,0.0,0.0,0.0,0.0,0.0,0.0,0.0,0.0,0.0,0.0,0.0,0.0,0.0,0.0,0.0,0.0,0.0,0.0,0.0,0.0,0.0,0.0,0.0,0.0,0.0,0.0,0.0,0.0,0.0,0.0,0.0,0.0,0.0,0.0,0.0,0.0,0.0,0.0,0.0,0.0,0.0,0.0,0.0,0.0,0.0,0.0,0.0,0.0,0.0,0.0,0.0,0.0,0.0,0.0,0.0,0.0,0.0,0.0,0.0,0.0,0.0,0.0,0.0,0.0,0.0,0.0,0.0,0.0,0.0,0.0,0.0,0.0,0.0,0.0,0.0,0.0,0.0,0.0,0.0,0.0,0.0,0.0,0.0,0.0,0.0,0.0,0.0,0.0,0.0,0.0,0.0,0.0,0.0,0.0,0.0,0.0,0.0,0.0,0.0,0.0,0.0,0.0,0.0,0.0,0.0,0.0,0.0,0.0,0.0,0.0,0.0,0.0,0.0,0.0,0.0,0.0,0.0,0.0,0.0,0.0,0.0,0.0,0.0,0.0,0.0,0.0,0.0,0.0,0.0,0.0,0.0,0.0,0.0,0.0,0.0,0.0,0.0,0.0,0.0,0.0,0.0,0.0,0.0,0.0,0.0,0.0,0.0,0.0,0.0,0.0,0.0,0.0,0.0,0.0,0.0,0.0,0.0,0.0,0.0,0.0,0.0,0.0,0.0,0.0,0.0,0.0,0.0,0.0,0.0,0.0,0.0,0.0,0.0,0.0,0.0,0.0,0.0,0.0,0.0,0.0,0.0,0.0,0.0,0.0,0.0,0.0,0.0,0.0,0.0,0.0,0.0,0.0,0.0,0.0,0.0,0.0,0.0,0.0,0.0,0.0,0.0,0.0,0.0,0.0,0.0,0.0,0.0,0.0,0.0,0.0,0.0,0.0,0.0,0.0,0.0,0.0,0.0,0.0,0.0,0.0,0.0,0.0,0.0,0.0,0.0,0.0,0.0,0.0,0.0,0.0,0.0,0.0,0.0,0.0,0.0,0.0,0.0,0.0,0.0,0.0,0.0,0.0,0.0,0.0,0.0,0.0,0.0,0.0,0.0,0.0,0.0,0.0,0.0,0.0,0.0,0.0,0.0,0.0,0.0,0.0,0.0,0.0,0.0,0.0,0.0,0.0,0.0,0.0,0.0,0.0,0.0,0.0,0.0,0.0,0.0,0.0,0.0,0.0,0.0,0.0,0.0,0.0,0.0,0.0,0.0,0.0,0.0,0.0,0.0,0.0,0.0,0.0,0.0,0.0,0.0,0.0,0.0,0.0,0.0,0.0,0.0,0.0,0.0,0.0,0.0,0.0,0.0,0.0,0.0,0.0,0.0,0.0,0.0,0.0,0.0,0.0,0.0,0.0,0.0,0.0,0.0,0.0,0.0,0.0,0.0,0.0,0.0,0.0,0.0,0.0,0.0,0.0,0.0,0.0,0.0,0.0,0.0,0.0,0.0,0.0,0.0,0.0,0.0,0.0,0.0,0.0,0.0,0.0,0.0,0.0,0.0,0.0,0.0,0.0,0.0,0.0,0.0,0.0,0.0,0.0,0.0,0.0,0.0,0.0,0.0,0.0,0.0,0.0,0.0,0.0,0.0,0.0,0.0,0.0,0.0,0.0,0.0,0.0,0.0,0.0,0.0,0.0,0.0,0.0,0.0,0.0,0.0,0.0,0.0,0.0,0.0,0.0,0.0,0.0,0.0,0.0,0.0,0.0,0.0,0.0,0.0,0.0,0.0,0.0,0.0,0.0,0.0,0.0,0.0,0.0,0.0,0.0,0.0,0.0,0.0,0.0,0.0,0.0,0.0,0.0,0.0,0.0,0.0,0.0,0.0,0.0,0.0,0.0,0.0,0.0,0.0,0.0,0.0,0.0,0.0,0.0,0.0,0.0,0.0,0.0,0.0,0.0,0.0,0.0,0.0,0.0,0.0,0.0,0.0,0.0,0.0,0.0,0.0,0.0,0.0,0.0,0.0,0.0,0.0,0.0,0.0,0.0,0.0,0.0,0.0,0.0,0.0,0.0,0.0,0.0,0.0,0.0,0.0,0.0,0.0,0.0,0.0,0.0,0.0,0.0,0.0,0.0,0.0,0.0,0.0,0.0,0.0,0.0,0.0,0.0,0.0,0.0,0.0,0.0,0.0,0.0,0.0,0.0,0.0,0.0,0.0,0.0,0.0,0.0,0.0,0.0,0.0,0.0,0.0,0.0,0.0,0.0,0.0,0.0,0.0,0.0,0.0,0.0,0.0,0.0,0.0,0.0,0.0,0.0,0.0,0.0,0.0,0.0,0.0,0.0,0.0,0.0,0.0,0.0,0.0,0.0,0.0,0.0,0.0,0.0,0.0,0.0,0.0,0.0,0.0,0.0,0.0,0.0,0.0,0.0,0.0,0.0,0.0,0.0,0.0,0.0,0.0,0.0,0.0,0.0,0.0,0.0,0.0,0.0,0.0,0.0,0.0,0.0,0.0,0.0,0.0,0.0,0.0,0.0,0.0,0.0,0.0,0.0,0.0,0.0,0.0,0.0,0.0,0.0,0.0,0.0,0.0,0.0,0.0,0.0,0.0,0.0,0.0,0.0,0.0,0.0,0.0,0.0,0.0,0.0,0.0,0.0,0.0,0.0,0.0,0.0,0.0,0.0,0.0,0.0,0.0,0.0,0.0,0.0,0.0,0.0,0.0,0.0,0.0,0.0,0.0,0.0,0.0,0.0,0.0,0.0,0.0,0.0,0.0,0.0,0.0,0.0,0.0,0.0,0.0,0.0,0.0,0.0,0.0,0.0,0.0,0.0,0.0,0.0,0.0,0.0,0.0,0.0,0.0,0.0,0.0,0.0,0.0,0.0,0.0,0.0,0.0,0.0,0.0,0.0,0.0,0.0,0.0,0.0,0.0,0.0,0.0,0.0,0.0,0.0,0.0,0.0,0.0,0.0,0.0,0.0,0.0,0.0,0.0,0.0,0.0,0.0,0.0,0.0,0.0,0.0,0.0,0.0,0.0,0.0,0.0,0.0,0.0,0.0,0.0,0.0,0.0,0.0,0.0,0.0,0.0,0.0,0.0,0.0,0.0,0.0,0.0,0.0,0.0,0.0,0.0,0.0,0.0,0.0,0.0,0.0,0.0,-1.7253,0.0,0.0,0.0,0.0,0.0,0.0,0.0,0.0,0.0,0.0,0.0,0.0,0.0,0.0,0.0,0.0,0.0,0.0,0.0,0.0,0.0,0.0,0.0,0.0,0.0,0.0,0.0,0.0,0.0,0.0,0.0,0.0,0.0,0.0,0.0,0.0,0.0,0.0,0.0,0.0,0.0,0.0,0.0,0.0,0.0,0.0,0.0,0.0,0.0,0.0,0.0,0.0,0.0,0.0,0.0,0.0,0.0,0.0,0.0,0.0,0.0,0.0,0.0,0.0,0.0,0.0,0.0,0.0,0.0,0.0,0.0,0.0,0.0,0.0,0.0,0.0,0.0,0.0,0.0,0.0,0.0,0.0,0.0,0.0,0.0,0.0,0.0,0.0,0.0,0.0,0.0,0.0,0.0,0.0,0.0,0.0,0.0,0.0,0.0,0.0,0.0,0.0,0.0,0.0,0.0,0.0,0.0,0.0,0.0,0.0,-1.8482,-1.8482,-1.8279,-1.793,-1.74,0.0,0.0,0.0,0.0,0.0,0.0,0.0,0.0,0.0,0.0,0.0,0.0,0.0,0.0,0.0,0.0,0.0,0.0,0.0,0.0,0.0,0.0,0.0,0.0,0.0,0.0,0.0,0.0,0.0,0.0,0.0,0.0,0.0,0.0,0.0,0.0,0.0,0.0,0.0,0.0,0.0,0.0,0.0,0.0,0.0,0.0,0.0,0.0,0.0,0.0,0.0,0.0,0.0,0.0,0.0,0.0,0.0,0.0,0.0,0.0,0.0,0.0,0.0,0.0,0.0,0.0,0.0,0.0,0.0,0.0,0.0,0.0,0.0,0.0,0.0,0.0,0.0,0.0,0.0,0.0,0.0,0.0,0.0,0.0,0.0,0.0,0.0,0.0,0.0,0.0,0.0,0.0,0.0,0.0,0.0,0.0,0.0,0.0,0.0,0.0,0.0,0.0,0.0,0.0,0.0,0.0,0.0,0.0,0.0,0.0,0.0,0.0,-1.8499,-1.8049,-1.7287,0.0,0.0,0.0,0.0,0.0,0.0,0.0,0.0,0.0,0.0,0.0,0.0,0.0,0.0,0.0,0.0,0.0,0.0,0.0,0.0,0.0,0.0,0.0,0.0,0.0,0.0,0.0,0.0,0.0,0.0,0.0,0.0,0.0,0.0,0.0,0.0,0.0,0.0,0.0,0.0,0.0,0.0,0.0,0.0,0.0,0.0,0.0,0.0,0.0,0.0,0.0,0.0,0.0,0.0,0.0,0.0,0.0,0.0,0.0,0.0,0.0,0.0,0.0,0.0,0.0,0.0,0.0,0.0,0.0,0.0,0.0,0.0,0.0,0.0,0.0,0.0,0.0,0.0,0.0,0.0,0.0,0.0,0.0,0.0,0.0,0.0,0.0,0.0,0.0,0.0,0.0,0.0,0.0,0.0,0.0,0.0,0.0,0.0,0.0,0.0,0.0,0.0,0.0,0.0,0.0,0.0,0.0,0.0,0.0,0.0,-1.9058,-1.9042,-1.8841,0.0,-1.701,0.0,0.0,0.0,0.0,0.0,0.0,0.0,0.0,0.0,0.0,0.0,0.0,0.0,0.0,0.0,0.0,0.0,0.0,0.0,0.0,0.0,0.0,0.0,0.0,0.0,0.0,0.0,0.0,0.0,0.0,0.0,0.0,0.0,0.0,0.0,0.0,0.0,0.0,0.0,0.0,0.0,0.0,0.0,0.0,0.0,0.0,0.0,0.0,0.0,0.0,0.0,0.0,0.0,0.0,0.0,0.0,0.0,0.0,0.0,0.0,0.0,0.0,0.0,0.0,0.0,0.0,0.0,0.0,0.0,0.0,0.0,0.0,0.0,0.0,0.0,0.0,0.0,0.0,0.0,0.0,0.0,0.0,0.0,0.0,0.0,0.0,0.0,0.0,0.0,0.0,0.0,0.0,0.0,0.0,0.0,0.0,0.0,0.0,0.0,0.0,0.0,0.0,0.0,0.0,0.0,0.0,0.0,0.0,0.0,0.0,-1.9098,-1.9098,-1.8707,-1.81,0.0,0.0,0.0,0.0,0.0,0.0,0.0,0.0,0.0,0.0,0.0,0.0,0.0,0.0,0.0,0.0,0.0,0.0,0.0,0.0,0.0,0.0,0.0,0.0,0.0,0.0,0.0,0.0,0.0,0.0,0.0,0.0,0.0,0.0,0.0,0.0,0.0,0.0,0.0,0.0,0.0,0.0,0.0,0.0,0.0,0.0,0.0,0.0,0.0,0.0,0.0,0.0,0.0,0.0,0.0,0.0,0.0,0.0,0.0,0.0,0.0,0.0,0.0,0.0,0.0,0.0,0.0,0.0,0.0,0.0,0.0,0.0,0.0,0.0,0.0,0.0,0.0,0.0,0.0,0.0,0.0,0.0,0.0,0.0,0.0,0.0,0.0,0.0,0.0,0.0,0.0,0.0,0.0,0.0,0.0,0.0,0.0,0.0,0.0,0.0,0.0,0.0,0.0,0.0,0.0,0.0,0.0,0.0,0.0,0.0,-1.9098,-1.9098,-1.9081,-1.8607,-1.8083,-1.752,0.0,0.0,0.0,0.0,0.0,0.0,0.0,0.0,0.0,0.0,0.0,0.0,0.0,0.0,0.0,0.0,0.0,0.0,0.0,0.0,0.0,0.0,0.0,0.0,0.0,0.0,0.0,0.0,0.0,0.0,0.0,0.0,0.0,0.0,0.0,0.0,0.0,0.0,0.0,0.0,0.0,0.0,0.0,0.0,0.0,0.0,0.0,0.0,0.0,0.0,0.0,0.0,0.0,0.0,0.0,0.0,0.0,0.0,0.0,0.0,0.0,0.0,0.0,0.0,0.0,0.0,0.0,0.0,0.0,0.0,0.0,0.0,0.0,0.0,0.0,0.0,0.0,0.0,0.0,0.0,0.0,0.0,0.0,0.0,0.0,0.0,0.0,0.0,0.0,0.0,0.0,0.0,0.0,0.0,0.0,0.0,0.0,0.0,0.0,0.0,0.0,0.0,0.0,0.0,0.0,0.0,0.0,0.0,-1.9098,-1.9098,-1.9098,-1.9108,-1.8707,-1.8236,0.0,0.0,0.0,0.0,0.0,0.0,0.0,0.0,0.0,0.0,0.0,0.0,0.0,0.0,0.0,0.0,0.0,0.0,0.0,0.0,0.0,0.0,0.0,0.0,0.0,0.0,0.0,0.0,0.0,0.0,0.0,0.0,0.0,0.0,0.0,0.0,0.0,0.0,0.0,0.0,0.0,0.0,0.0,0.0,0.0,0.0,0.0,0.0,0.0,0.0,0.0,0.0,0.0,0.0,0.0,0.0,0.0,0.0,0.0,0.0,0.0,0.0,0.0,0.0,0.0,0.0,0.0,0.0,0.0,0.0,0.0,0.0,0.0,0.0,0.0,0.0,0.0,0.0,0.0,0.0,0.0,0.0,0.0,0.0,0.0,0.0,0.0,0.0,0.0,0.0,0.0,0.0,0.0,0.0,0.0,0.0,0.0,0.0,0.0,0.0,0.0,0.0,0.0,0.0,0.0,0.0,0.0,0.0,0.0,-1.9241,-1.9351,-1.9357,-1.9225,-1.8885,-1.8438,0.0,0.0,0.0,0.0,0.0,0.0,0.0,0.0,0.0,0.0,0.0,0.0,0.0,0.0,0.0,0.0,0.0,0.0,0.0,0.0,0.0,0.0,0.0,0.0,0.0,0.0,0.0,0.0,0.0,0.0,0.0,0.0,0.0,0.0,0.0,0.0,0.0,0.0,0.0,0.0,0.0,0.0,0.0,0.0,0.0,0.0,0.0,0.0,0.0,0.0,0.0,0.0,0.0,0.0,0.0,0.0,0.0,0.0,0.0,0.0,0.0,0.0,0.0,0.0,0.0,0.0,0.0,0.0,0.0,0.0,0.0,0.0,0.0,0.0,0.0,0.0,0.0,0.0,0.0,0.0,0.0,0.0,0.0,0.0,0.0,0.0,0.0,0.0,0.0,0.0,0.0,0.0,0.0,0.0,0.0,0.0,0.0,0.0,0.0,0.0,0.0,0.0,0.0,0.0,0.0,0.0,0.0,0.0,0.0,-1.9318,0.0,-1.9506,-1.9308,-1.8958,-1.8549,0.0,0.0,0.0,0.0,0.0,0.0,0.0,0.0,0.0,0.0,0.0,0.0,0.0,0.0,0.0,0.0,0.0,0.0,0.0,0.0,0.0,0.0,0.0,0.0,0.0,0.0,0.0,0.0,0.0,0.0,0.0,0.0,0.0,0.0,0.0,0.0,0.0,0.0,0.0,0.0,0.0,0.0,0.0,0.0,0.0,0.0,0.0,0.0,0.0,0.0,0.0,0.0,0.0,0.0,0.0,0.0,0.0,0.0,0.0,0.0,0.0,0.0,0.0,0.0,0.0,0.0,0.0,0.0,0.0,0.0,0.0,0.0,0.0,0.0,0.0,0.0,0.0,0.0,0.0,0.0,0.0,0.0,0.0,0.0,0.0,0.0,0.0,0.0,0.0,0.0,0.0,0.0,0.0,0.0,0.0,0.0,0.0,0.0,0.0,0.0,0.0,0.0,0.0,0.0,0.0,0.0,0.0,0.0,-1.9179,-1.9301,-1.95,-1.9522,-1.9308,-1.8975,-1.8539,0.0,0.0,0.0,0.0,0.0,0.0,0.0,0.0,0.0,0.0,0.0,0.0,0.0,0.0,0.0,0.0,0.0,0.0,0.0,0.0,0.0,0.0,0.0,0.0,0.0,0.0,0.0,0.0,0.0,0.0,0.0,0.0,0.0,0.0,0.0,0.0,0.0,0.0,0.0,0.0,0.0,0.0,0.0,0.0,0.0,0.0,0.0,0.0,0.0,0.0,0.0,0.0,0.0,0.0,0.0,0.0,0.0,0.0,0.0,0.0,0.0,0.0,0.0,0.0,0.0,0.0,0.0,0.0,0.0,0.0,0.0,0.0,0.0,0.0,0.0,0.0,0.0,0.0,0.0,0.0,0.0,0.0,0.0,0.0,0.0,0.0,0.0,0.0,0.0,0.0,0.0,0.0,0.0,0.0,0.0,0.0,0.0,0.0,0.0,0.0,0.0,0.0,0.0,0.0,0.0,0.0,0.0,0.0,0.0,-1.9322,-1.9638,-1.9654,-1.9308,-1.9108,-1.8691,0.0,0.0,0.0,0.0,0.0,0.0,0.0,0.0,0.0,0.0,0.0,0.0,0.0,0.0,0.0,0.0,0.0,0.0,0.0,0.0,0.0,0.0,0.0,0.0,0.0,0.0,0.0,0.0,0.0,0.0,0.0,0.0,0.0,0.0,0.0,0.0,0.0,0.0,0.0,0.0,0.0,0.0,0.0,0.0,0.0,0.0,0.0,0.0,0.0,0.0,0.0,0.0,0.0,0.0,0.0,0.0,0.0,0.0,0.0,0.0,0.0,0.0,0.0,0.0,0.0,0.0,0.0,0.0,0.0,0.0,0.0,0.0,0.0,0.0,0.0,0.0,0.0,0.0,0.0,0.0,0.0,0.0,0.0,0.0,0.0,0.0,0.0,0.0,0.0,0.0,0.0,0.0,0.0,0.0,0.0,0.0,0.0,0.0,0.0,0.0,0.0,0.0,0.0,0.0,0.0,0.0,0.0,0.0,0.0,-1.9637,-2.0069,-2.0068,-1.9563,-1.9351,-1.8863,-1.8018,0.0,0.0,0.0,0.0,0.0,0.0,0.0,0.0,0.0,0.0,0.0,0.0,0.0,0.0,0.0,0.0,0.0,0.0,0.0,0.0,0.0,0.0,0.0,0.0,0.0,0.0,0.0,0.0,0.0,0.0,0.0,0.0,0.0,0.0,0.0,0.0,0.0,0.0,0.0,0.0,0.0,0.0,0.0,0.0,0.0,0.0,0.0,0.0,0.0,0.0,0.0,0.0,0.0,0.0,0.0,0.0,0.0,0.0,0.0,0.0,0.0,0.0,0.0,0.0,0.0,0.0,0.0,0.0,0.0,0.0,0.0,0.0,0.0,0.0,0.0,0.0,0.0,0.0,0.0,0.0,0.0,0.0,0.0,0.0,0.0,0.0,0.0,0.0,0.0,0.0,0.0,0.0,0.0,0.0,0.0,0.0,0.0,0.0,0.0,0.0,0.0,0.0,0.0,0.0,0.0,0.0,0.0,0.0,-2.0144,-2.0721,-2.0685,-2.001,-1.9678,-1.9042,0.0,0.0,0.0,0.0,0.0,0.0,0.0,0.0,0.0,0.0,0.0,0.0,0.0,0.0,0.0,0.0,0.0,0.0,0.0,0.0,0.0,0.0,0.0,0.0,0.0,0.0,0.0,0.0,0.0,0.0,0.0,0.0,0.0,0.0,0.0,0.0,0.0,0.0,0.0,0.0,0.0,0.0,0.0,0.0,0.0,0.0,0.0,0.0,0.0,0.0,0.0,0.0,0.0,0.0,0.0,0.0,0.0,0.0,0.0,0.0,0.0,0.0,0.0,0.0,0.0,0.0,0.0,0.0,0.0,0.0,0.0,0.0,0.0,0.0,0.0,0.0,0.0,0.0,0.0,0.0,0.0,0.0,0.0,0.0,0.0,0.0,0.0,0.0,0.0,0.0,0.0,0.0,0.0,0.0,0.0,0.0,0.0,0.0,0.0,0.0,0.0,0.0,0.0,0.0,0.0,0.0,0.0,0.0,0.0,-2.091,-2.1061,-2.0814,-2.0101,-1.9857,-1.9219,0.0,0.0,0.0,0.0,0.0,0.0,0.0,0.0,0.0,0.0,0.0,0.0,0.0,0.0,0.0,0.0,0.0,0.0,0.0,0.0,0.0,0.0,0.0,0.0,0.0,0.0,0.0,0.0,0.0,0.0,0.0,0.0,0.0,0.0,0.0,0.0,0.0,0.0,0.0,0.0,0.0,0.0,0.0,0.0,0.0,0.0,0.0,0.0,0.0,0.0,0.0,0.0,0.0,0.0,0.0,0.0,0.0,0.0,0.0,0.0,0.0,0.0,0.0,0.0,0.0,0.0,0.0,0.0,0.0,0.0,0.0,0.0,0.0,0.0,0.0,0.0,0.0,0.0,0.0,0.0,0.0,0.0,0.0,0.0,0.0,0.0,0.0,0.0,0.0,0.0,0.0,0.0,0.0,0.0,0.0,0.0,0.0,0.0,0.0,0.0,0.0,0.0,0.0,0.0,0.0,0.0,0.0,0.0,-2.0566,-2.0809,-2.0896,-2.0696,-2.0179,-1.9963,-1.9327,0.0,0.0,0.0,0.0,0.0,0.0,0.0,0.0,0.0,0.0,0.0,0.0,0.0,0.0,0.0,0.0,0.0,0.0,0.0,0.0,0.0,0.0,0.0,0.0,0.0,0.0,0.0,0.0,0.0,0.0,0.0,0.0,0.0,0.0,0.0,0.0,0.0,0.0,0.0,0.0,0.0,0.0,0.0,0.0,0.0,0.0,0.0,0.0,0.0,0.0,0.0,0.0,0.0,0.0,0.0,0.0,0.0,0.0,0.0,0.0,0.0,0.0,0.0,0.0,0.0,0.0,0.0,0.0,0.0,0.0,0.0,0.0,0.0,0.0,0.0,0.0,0.0,0.0,0.0,0.0,0.0,0.0,0.0,0.0,0.0,0.0,0.0,0.0,0.0,0.0,0.0,0.0,0.0,0.0,0.0,0.0,0.0,0.0,0.0,0.0,0.0,0.0,0.0,0.0,0.0,0.0,0.0,0.0,-2.0206,-2.0225,-2.0411,-2.0391,-2.0177,-1.9975,-1.9363,0.0,0.0,0.0,0.0,0.0,0.0,0.0,0.0,0.0,0.0,0.0,0.0,0.0,0.0,0.0,0.0,0.0,0.0,0.0,0.0,0.0,0.0,0.0,0.0,0.0,0.0,0.0,0.0,0.0,0.0,0.0,0.0,0.0,0.0,0.0,0.0,0.0,0.0,0.0,0.0,0.0,0.0,0.0,0.0,0.0,0.0,0.0,0.0,0.0,0.0,0.0,0.0,0.0,0.0,0.0,0.0,0.0,0.0,0.0,0.0,0.0,0.0,0.0,0.0,0.0,0.0,0.0,0.0,0.0,0.0,0.0,0.0,0.0,0.0,0.0,0.0,0.0,0.0,0.0,0.0,0.0,0.0,0.0,0.0,0.0,0.0,0.0,0.0,0.0,0.0,0.0,0.0,0.0,0.0,0.0,0.0,0.0,0.0,0.0,0.0,0.0,0.0,0.0,0.0,0.0,0.0,0.0,0.0,-1.9607,-1.9735,-1.9794,-1.9636,-1.928,-1.9514,-1.9166,0.0,0.0,0.0,0.0,0.0,0.0,0.0,0.0,0.0,0.0,0.0,0.0,0.0,0.0,0.0,0.0,0.0,0.0,0.0,0.0,0.0,0.0,0.0,0.0,0.0,0.0,0.0,0.0,0.0,0.0,0.0,0.0,0.0,0.0,0.0,0.0,0.0,0.0,0.0,0.0,0.0,0.0,0.0,0.0,0.0,0.0,0.0,0.0,-1.2953,0.0,0.0,0.0,0.0,0.0,0.0,0.0,0.0,0.0,0.0,0.0,0.0,0.0,0.0,0.0,0.0,0.0,0.0,0.0,0.0,0.0,0.0,0.0,0.0,0.0,0.0,0.0,0.0,0.0,0.0,0.0,0.0,0.0,0.0,0.0,0.0,0.0,0.0,0.0,0.0,0.0,0.0,0.0,0.0,0.0,0.0,0.0,0.0,0.0,0.0,0.0,0.0,0.0,0.0,0.0,0.0,0.0,0.0,0.0,-1.9152,-1.9385,-1.927,-1.9112,-1.8951,-1.8883,-1.8607,0.0,0.0,0.0,0.0,0.0,0.0,0.0,0.0,0.0,0.0,0.0,0.0,0.0,0.0,0.0,0.0,0.0,0.0,0.0,0.0,0.0,0.0,0.0,0.0,0.0,0.0,0.0,0.0,0.0,0.0,0.0,0.0,0.0,0.0,0.0,0.0,0.0,0.0,0.0,0.0,0.0,0.0,0.0,0.0,0.0,0.0,0.0,0.0,0.0,0.0,0.0,0.0,0.0,0.0,0.0,0.0,0.0,0.0,0.0,0.0,0.0,0.0,0.0,0.0,0.0,0.0,0.0,0.0,0.0,0.0,0.0,0.0,0.0,0.0,0.0,0.0,0.0,0.0,0.0,0.0,0.0,0.0,0.0,0.0,0.0,0.0,0.0,0.0,0.0,0.0,0.0,0.0,0.0,0.0,0.0,0.0,0.0,0.0,0.0,0.0,0.0,0.0,0.0,0.0,0.0,0.0,0.0,-1.8593,-1.8818,-1.9079,-1.8839,-1.8737,-1.8742,-1.8186,-1.7848,-1.7797,0.0,0.0,0.0,0.0,0.0,0.0,0.0,0.0,0.0,0.0,0.0,0.0,0.0,0.0,0.0,0.0,0.0,0.0,0.0,0.0,0.0,0.0,0.0,0.0,0.0,0.0,0.0,0.0,0.0,0.0,0.0,0.0,0.0,0.0,0.0,0.0,0.0,0.0,-1.2698,-1.2639,0.0,0.0,0.0,0.0,0.0,0.0,0.0,0.0,-1.448,0.0,0.0,0.0,0.0,0.0,0.0,0.0,0.0,0.0,0.0,0.0,0.0,0.0,0.0,0.0,0.0,0.0,0.0,0.0,0.0,0.0,0.0,0.0,0.0,0.0,0.0,0.0,0.0,0.0,0.0,0.0,0.0,0.0,0.0,0.0,0.0,0.0,0.0,0.0,0.0,0.0,0.0,0.0,0.0,0.0,0.0,0.0,0.0,0.0,0.0,0.0,0.0,0.0,0.0,0.0,0.0,-1.8402,-1.855,-1.8645,-1.8705,-1.8765,-1.8562,-1.8079,-1.7636,-1.7257,-1.6918,0.0,0.0,0.0,0.0,0.0,0.0,0.0,0.0,0.0,0.0,0.0,0.0,0.0,0.0,0.0,0.0,0.0,0.0,0.0,0.0,0.0,0.0,0.0,0.0,0.0,0.0,0.0,0.0,0.0,0.0,0.0,0.0,0.0,0.0,0.0,0.0,0.0,0.0,0.0,-1.3016,-1.3074,0.0,0.0,0.0,0.0,0.0,0.0,0.0,0.0,-1.4996,0.0,0.0,0.0,0.0,0.0,0.0,0.0,0.0,0.0,0.0,0.0,0.0,0.0,0.0,0.0,0.0,0.0,0.0,0.0,0.0,0.0,0.0,0.0,0.0,0.0,0.0,0.0,0.0,0.0,0.0,0.0,0.0,0.0,0.0,0.0,0.0,0.0,0.0,0.0,0.0,0.0,0.0,0.0,0.0,0.0,0.0,0.0,0.0,0.0,0.0,0.0,0.0,0.0,0.0,0.0,-1.8117,-1.8187,-1.8423,-1.8792,-1.8554,-1.8248,-1.7854,-1.7273,-1.6655,0.0,0.0,0.0,0.0,0.0,0.0,0.0,0.0,0.0,0.0,0.0,0.0,0.0,0.0,0.0,0.0,0.0,0.0,0.0,0.0,0.0,0.0,0.0,0.0,0.0,0.0,0.0,0.0,0.0,0.0,0.0,0.0,0.0,0.0,0.0,0.0,0.0,0.0,0.0,0.0,-1.3639,-1.3635,-1.3661,0.0,0.0,0.0,0.0,0.0,0.0,-1.5173,-1.5081,0.0,0.0,0.0,0.0,0.0,0.0,0.0,0.0,0.0,0.0,0.0,0.0,0.0,0.0,0.0,0.0,0.0,0.0,0.0,0.0,0.0,0.0,0.0,0.0,0.0,0.0,0.0,0.0,0.0,0.0,0.0,0.0,0.0,0.0,0.0,0.0,0.0,0.0,0.0,0.0,0.0,0.0,0.0,0.0,0.0,0.0,0.0,0.0,0.0,0.0,0.0,0.0,0.0,0.0,0.0,-1.7824,-1.7885,-1.8194,-1.8732,-1.8348,-1.7922,-1.7575,-1.6912,-1.6151,0.0,0.0,0.0,0.0,0.0,0.0,0.0,0.0,0.0,0.0,0.0,0.0,0.0,0.0,0.0,0.0,0.0,0.0,0.0,0.0,0.0,0.0,0.0,0.0,0.0,0.0,0.0,0.0,0.0,0.0,0.0,0.0,0.0,0.0,0.0,0.0,0.0,0.0,0.0,0.0,0.0,-1.409,-1.409,-1.4109,0.0,0.0,0.0,0.0,-1.5145,-1.5131,0.0,0.0,0.0,0.0,0.0,0.0,0.0,0.0,0.0,0.0,0.0,0.0,0.0,0.0,0.0,0.0,0.0,0.0,0.0,0.0,0.0,0.0,0.0,0.0,0.0,0.0,0.0,0.0,0.0,0.0,0.0,0.0,0.0,0.0,0.0,0.0,0.0,0.0,0.0,0.0,0.0,0.0,0.0,0.0,0.0,0.0,0.0,0.0,0.0,0.0,0.0,0.0,0.0,0.0,0.0,0.0,-1.7717,-1.7842,-1.7933,-1.8027,-1.8086,-1.769,-1.686,-1.6558,-1.5915,0.0,0.0,0.0,0.0,0.0,0.0,0.0,0.0,0.0,0.0,0.0,0.0,0.0,0.0,0.0,0.0,0.0,0.0,0.0,0.0,0.0,0.0,0.0,0.0,0.0,0.0,0.0,0.0,0.0,0.0,0.0,0.0,0.0,0.0,0.0,0.0,0.0,0.0,0.0,0.0,0.0,-1.4301,-1.4124,-1.4109,-1.413,0.0,0.0,-1.465,-1.4524,-1.4852,0.0,0.0,0.0,0.0,0.0,0.0,0.0,0.0,0.0,0.0,0.0,0.0,0.0,0.0,0.0,0.0,0.0,0.0,0.0,0.0,0.0,0.0,0.0,0.0,0.0,0.0,0.0,0.0,0.0,0.0,0.0,0.0,0.0,0.0,0.0,0.0,0.0,0.0,0.0,0.0,0.0,0.0,0.0,0.0,0.0,0.0,0.0,0.0,0.0,0.0,0.0,0.0,0.0,0.0,0.0,-1.7134,-1.7414,-1.7627,-1.7833,-1.8003,-1.7771,-1.739,-1.6839,-1.6143,-1.5404,0.0,0.0,0.0,0.0,0.0,0.0,0.0,0.0,0.0,0.0,0.0,0.0,0.0,0.0,0.0,0.0,0.0,0.0,0.0,0.0,0.0,0.0,0.0,0.0,0.0,0.0,0.0,0.0,0.0,0.0,0.0,0.0,0.0,0.0,0.0,0.0,0.0,0.0,0.0,0.0,0.0,0.0,-1.3758,-1.3807,0.0,0.0,0.0,-1.4412,-1.4545,0.0,0.0,0.0,0.0,0.0,0.0,0.0,0.0,0.0,0.0,0.0,0.0,0.0,0.0,0.0,0.0,0.0,0.0,0.0,0.0,0.0,0.0,0.0,0.0,0.0,0.0,0.0,0.0,0.0,0.0,0.0,0.0,0.0,0.0,0.0,0.0,0.0,0.0,0.0,0.0,0.0,0.0,0.0,0.0,0.0,0.0,0.0,0.0,0.0,0.0,0.0,0.0,0.0,0.0,0.0,0.0,0.0,-1.7043,-1.7249,-1.746,-1.7699,-1.7333,-1.6947,-1.6614,-1.5783,0.0,0.0,0.0,0.0,0.0,0.0,0.0,0.0,0.0,0.0,0.0,0.0,0.0,0.0,0.0,0.0,0.0,0.0,0.0,0.0,0.0,0.0,0.0,0.0,0.0,0.0,0.0,-1.2705,0.0,0.0,0.0,0.0,0.0,0.0,0.0,0.0,0.0,0.0,0.0,0.0,0.0,0.0,-1.3935,-1.3392,-1.3504,-1.3695,0.0,0.0,-1.4082,-1.4342,-1.4314,-1.4188,0.0,0.0,0.0,0.0,0.0,0.0,0.0,0.0,0.0,0.0,0.0,0.0,0.0,0.0,0.0,0.0,0.0,0.0,0.0,0.0,0.0,0.0,0.0,0.0,0.0,0.0,0.0,0.0,0.0,0.0,0.0,0.0,0.0,0.0,0.0,0.0,0.0,0.0,0.0,0.0,0.0,0.0,0.0,0.0,0.0,0.0,0.0,0.0,0.0,0.0,0.0,0.0,0.0,0.0,-1.6626,-1.6648,-1.6678,-1.6702,-1.6706,-1.6676,-1.6395,-1.5879,-1.5562,-1.4916,0.0,0.0,0.0,0.0,0.0,0.0,0.0,0.0,0.0,0.0,0.0,0.0,0.0,0.0,0.0,0.0,0.0,0.0,0.0,0.0,0.0,0.0,0.0,0.0,0.0,0.0,0.0,0.0,0.0,0.0,0.0,0.0,0.0,0.0,0.0,0.0,0.0,0.0,0.0,0.0,0.0,-1.3377,-1.3164,-1.3292,-1.3419,0.0,-1.361,-1.3673,-1.3519,-1.3652,-1.3603,-1.327,0.0,0.0,0.0,0.0,0.0,0.0,0.0,0.0,0.0,0.0,0.0,0.0,0.0,0.0,0.0,0.0,0.0,0.0,0.0,0.0,0.0,0.0,0.0,0.0,0.0,0.0,0.0,0.0,0.0,0.0,0.0,0.0,0.0,0.0,0.0,0.0,0.0,0.0,0.0,0.0,0.0,0.0,0.0,0.0,0.0,0.0,0.0,0.0,0.0,0.0,0.0,0.0,0.0,-1.6359,-1.6353,-1.6518,-1.6612,-1.6612,-1.6447,-1.6257,-1.6053,-1.5614,-1.5078,0.0,0.0,0.0,0.0,0.0,0.0,0.0,0.0,0.0,0.0,0.0,0.0,0.0,0.0,0.0,0.0,0.0,0.0,0.0,0.0,0.0,0.0,0.0,0.0,0.0,0.0,0.0,0.0,-1.2705,-1.2662,-1.2534,0.0,0.0,0.0,0.0,0.0,0.0,0.0,0.0,0.0,0.0,-1.2662,-1.2277,-1.2561,0.0,0.0,-1.2945,-1.3067,-1.2988,-1.3179,-1.3228,-1.2918,-1.2662,0.0,0.0,0.0,0.0,0.0,0.0,0.0,0.0,0.0,0.0,0.0,0.0,0.0,0.0,0.0,0.0,0.0,0.0,0.0,0.0,0.0,0.0,0.0,0.0,0.0,0.0,0.0,0.0,0.0,0.0,0.0,0.0,0.0,0.0,0.0,0.0,0.0,0.0,0.0,0.0,0.0,0.0,0.0,0.0,0.0,0.0,0.0,0.0,0.0,0.0,0.0,0.0,-1.6076,-1.6076,-1.6347,-1.6514,-1.6514,-1.6324,-1.6235,-1.6228,-1.5708,-1.5246,0.0,0.0,0.0,0.0,0.0,0.0,0.0,0.0,0.0,0.0,0.0,0.0,0.0,0.0,0.0,0.0,0.0,0.0,0.0,0.0,0.0,0.0,0.0,0.0,0.0,0.0,0.0,0.0,-1.2497,-1.2433,-1.2283,0.0,0.0,0.0,0.0,0.0,0.0,0.0,0.0,0.0,0.0,-1.1736,-1.1408,-1.1714,-1.1993,-1.2063,-1.2186,-1.2272,-1.2293,-1.2448,-1.2464,-1.2229,0.0,0.0,0.0,0.0,0.0,0.0,0.0,0.0,0.0,0.0,0.0,0.0,0.0,0.0,0.0,0.0,0.0,0.0,0.0,0.0,0.0,0.0,0.0,0.0,0.0,0.0,0.0,-1.6128,0.0,0.0,-1.6631,0.0,0.0,0.0,0.0,0.0,0.0,0.0,0.0,0.0,0.0,0.0,0.0,0.0,0.0,0.0,0.0,0.0,0.0,0.0,0.0,0.0,0.0,-1.5808,-1.5815,-1.6161,-1.6308,-1.6315,-1.629,-1.629,-1.6308,-1.578,-1.5385,-1.5094,0.0,0.0,0.0,0.0,0.0,0.0,0.0,0.0,0.0,0.0,0.0,0.0,0.0,0.0,0.0,0.0,0.0,0.0,0.0,0.0,0.0,0.0,0.0,0.0,0.0,0.0,-1.2072,-1.2022,-1.2006,0.0,0.0,0.0,0.0,0.0,0.0,0.0,0.0,0.0,-1.0679,-1.0614,-1.0636,-1.0631,-1.0852,-1.109,-1.1284,-1.1327,-1.1327,-1.1322,-1.1348,-1.1262,0.0,0.0,0.0,0.0,0.0,0.0,0.0,0.0,0.0,0.0,0.0,0.0,0.0,0.0,0.0,0.0,0.0,0.0,0.0,0.0,0.0,0.0,0.0,0.0,0.0,0.0,0.0,-1.6337,-1.6427,0.0,0.0,0.0,0.0,0.0,0.0,0.0,0.0,0.0,0.0,0.0,-1.6406,-1.6388,0.0,0.0,0.0,0.0,0.0,0.0,0.0,0.0,0.0,0.0,0.0,0.0,-1.5925,-1.6119,-1.625,-1.6391,-1.6553,-1.656,-1.6567,-1.6585,-1.6386,-1.6077,-1.5643,0.0,0.0,0.0,0.0,0.0,0.0,0.0,0.0,0.0,0.0,0.0,0.0,0.0,0.0,0.0,0.0,0.0,0.0,0.0,0.0,0.0,0.0,0.0,0.0,0.0,-1.2507,0.0,0.0,0.0,0.0,0.0,0.0,0.0,0.0,0.0,0.0,-1.0359,-1.0033,-0.9946,-0.9946,-0.9946,-0.9924,-1.0164,-1.0359,0.0,0.0,0.0,0.0,0.0,0.0,0.0,0.0,0.0,0.0,0.0,0.0,0.0,0.0,-0.8618,-0.8877,-0.8596,-0.8266,-0.8182,0.0,0.0,0.0,0.0,0.0,0.0,0.0,0.0,0.0,0.0,0.0,0.0,0.0,0.0,-1.6133,-1.6211,-1.6228,0.0,0.0,0.0,0.0,0.0,0.0,0.0,0.0,-1.6328,-1.6384,-1.6563,-1.6463,-1.6331,-1.6168,-1.6036,-1.5862,0.0,0.0,0.0,0.0,0.0,0.0,0.0,0.0,-1.5862,-1.6175,-1.635,-1.6573,-1.6847,-1.6886,-1.6886,-1.6879,-1.676,-1.6539,-1.6173,-1.549,-1.5008,0.0,0.0,0.0,0.0,0.0,0.0,0.0,0.0,0.0,0.0,0.0,0.0,0.0,0.0,0.0,0.0,0.0,0.0,0.0,0.0,0.0,0.0,0.0,-1.2161,0.0,0.0,0.0,0.0,0.0,0.0,0.0,0.0,0.0,-0.9912,-0.9574,-0.9288,-0.9199,-0.9166,-0.916,-0.9245,0.0,0.0,0.0,0.0,0.0,0.0,0.0,-0.9807,-0.9656,-0.966,-0.9522,-0.9182,-0.8739,-0.8204,-0.7524,0.0,0.0,-0.8,-0.776,-0.7466,-0.7399,-0.7011,-0.6614,-0.6408,-0.6012,-0.5605,0.0,0.0,0.0,0.0,-1.5089,0.0,0.0,0.0,-1.5139,-1.5313,0.0,-1.5545,0.0,0.0,0.0,0.0,-1.6259,-1.6279,0.0,0.0,-1.6401,-1.6307,-1.6301,-1.6049,-1.591,-1.5878,-1.5575,-1.5385,-1.5392,-1.5426,0.0,0.0,0.0,0.0,0.0,0.0,-1.5625,-1.5928,-1.6424,-1.6846,-1.7161,-1.7187,-1.7187,-1.7213,-1.6899,-1.672,-1.6707,-1.6205,-1.579,-1.5527,-1.5012,0.0,0.0,0.0,0.0,0.0,0.0,0.0,0.0,0.0,0.0,0.0,0.0,0.0,0.0,0.0,0.0,0.0,0.0,0.0,0.0,-1.1413,0.0,0.0,0.0,0.0,0.0,0.0,0.0,0.0,0.0,-0.8925,-0.9187,-0.8973,-0.8696,-0.8447,0.0,0.0,0.0,0.0,-0.8683,-0.8917,-0.8952,-0.8948,-0.8948,-0.8948,-0.8944,-0.8944,0.0,0.0,-0.8236,-0.7775,-0.7305,-0.6764,-0.6661,-0.6732,-0.6968,-0.6918,-0.677,-0.6574,-0.62,-0.5811,-0.5549,-0.4953,-0.4415,-1.3713,0.0,0.0,0.0,0.0,-1.4941,-1.5101,-1.5114,-1.5511,-1.5711,-1.5786,-1.5792,0.0,0.0,0.0,0.0,0.0,0.0,-1.6162,-1.6401,-1.633,-1.6381,-1.6579,-1.6318,-1.6088,-1.5898,-1.5597,-1.534,-1.5097,-1.4775,-1.4765,-1.5137,0.0,0.0,0.0,0.0,-1.567,-1.6145,-1.6343,-1.6548,-1.6819,-1.7069,-1.7285,-1.7481,-1.72,-1.7053,-1.7072,-1.6658,-1.6356,-1.607,-1.5553,0.0,0.0,0.0,0.0,0.0,0.0,0.0,0.0,0.0,0.0,0.0,0.0,0.0,0.0,0.0,0.0,0.0,0.0,0.0,-1.1347,-1.1269,-1.1149,0.0,0.0,0.0,0.0,0.0,0.0,0.0,0.0,0.0,-0.8068,-0.8263,-0.8409,0.0,0.0,-0.8333,-0.8383,-0.8383,-0.8337,-0.8227,-0.82,0.0,-0.7949,-0.7926,-0.7922,-0.7926,-0.7778,-0.754,-0.7191,-0.6858,-0.6479,-0.6007,-0.5748,-0.5609,-0.5556,-0.5766,-0.586,-0.5657,-0.5376,-0.4965,-0.4371,-0.4045,-0.3678,-1.2719,-1.3164,-1.353,-1.3874,-1.4113,-1.447,-1.4629,-1.476,-1.5073,-1.5266,-1.5398,-1.5373,-1.5356,-1.5308,-1.5401,0.0,0.0,0.0,-1.6047,-1.6285,-1.609,-1.6071,-1.6193,-1.5811,-1.5544,-1.5384,-1.4976,-1.4659,-1.4471,-1.4035,-1.4001,-1.4313,0.0,-1.4612,-1.4759,-1.4962,-1.5324,-1.5825,-1.5936,-1.617,-1.6524,-1.6849,-1.714,-1.7424,-1.7291,-1.725,-1.7341,-1.7066,-1.6786,-1.6514,-1.5973,-1.5533,0.0,0.0,0.0,0.0,0.0,0.0,0.0,0.0,0.0,0.0,0.0,-1.2977,-1.2832,0.0,0.0,0.0,-1.1443,-1.1047,-1.09,-1.0875,0.0,0.0,0.0,0.0,0.0,0.0,0.0,-0.8579,-0.8386,-0.8052,-0.7472,-0.7667,-0.7839,-0.7808,-0.7822,-0.7883,-0.7859,0.0,-0.7811,-0.7647,-0.753,-0.7409,-0.7241,-0.712,-0.7072,-0.7069,-0.6852,-0.656,-0.6294,-0.6053,-0.569,-0.5255,-0.499,-0.4821,-0.4576,-0.4695,-0.4826,-0.4822,-0.4506,-0.4066,-0.3581,-0.3246,-0.2795,-1.1785,-1.2117,-1.2914,-1.343,-1.3705,-1.3753,-1.3927,-1.4151,-1.4168,-1.4339,-1.4563,-1.4589,-1.471,-1.4947,-1.5214,0.0,-1.6161,-1.594,-1.5951,-1.6137,-1.5645,-1.5426,-1.5351,-1.4794,-1.4525,-1.4493,-1.3937,-1.364,-1.3613,-1.3369,-1.3234,-1.3224,-1.3509,-1.3683,-1.3828,-1.4272,-1.4698,-1.5027,-1.5276,-1.5666,-1.6217,-1.6497,-1.6789,-1.712,-1.7146,-1.7279,-1.7496,-1.7269,-1.7033,-1.6801,-1.6215,-1.5787,-1.5491,0.0,0.0,0.0,0.0,0.0,0.0,0.0,0.0,0.0,0.0,0.0,0.0,0.0,0.0,0.0,-1.0695,0.0,-1.0358,-1.0333,0.0,0.0,0.0,-0.9801,-0.9437,-0.9139,-0.8676,-0.7917,0.0,0.0,-0.7188,-0.7138,-0.7077,-0.6938,-0.7053,-0.7166,-0.7203,-0.7172,-0.7156,-0.7141,-0.6893,-0.6723,-0.6645,-0.6431,-0.6257,-0.6241,-0.6042,-0.5754,-0.5547,-0.5277,-0.491,-0.445,-0.4336,-0.4207,-0.3957,-0.372,-0.3634,-0.4041,-0.3636,-0.3177,-0.3069,-0.2537,-0.1993,-1.1638,-1.1715,-1.1936,-1.2344,-1.289,-1.3325,-1.355,-1.3619,-1.4022,-1.4237,-1.429,-1.429,-1.4323,-1.4417,-1.4677,-1.4868,-1.501,-1.5156,-1.5139,-1.5009,-1.4869,-1.4708,-1.4487,-1.4099,-1.391,-1.3883,-1.3564,-1.3288,-1.3071,-1.2767,-1.2523,-1.2327,-1.2396,-1.2858,-1.3698,-1.3858,-1.4067,-1.4404,-1.4674,-1.511,-1.5672,-1.5939,-1.6238,-1.651,-1.6716,-1.6836,-1.6915,-1.6851,-1.6792,-1.6707,-1.6181,-1.5782,-1.5507,-1.5004,0.0,0.0,0.0,0.0,0.0,0.0,0.0,0.0,0.0,-1.2224,-1.1834,0.0,-1.1414,0.0,-1.054,-1.0086,-0.988,-0.9673,0.0,0.0,-0.9497,-0.943,-0.9336,-0.8805,-0.8402,-0.82,-0.7598,-0.7081,-0.6777,-0.6603,-0.6414,-0.6209,-0.6588,-0.6955,-0.7023,-0.6859,-0.6685,-0.6528,-0.6287,-0.6036,-0.5813,-0.5498,-0.5271,-0.5196,-0.4962,-0.4763,-0.4688,-0.4462,-0.4183,-0.3855,-0.3632,-0.3407,-0.3152,-0.2875,-0.2746,-0.2834,-0.2868,-0.2777,-0.2373,-0.2114,-0.1807,-1.1263,-1.1377,-1.1373,-1.1688,-1.2211,-1.2619,-1.2851,-1.2973,-1.3276,-1.3499,-1.363,-1.3743,-1.3863,-1.3986,-1.4146,-1.4305,-1.4412,-1.4411,-1.4342,-1.4202,-1.4067,-1.3878,-1.3608,-1.3288,-1.3071,-1.293,-1.2686,-1.2473,-1.2332,-1.2137,-1.1978,-1.1841,-1.1814,-1.2141,-1.274,-1.2985,-1.3283,-1.3635,-1.4008,-1.4444,-1.489,-1.519,-1.5565,-1.6105,-1.6285,-1.6471,-1.6703,-1.6697,-1.6697,-1.6691,-1.6293,-1.6027,-1.5858,-1.535,-1.4935,0.0,0.0,0.0,0.0,0.0,0.0,0.0,0.0,0.0,0.0,0.0,-1.0732,-1.0322,-0.9974,-0.969,-0.9537,-0.9407,-0.9306,-0.9306,-0.9201,-0.9066,-0.8905,-0.846,-0.8043,-0.7658,-0.722,-0.6703,-0.6206,-0.6018,-0.5845,-0.553,-0.5671,-0.5953,-0.624,-0.6206,-0.6017,-0.578,-0.5475,-0.5157,-0.4812,-0.4532,-0.4336,-0.4165,-0.3979,-0.3833,-0.3709,-0.3556,-0.3379,-0.3126,-0.2951,-0.275,-0.2497,-0.222,-0.2019,-0.1893,-0.1868,-0.1868,-0.1844,-0.1718,-0.1415,-1.0829,-1.1044,-1.1044,-1.1208,-1.1482,-1.1732,-1.2005,-1.2305,-1.23,-1.2468,-1.2767,-1.3017,-1.3261,-1.3478,-1.3532,-1.3689,-1.3948,-1.3667,-1.3505,-1.3478,-1.3234,-1.2985,-1.2718,-1.2441,-1.2164,-1.1951,-1.1705,-1.1568,-1.1541,-1.1541,-1.1514,-1.1486,-1.1509,-1.1486,-1.1514,-1.1951,-1.2387,-1.2799,-1.3288,-1.3689,-1.4035,-1.4331,-1.4874,-1.5645,-1.5699,-1.5959,-1.6465,-1.6491,-1.6491,-1.6485,-1.6265,-1.6121,-1.6084,-1.5654,-1.5258,0.0,-1.472,0.0,0.0,0.0,0.0,0.0,0.0,0.0,0.0,-1.062,-0.9838,-0.9388,-0.9342,-0.9312,-0.9312,-0.926,-0.926,-0.9233,-0.8996,-0.8728,-0.8461,-0.8101,-0.759,-0.6852,-0.6666,-0.6266,-0.5466,-0.5341,-0.5192,-0.4857,-0.4666,-0.4687,-0.5083,-0.5261,-0.5233,-0.4923,-0.4605,-0.4218,-0.3798,-0.359,-0.3494,-0.3264,-0.3174,-0.3036,-0.2827,-0.2775,-0.2675,-0.2447,-0.2346,-0.222,-0.1942,-0.1641,-0.1364,-0.1162,-0.0934,-0.0934,-0.1313,-0.1313,-0.0985,-1.0719,-1.0774,-1.0774,-1.0802,-1.088,-1.0907,-1.1267,-1.1732,-1.1759,-1.1787,-1.1869,-1.211,-1.2278,-1.2332,-1.255,-1.2659,-1.274,-1.2686,-1.2523,-1.2332,-1.225,-1.2114,-1.1841,-1.1787,-1.1732,-1.1678,-1.1618,-1.1459,-1.1213,-1.1181,-1.1076,-1.0857,-1.0884,-1.0857,-1.0884,0.0,0.0,0.0,-1.2491,-1.2794,-1.3147,-1.3613,-1.4099,-1.4493,-1.4734,0.0,-1.5303,-1.5303,-1.533,-1.5303,-1.5284,0.0,0.0,0.0,0.0,0.0,0.0,0.0,0.0,0.0,0.0,0.0,-1.1199,-1.055,-1.0407,-0.9943,-0.9655,-0.9708,-0.9508,-0.9372,-0.9372,-0.9126,-0.8992,-0.8965,-0.8736,-0.8571,-0.8455,-0.7711,-0.7002,-0.6619,-0.5949,-0.527,-0.4673,-0.4399,-0.4187,-0.3934,-0.3829,-0.3718,-0.3602,-0.4163,-0.4429,-0.4205,-0.3765,-0.3281,-0.2889,-0.2819,-0.2806,-0.2668,-0.2639,-0.2591,-0.2482,-0.2472,-0.2372,-0.2121,-0.1895,-0.1667,-0.1388,-0.096,-0.0631,-0.0556,-0.0328,-0.0303,-0.0833,-0.0909,-0.0707,-1.0719,-1.0719,-1.0719,-1.0719,0.0,-1.0719,-1.0857,-1.1158,-1.1158,-1.1208,-1.1373,-1.1678,-1.1814,-1.1814,-1.1951,-1.2005,-1.2005,-1.2001,-1.1951,-1.1814,-1.1787,-1.165,-1.1345,-1.1345,-1.1295,-1.1158,-1.1158,-1.1048,-1.0907,-1.0884,-1.0829,-1.0719,-1.0719,-1.0719,-1.0719,-1.0719,-1.0962,-1.1537,-1.1841,-1.2169,-1.2468,-1.2854,-1.3283,-1.3743,-1.4013,0.0,0.0,0.0,0.0,0.0,0.0,0.0,0.0,-1.4396,0.0,-1.3951,-1.382,-1.3509,-1.2945,-1.2522,-1.2038,-1.1441,-1.0481,-0.9849,-0.9758,-0.956,-0.9423,-0.9368,-0.9213,-0.9158,-0.9158,-0.8995,-0.8909,-0.8909,-0.8654,-0.8405,-0.8039,-0.7491,-0.6793,-0.6074,-0.5581,-0.4976,-0.4093,-0.3871,-0.3615,-0.3225,-0.3141,-0.3083,-0.297,-0.3367,-0.3611,-0.339,-0.3141,-0.2796,-0.2496,-0.2389,-0.2342,-0.2216,-0.2126,-0.2097,-0.2076,-0.2032,-0.1919,-0.1667,-0.1592,-0.1414,-0.0732,-0.0379,-0.0101,0.0303,0.0505,0.0581,0.0379,0.0076,-0.0101,-1.072,-1.0719,-1.0719,-1.0719,-1.0719,-1.0719,-1.0719,-1.0719,-1.0719,0.0,0.0,-1.1322,-1.1432,-1.1432,-1.1459,-1.1432,-1.1459,-1.1432,-1.1432,-1.1432,-1.1427,-1.1295,-1.1044,-1.1048,-1.0911,-1.0719,-1.0719,-1.0719,-1.0719,-1.0719,-1.0719,-1.0719,-1.0719,-1.0719,-1.0719,-1.0719,-1.0798,-1.1048,-1.1345,-1.1618,-1.1841,-1.2114,-1.255,-1.312,-1.3342,-1.3635,-1.4008,-1.4035,-1.4035,-1.4035,-1.4035,-1.4035,-1.4035,-1.4008,-1.3851,-1.3586,-1.345,-1.3066,-1.2382,-1.2191,-1.1646,-1.0555,-0.9816,-0.9406,-0.9406,-0.9351,-0.9189,-0.8909,-0.8909,-0.8909,-0.8909,-0.8909,-0.8881,-0.8823,-0.8571,-0.818,-0.7604,-0.7157,-0.648,-0.5511,-0.5144,-0.4674,-0.3585,-0.3362,-0.3141,-0.2692,-0.2553,-0.2525,-0.2581,-0.2774,-0.2911,-0.2692,-0.258,-0.244,-0.2212,-0.2137,-0.2032,-0.1881,-0.1757,-0.1696,-0.1633,-0.1586,-0.1417,-0.1111,-0.1212,-0.0859,-0.0101,0.0252,0.053,0.1187,0.1389,0.1489,0.1615,0.1236,0.0858,-1.0838,-1.0719,-1.0719,-1.0719,-1.0719,-1.0719,-1.0719,-1.0719,-1.0719,-1.0747,-1.0774,-1.0802,-1.0829,-1.0829,-1.0829,-1.0825,-1.0825,-1.0825,-1.0829,-1.0829,-1.0829,-1.0802,-1.0774,-1.0747,-1.0719,-1.0719,-1.0719,-1.0719,-1.0719,-1.0719,-1.0719,-1.0719,-1.0719,-1.0719,-1.0719,-1.0719,-1.0719,-1.0774,-1.1021,-1.1181,-1.1236,-1.1568,-1.1978,-1.2495,-1.2577,-1.2849,-1.3396,-1.3418,-1.3423,-1.3423,-1.3423,-1.3418,-1.3428,-1.3202,-1.3071,-1.2989,-1.2527,-1.2169,-1.2032,-1.1345,-1.0555,-0.9678,-0.9461,-0.9406,-0.9379,-0.913,-0.8937,-0.8909,-0.8909,-0.8909,-0.8909,-0.8909,-0.8795,-0.8571,-0.8266,-0.7851,-0.7293,-0.6515,-0.5738,-0.5013,-0.4285,-0.3671,-0.3001,-0.2608,-0.2355,-0.2047,-0.2019,-0.1963,-0.2019,-0.216,-0.23,-0.2244,-0.2075,-0.1907,-0.1906,-0.1877,-0.186,-0.1808,-0.1722,-0.1611,-0.1434,-0.1282,-0.1063,-0.0606,-0.0404,0.0,0.0581,0.1086,0.1439,0.1842,0.2043,0.2195,0.227,0.2118,0.2018,-1.0947,-1.089,-1.0898,-1.0911,-1.0939,-1.1103,-1.1185,-1.1181,-1.0989,-1.0829,-1.0719,-1.0719,-1.0719,-1.0719,-1.0719,-1.0719,-1.0719,-1.0719,-1.0719,-1.0719,-1.0719,-1.0719,-1.0719,-1.0719,-1.0719,-1.0719,-1.0719,-1.0719,-1.0719,-1.0719,-1.0719,-1.0719,-1.0719,-1.0719,-1.0719,-1.0719,-1.0719,-1.0719,-1.0825,-1.0884,-1.0884,-1.1185,-1.1427,-1.1673,-1.1864,-1.2087,-1.2359,-1.2387,-1.2387,-1.2391,-1.2355,-1.2387,-1.2359,-1.225,-1.2196,-1.2196,-1.1951,-1.17,-1.1509,-1.0692,-1.0033,-0.9655,-0.9323,-0.913,-0.913,-0.8992,-0.8909,-0.8909,-0.8909,-0.8909,-0.8909,-0.8909,-0.8795,-0.854,-0.8076,-0.749,-0.6765,-0.604,-0.5234,-0.4369,-0.3867,-0.3309,-0.2524,-0.23,-0.2104,-0.1851,-0.1795,-0.1795,-0.1795,-0.1907,-0.1991,-0.1991,-0.1879,-0.1823,-0.1795,-0.1795,-0.1789,-0.1803,-0.1612,-0.145,-0.1294,-0.1063,-0.0614,-0.0253,0.0227,0.0732,0.1187,0.1768,0.217,0.2371,0.2497,0.2649,0.2775,0.2826,0.2801,-1.1183,-1.1096,-1.123,-1.1251,-1.1236,-1.1486,-1.1596,-1.1568,-1.1318,-1.1072,-1.0911,-1.077,-1.0719,-1.0719,-1.0719,-1.0719,-1.0719,-1.0719,-1.0719,-1.0719,-1.0719,-1.0719,-1.0719,-1.0719,-1.0719,-1.0719,-1.0719,-1.0719,-1.0719,-1.0719,-1.0719,-1.0719,-1.0719,-1.0719,-1.0719,-1.0719,-1.0719,-1.0719,-1.0719,-1.0719,-1.0719,-1.0911,-1.1017,-1.1126,-1.1345,-1.1514,-1.1596,-1.1596,-1.1596,-1.1596,-1.1596,-1.1596,-1.1596,-1.1541,-1.1486,-1.1486,-1.1432,-1.1267,-1.0939,-1.0312,-0.9844,-0.9706,-0.9296,-0.8968,-0.8823,-0.8823,-0.8823,-0.8823,-0.8795,-0.8768,-0.8688,-0.8688,-0.8574,-0.8235,-0.7795,-0.7127,-0.6235,-0.562,-0.4871,-0.3839,-0.3475,-0.3055,-0.244,-0.216,-0.2019,-0.1851,-0.1795,-0.1795,-0.1795,-0.1795,-0.1795,-0.1795,-0.1795,-0.1795,-0.1795,-0.1795,-0.1766,-0.1711,-0.1493,-0.1221,-0.0987,-0.0525,-0.0052,0.033,0.0884,0.1414,0.1818,0.2297,0.27,0.2826,0.2876,0.2953,0.3104,0.3205,0.3257,-1.1694,-1.1439,-1.1681,-1.1707,-1.1573,-1.1596,-1.1623,-1.1623,-1.1568,-1.1541,-1.1459,-1.0939,-1.0719,-1.0719,-1.0719,-1.0719,-1.0719,-1.0719,-1.0719,-1.0719,-1.0719,-1.0719,-1.0719,-1.0719,-1.0719,-1.0719,-1.0719,-1.0719,-1.0719,-1.0719,-1.0719,-1.0719,-1.0719,-1.0719,-1.0719,-1.0719,-1.0719,-1.0719,-1.0719,-1.0719,-1.0719,-1.0719,-1.0857,-1.1099,-1.1126,-1.1291,-1.1541,-1.1596,-1.1596,-1.1596,-1.1568,-1.1596,-1.1568,-1.1322,-1.1126,-1.1154,-1.0911,-1.0669,-1.0417,-1.028,-1.0009,-0.9517,-0.9379,-0.9099,-0.8626,-0.854,-0.854,-0.8512,-0.8512,-0.8405,-0.8128,-0.8103,-0.7909,-0.746,-0.7265,-0.6791,-0.5704,-0.515,-0.4594,-0.3727,-0.3113,-0.2637,-0.2244,-0.1991,-0.1851,-0.1823,-0.1795,-0.1795,-0.1795,-0.1795,-0.1795,-0.1795,-0.1795,-0.1795,-0.1795,-0.1795,-0.1655,-0.1428,-0.13,-0.0953,-0.0375,0.0105,0.0542,0.1117,0.1665,0.2069,0.2423,0.2801,0.2876,0.3054,0.313,0.3155,0.323,0.3358,0.3408,-1.2209,-1.2044,-1.2105,-1.2113,-1.2069,-1.2087,-1.2087,-1.2082,-1.1923,-1.1841,-1.1787,-1.1404,-1.124,-1.124,-1.1048,-1.0939,-1.0939,-1.077,-1.0719,-1.0719,-1.0719,-1.0719,-1.0719,-1.0719,-1.0719,-1.0719,-1.0719,-1.0719,-1.0719,-1.0719,-1.0719,-1.0719,-1.0719,-1.0719,-1.0719,-1.0719,-1.0719,-1.0719,-1.0719,-1.0719,-1.0719,-1.0719,-1.0747,-1.0829,-1.0884,-1.0911,-1.1048,-1.1076,-1.1076,-1.1076,-1.1076,-1.1076,-1.1076,-1.0939,-1.0857,-1.0857,-1.0774,-1.0637,-1.0531,-1.0394,-1.0119,-0.9651,-0.9316,-0.8927,-0.854,-0.8183,-0.7909,-0.7795,-0.7986,-0.8076,-0.7798,-0.7771,-0.7546,-0.699,-0.6601,-0.6044,-0.5236,-0.4538,-0.3839,-0.3169,-0.2664,-0.23,-0.2019,-0.1879,-0.1795,-0.1795,-0.1795,-0.1795,-0.1795,-0.1795,-0.1795,-0.1795,-0.1795,-0.1795,-0.1767,-0.1627,-0.1458,-0.126,-0.0865,-0.0303,0.0134,0.0823,0.1359,0.1777,0.2172,0.2497,0.27,0.2952,0.3079,0.3205,0.3205,0.3205,0.3205,0.3282,0.3282,-1.2668,-1.2595,-1.2484,-1.2451,-1.2499,-1.2437,-1.2382,-1.2382,-1.2191,-1.2114,-1.2087,-1.1896,-1.1814,-1.1759,-1.14,-1.124,-1.1213,-1.1021,-1.0939,-1.0966,-1.0939,-1.0916,-1.0829,-1.0802,-1.0774,-1.0719,-1.0719,-1.0719,-1.0719,-1.0719,-1.0719,-1.0719,-1.0719,-1.0719,-1.0719,-1.0719,-1.0719,-1.0719,-1.0719,-1.0719,-1.0719,-1.0719,-1.0719,-1.0719,-1.0719,-1.0719,-1.0719,-1.0719,-1.0719,-1.0719,-1.0719,-1.0719,-1.0719,-1.0719,-1.0719,-1.0719,-1.0719,-1.0719,-1.0719,-1.0445,-1.0174,-0.9816,-0.9227,-0.873,-0.8266,-0.7687,-0.7215,-0.6879,-0.7096,-0.7185,-0.7271,-0.7163,-0.6882,-0.6379,-0.5849,-0.5292,-0.4594,-0.3951,-0.3335,-0.2664,-0.2356,-0.2104,-0.1879,-0.1795,-0.1795,-0.1795,-0.1795,-0.1795,-0.1795,-0.1795,-0.1795,-0.1795,-0.1795,-0.1795,-0.1767,-0.1542,-0.1318,-0.0925,-0.042,0.0194,0.0671,0.144,0.1972,0.2293,0.266,0.2876,0.2927,0.3104,0.318,0.3205,0.3205,0.3205,0.3205,0.3205,0.3205,-1.3051,-1.2901,-1.2829,-1.279,-1.2762,-1.2526,-1.2414,-1.2468,-1.2382,-1.2382,-1.2387,-1.2332,-1.2355,-1.2305,-1.181,-1.16,-1.1596,-1.1537,-1.1514,-1.1486,-1.1514,-1.1377,-1.1103,-1.1072,-1.0962,-1.0747,-1.0747,-1.0719,-1.0719,-1.0719,-1.0719,-1.0719,-1.0719,-1.0719,-1.0719,-1.0719,-1.0719,-1.0719,-1.0719,-1.0719,-1.0719,-1.0719,-1.0719,-1.0719,-1.0719,-1.0719,-1.0719,-1.0719,-1.0719,-1.0719,-1.0719,-1.0719,-1.0719,-1.0719,-1.0719,-1.0719,-1.0719,-1.0719,-1.0665,-1.0445,-1.0147,-0.9789,-0.9175,-0.8512,-0.7687,-0.7076,-0.6492,-0.5905,-0.5708,-0.5794,-0.6158,-0.6072,-0.5849,-0.5511,-0.515,-0.4566,-0.3811,-0.3615,-0.3167,-0.2468,-0.2188,-0.2047,-0.1823,-0.1795,-0.1795,-0.1795,-0.1795,-0.1795,-0.1795,-0.1795,-0.1795,-0.1795,-0.1795,-0.1795,-0.1767,-0.1458,-0.1037,-0.0561,0.0,0.0694,0.141,0.2069,0.242,0.2713,0.2943,0.3106,0.3155,0.318,0.3205,0.3205,0.3205,0.3205,0.3205,0.3205,0.3205,-1.3719,-1.3528,-1.3331,-1.3308,-1.3346,-1.3078,-1.2962,-1.2962,-1.2794,-1.2718,-1.2686,-1.2495,-1.2382,-1.2382,-1.2196,-1.2005,-1.1841,-1.1678,-1.1596,-1.1596,-1.1596,-1.1541,-1.1427,-1.1404,-1.1236,-1.0989,-1.0962,-1.0857,-1.0719,-1.0719,-1.0719,-1.0719,-1.0719,-1.0719,-1.0719,-1.0719,-1.0719,-1.0719,-1.0719,-1.0719,-1.0719,-1.0719,-1.0719,-1.0719,-1.0719,-1.0719,-1.0719,-1.0719,-1.0719,-1.0719,-1.0719,-1.0719,-1.0719,-1.0719,-1.0719,-1.0719,-1.0719,-1.0719,-1.0665,-1.0445,-1.0064,-0.9541,-0.8792,-0.7962,-0.7102,-0.632,-0.5624,-0.5067,-0.4678,-0.4596,-0.4623,-0.4929,-0.5122,-0.4814,-0.4369,-0.3949,-0.3587,-0.3083,-0.2551,-0.2272,-0.2047,-0.1907,-0.1851,-0.1795,-0.1795,-0.1795,-0.1795,-0.1795,-0.1795,-0.1795,-0.1795,-0.1795,-0.1795,-0.1711,-0.1486,-0.1234,-0.0841,-0.0168,0.0447,0.1165,0.1908,0.2441,0.2846,0.297,0.3189,0.3187,0.3187,0.318,0.3205,0.3205,0.3205,0.3205,0.3205,0.3205,0.3205,-1.4267,-1.4099,-1.3862,-1.3758,-1.3763,-1.3545,-1.3381,-1.3298,-1.3098,-1.3017,-1.2989,-1.2799,-1.2686,-1.2708,-1.2686,-1.2599,-1.2387,-1.2028,-1.1841,-1.1869,-1.1869,-1.181,-1.1732,-1.1732,-1.1568,-1.1267,-1.1154,-1.0962,-1.0719,-1.0719,-1.0719,-1.0719,-1.0719,-1.0719,-1.0719,-1.0719,-1.0719,-1.0719,-1.0719,-1.0719,-1.0719,-1.0719,-1.0719,-1.0719,-1.0719,-1.0719,-1.0719,-1.0719,-1.0719,-1.0719,-1.0719,-1.0719,-1.0719,-1.0719,-1.0719,-1.0719,-1.0719,-1.0665,-1.0531,-1.0202,-0.9789,-0.9237,-0.8322,-0.7407,-0.6626,-0.5764,-0.4983,-0.4341,-0.3895,-0.3587,-0.3477,-0.3841,-0.4147,-0.4005,-0.3615,-0.3279,-0.3139,-0.2579,-0.2215,-0.2075,-0.1935,-0.1823,-0.1795,-0.1795,-0.1795,-0.1795,-0.1795,-0.1795,-0.1795,-0.1795,-0.1795,-0.1795,-0.1795,-0.1598,-0.1262,-0.0925,-0.0533,0.0084,0.0981,0.1696,0.2201,0.2763,0.3119,0.3239,0.3267,0.3235,0.3215,0.3208,0.3205,0.3205,0.3205,0.3205,0.3205,0.3205,0.3205,-1.459,-1.4569,-1.4373,-1.4203,-1.4081,-1.3854,-1.3567,-1.3415,-1.3347,-1.3288,-1.3283,-1.3261,-1.3207,-1.3261,-1.3179,-1.3234,-1.3098,-1.2631,-1.2387,-1.2359,-1.2327,-1.2219,-1.2005,-1.2005,-1.1873,-1.1596,-1.1263,-1.0989,-1.0774,-1.0747,-1.0747,-1.0719,-1.0719,-1.0719,-1.0719,-1.0719,-1.0719,-1.0719,-1.0719,-1.0719,-1.0719,-1.0719,-1.0719,-1.0719,-1.0719,-1.0719,-1.0719,-1.0719,-1.0719,-1.0719,-1.0719,-1.0719,-1.0719,-1.0719,-1.0719,-1.0692,-1.0692,-1.0559,-1.0284,-0.9734,-0.9289,-0.8733,-0.7845,-0.6902,-0.6181,-0.5373,-0.4538,-0.3783,-0.3335,-0.3027,-0.2806,-0.2778,-0.2945,-0.3026,-0.2945,-0.2637,-0.2356,-0.2216,-0.2104,-0.1907,-0.1795,-0.1795,-0.1795,-0.1795,-0.1795,-0.1795,-0.1795,-0.1795,-0.1795,-0.1795,-0.1795,-0.1795,-0.1767,-0.1598,-0.1093,-0.0589,-0.014,0.0392,0.1373,0.2206,0.2488,0.2947,0.3232,0.3386,0.3326,0.3265,0.3209,0.3225,0.3208,0.3205,0.3205,0.3206,0.3205,0.3205,0.3205,-1.4734,-1.4917,-1.4729,-1.4716,-1.4769,-1.4433,-1.4178,-1.4072,-1.3772,-1.3586,-1.3532,-1.3369,-1.3293,-1.332,-1.3293,-1.332,-1.3293,-1.3098,-1.2935,-1.274,-1.2523,-1.2355,-1.2273,-1.2273,-1.2137,-1.1869,-1.1591,-1.1267,-1.1017,-1.0962,-1.0911,-1.0747,-1.0719,-1.0719,-1.0719,-1.0719,-1.0719,-1.0719,-1.0719,-1.0719,-1.0719,-1.0719,-1.0719,-1.0719,-1.0719,-1.0719,-1.0719,-1.0719,-1.0719,-1.0719,-1.0719,-1.0719,-1.0719,-1.0719,-1.0719,-1.0692,-1.0504,-1.0284,-0.995,-0.9399,-0.873,-0.8008,-0.7121,-0.6235,-0.5429,-0.4733,-0.4008,-0.3363,-0.2999,-0.2693,-0.2412,-0.2188,-0.2328,-0.2776,-0.2552,-0.2328,-0.2188,-0.2047,-0.1907,-0.1823,-0.1795,-0.1795,-0.1795,-0.1795,-0.1795,-0.1795,-0.1795,-0.1795,-0.1795,-0.1795,-0.1795,-0.1795,-0.1739,-0.157,-0.1037,-0.0476,0.0028,0.0645,0.157,0.2327,0.2695,0.3086,0.3345,0.3431,0.3371,0.3327,0.327,0.3243,0.3225,0.3211,0.3209,0.3208,0.3206,0.3205,0.3205,-1.5215,-1.5248,-1.5146,-1.5123,-1.5167,-1.4856,-1.4664,-1.4453,-1.4133,-1.394,-1.385,-1.3726,-1.3618,-1.3645,-1.3618,-1.3645,-1.3618,-1.3505,-1.3374,-1.3152,-1.2767,-1.2604,-1.255,-1.2441,-1.2278,-1.2005,-1.1837,-1.1596,-1.1295,-1.1158,-1.1017,-1.0884,-1.0774,-1.0719,-1.0719,-1.0719,-1.0719,-1.0719,-1.0719,-1.0719,-1.0719,-1.0719,-1.0719,-1.0719,-1.0719,-1.0719,-1.0719,-1.0719,-1.0719,-1.0692,-1.061,-1.0559,-1.0555,-1.0445,-1.0363,-1.0312,-1.0091,-0.9816,-0.9451,-0.8785,-0.8174,-0.7429,-0.6541,-0.5708,-0.4957,-0.4344,-0.3757,-0.3194,-0.2971,-0.2663,-0.23,-0.2075,-0.2104,-0.23,-0.2188,-0.2047,-0.2019,-0.1907,-0.1823,-0.1795,-0.1795,-0.1795,-0.1795,-0.1795,-0.1795,-0.1795,-0.1795,-0.1795,-0.1795,-0.1795,-0.1795,-0.1795,-0.1795,-0.1486,-0.0981,-0.042,0.0196,0.0925,0.1739,0.23,0.271,0.3169,0.3525,0.3471,0.3414,0.3355,0.3324,0.3278,0.3251,0.3236,0.3227,0.3208,0.3205,0.3205,0.3205,-1.5903,-1.5601,-1.5601,-1.5443,-1.5266,-1.5201,-1.4954,-1.4605,-1.4475,-1.4352,-1.4234,-1.4148,-1.4142,-1.4169,-1.4083,-1.4083,-1.4137,-1.3862,-1.3753,-1.3586,-1.3234,-1.2935,-1.2827,-1.2604,-1.2332,-1.2082,-1.2032,-1.1869,-1.1596,-1.1318,-1.1131,-1.1048,-1.0829,-1.0719,-1.0719,-1.0719,-1.0719,-1.0719,-1.0719,-1.0719,-1.0719,-1.0719,-1.0719,-1.0719,-1.0719,-1.0692,-1.0637,-1.0555,-1.0582,-1.0637,-1.0417,-1.0229,-1.0198,-0.9954,-0.9816,-0.9757,-0.9485,-0.9178,-0.8758,-0.8122,-0.7457,-0.6988,-0.6096,-0.5234,-0.4845,-0.4316,-0.3785,-0.3278,-0.311,-0.2858,-0.2412,-0.2188,-0.2104,-0.1851,-0.1851,-0.1851,-0.1823,-0.1795,-0.1795,-0.1795,-0.1795,-0.1795,-0.1795,-0.1795,-0.1795,-0.1795,-0.1795,-0.1795,-0.1795,-0.1795,-0.1795,-0.1795,-0.1795,-0.1458,-0.1009,-0.0392,0.0224,0.0925,0.1739,0.2356,0.2778,0.3242,0.3567,0.3514,0.3466,0.3408,0.3375,0.3334,0.3307,0.3298,0.3273,0.3228,0.3212,0.3219,0.3206,-1.5903,-1.5601,-1.5601,-1.5564,-1.5483,-1.5303,-1.5129,-1.4958,-1.4625,-1.4497,-1.4384,-1.4261,-1.4202,-1.4196,-1.4196,-1.4196,-1.4164,-1.411,-1.4056,-1.3997,-1.3699,-1.3266,-1.2962,-1.2799,-1.2577,-1.2327,-1.2278,-1.2169,-1.1896,-1.1618,-1.135,-1.1099,-1.0857,-1.0719,-1.0719,-1.0719,-1.0719,-1.0719,-1.0719,-1.0719,-1.0719,-1.0719,-1.0719,-1.0719,-1.0692,-1.0582,-1.0394,-0.9981,-0.9981,-1.0366,-1.0115,-0.9844,-0.9651,-0.9517,-0.9348,-0.912,-0.8871,-0.8512,-0.8011,-0.754,-0.6957,-0.6237,-0.5706,-0.5176,-0.4648,-0.4232,-0.3841,-0.3503,-0.3278,-0.2971,-0.2608,-0.2328,-0.2104,-0.1851,-0.1795,-0.1795,-0.1795,-0.1795,-0.1795,-0.1795,-0.1795,-0.1795,-0.1795,-0.1795,-0.1795,-0.1795,-0.1795,-0.1795,-0.1795,-0.1795,-0.1795,-0.1795,-0.1739,-0.1402,-0.0981,-0.0392,0.0224,0.0897,0.1711,0.2525,0.2889,0.3249,0.3495,0.3588,0.3515,0.348,0.3456,0.34,0.341,0.3387,0.3317,0.3274,0.3254,0.3248,0.3219,-1.6016,-1.5601,-1.5601,-1.5601,-1.5585,-1.5421,-1.5314,-1.5156,-1.4943,-1.468,-1.4513,-1.4374,-1.4283,-1.4202,-1.4196,-1.4196,-1.4196,-1.4196,-1.4191,-1.4164,-1.397,-1.3591,-1.3179,-1.2962,-1.2794,-1.2604,-1.2468,-1.2305,-1.2141,-1.1891,-1.1623,-1.1318,-1.1021,-1.0825,-1.0719,-1.0719,-1.0719,-1.0719,-1.0719,-1.0719,-1.0719,-1.0719,-1.0719,-1.0692,-1.061,-1.0366,-0.9926,-0.9454,-0.9427,-0.9706,-0.9509,-0.9178,-0.9044,-0.8878,-0.8681,-0.8374,-0.8125,-0.7734,-0.729,-0.6877,-0.6376,-0.5849,-0.5457,-0.4983,-0.4564,-0.4175,-0.3896,-0.3615,-0.3418,-0.3111,-0.272,-0.23,-0.1991,-0.1823,-0.1795,-0.1795,-0.1795,-0.1795,-0.1795,-0.1795,-0.1795,-0.1795,-0.1795,-0.1795,-0.1795,-0.1795,-0.1795,-0.1795,-0.1795,-0.1795,-0.1795,-0.1767,-0.1683,-0.1374,-0.0925,-0.0336,0.0392,0.1065,0.1823,0.2637,0.3057,0.3335,0.3474,0.3604,0.355,0.3529,0.3508,0.3486,0.3462,0.3431,0.3362,0.3325,0.3301,0.327,0.324,-1.6159,-1.5601,-1.5601,-1.5601,-1.5601,-1.5596,-1.5448,-1.5287,-1.5201,-1.4941,-1.4669,-1.4567,-1.4427,-1.4234,-1.4245,-1.4223,-1.4196,-1.4196,-1.4196,-1.4191,-1.411,-1.3889,-1.3483,-1.3212,-1.2989,-1.2827,-1.2572,-1.2441,-1.2305,-1.211,-1.1891,-1.1591,-1.1263,-1.0994,-1.0802,-1.0747,-1.0719,-1.0719,-1.0719,-1.0719,-1.0719,-1.0719,-1.0665,-1.0555,-1.017,-0.9812,-0.9344,-0.8927,-0.8788,-0.9047,-0.8654,-0.8405,-0.8291,-0.7986,-0.774,-0.7493,-0.7268,-0.699,-0.6629,-0.6184,-0.5822,-0.5654,-0.521,-0.4789,-0.4508,-0.4175,-0.3896,-0.3615,-0.3615,-0.3279,-0.2748,-0.2188,-0.1879,-0.1795,-0.1795,-0.1795,-0.1795,-0.1795,-0.1795,-0.1795,-0.1795,-0.1795,-0.1795,-0.1795,-0.1795,-0.1795,-0.1795,-0.1795,-0.1739,-0.1683,-0.1683,-0.1655,-0.1542,-0.1374,-0.0841,-0.028,0.0504,0.1262,0.2047,0.2806,0.3281,0.3531,0.3559,0.3578,0.3564,0.3563,0.3564,0.3541,0.3511,0.3488,0.3428,0.3381,0.3335,0.33,0.3267,-1.6159,-1.5601,-1.5601,-1.5601,-1.5601,-1.5601,-1.5569,-1.5475,-1.5298,-1.5135,-1.5034,-1.4896,-1.4653,-1.446,-1.4427,-1.4374,-1.4223,-1.4207,-1.4196,-1.4196,-1.4196,-1.4137,-1.3921,-1.3672,-1.332,-1.3017,-1.2849,-1.2659,-1.2409,-1.2191,-1.1973,-1.1837,-1.14,-1.1072,-1.0994,-1.0802,-1.0719,-1.0719,-1.0719,-1.0719,-1.0692,-1.0665,-1.0559,-1.0312,-0.9644,-0.9065,-0.8623,-0.7956,-0.7487,-0.7407,-0.7549,-0.7546,-0.724,-0.7074,-0.691,-0.6715,-0.6578,-0.6381,-0.6047,-0.5877,-0.5712,-0.5489,-0.5154,-0.4761,-0.4508,-0.4203,-0.3896,-0.3671,-0.3587,-0.3307,-0.272,-0.216,-0.1851,-0.1795,-0.1795,-0.1795,-0.1795,-0.1795,-0.1795,-0.1795,-0.1795,-0.1795,-0.1795,-0.1795,-0.1795,-0.1795,-0.1795,-0.1795,-0.1711,-0.157,-0.1514,-0.1458,-0.1318,-0.1093,-0.0504,0.0112,0.0869,0.1542,0.2272,0.2889,0.3363,0.3587,0.3587,0.3587,0.3585,0.3615,0.3614,0.3611,0.3552,0.3537,0.3519,0.3474,0.3427,0.3351,0.3307,-1.6153,-1.5601,-1.5601,-1.5601,-1.5601,-1.5601,-1.5601,-1.558,-1.5443,-1.5319,-1.5183,-1.5072,-1.4923,-1.468,-1.4692,-1.4573,-1.4369,-1.4239,-1.4196,-1.4196,-1.4196,-1.4196,-1.4164,-1.4002,-1.3699,-1.3293,-1.2994,-1.2799,-1.2604,-1.2332,-1.2141,-1.1973,-1.1564,-1.1267,-1.1076,-1.0857,-1.0719,-1.0719,-1.0719,-1.0719,-1.0692,-1.0555,-1.0166,-0.9699,-0.9034,-0.8481,-0.7873,-0.7321,-0.6768,-0.649,-0.6573,-0.6715,-0.6578,-0.652,-0.6353,-0.613,-0.6075,-0.5938,-0.5714,-0.5603,-0.5547,-0.5409,-0.51,-0.4789,-0.4508,-0.4203,-0.3896,-0.3643,-0.3419,-0.3138,-0.2524,-0.2104,-0.1823,-0.1795,-0.1795,-0.1795,-0.1795,-0.1795,-0.1795,-0.1795,-0.1795,-0.1795,-0.1795,-0.1795,-0.1795,-0.1795,-0.1795,-0.1767,-0.1514,-0.1402,-0.1262,-0.1177,-0.1037,-0.0729,-0.014,0.0533,0.1346,0.1935,0.2468,0.3001,0.3447,0.3559,0.3587,0.3587,0.3587,0.3587,0.3615,0.3587,0.3587,0.3571,0.3549,0.3527,0.3496,0.3444,0.3403,-1.6105,-1.5601,-1.5601,-1.5601,-1.5601,-1.5601,-1.5601,-1.5601,-1.5601,-1.5454,-1.5303,-1.5276,-1.5165,-1.4982,-1.4939,-1.4805,-1.4584,-1.4369,-1.4288,-1.4255,-1.4218,-1.4202,-1.4164,-1.4137,-1.4024,-1.3721,-1.3234,-1.2989,-1.2799,-1.2577,-1.2278,-1.206,-1.181,-1.1514,-1.1185,-1.0907,-1.0743,-1.0719,-1.0719,-1.0665,-1.061,-1.039,-0.9864,-0.9034,-0.8426,-0.7845,-0.721,-0.671,-0.6325,-0.5796,-0.574,-0.591,-0.6079,-0.6161,-0.6077,-0.5766,-0.5766,-0.5659,-0.5521,-0.5437,-0.5409,-0.5382,-0.5016,-0.4761,-0.448,-0.4145,-0.3839,-0.3559,-0.3278,-0.2831,-0.2272,-0.1963,-0.1823,-0.1795,-0.1795,-0.1795,-0.1795,-0.1795,-0.1795,-0.1795,-0.1795,-0.1795,-0.1795,-0.1795,-0.1795,-0.1795,-0.1795,-0.1683,-0.143,-0.1206,-0.1065,-0.0757,-0.0589,-0.0168,0.042,0.0841,0.1655,0.216,0.2665,0.3029,0.3419,0.3559,0.3587,0.3587,0.3587,0.3587,0.3587,0.3587,0.3587,0.3587,0.3579,0.3557,0.3533,0.3507,0.3469,-1.5928,-1.5601,-1.5601,-1.5601,-1.5601,-1.5601,-1.5601,-1.5601,-1.5601,-1.5585,-1.5542,-1.5537,-1.5362,-1.5206,-1.5135,-1.5024,-1.4821,-1.46,-1.4438,-1.4395,-1.4315,-1.4223,-1.4196,-1.4196,-1.4137,-1.3975,-1.351,-1.3125,-1.2908,-1.2577,-1.2414,-1.2273,-1.2028,-1.1755,-1.1459,-1.1213,-1.088,-1.0719,-1.0665,-1.0582,-1.0421,-1.0147,-0.9592,-0.8537,-0.7817,-0.7154,-0.6571,-0.6156,-0.5796,-0.5491,-0.5463,-0.5493,-0.5605,-0.5605,-0.5577,-0.5521,-0.5519,-0.5465,-0.5409,-0.5409,-0.5409,-0.5298,-0.4903,-0.4594,-0.4397,-0.4005,-0.3699,-0.3447,-0.3055,-0.2608,-0.2244,-0.1935,-0.1823,-0.1795,-0.1795,-0.1795,-0.1795,-0.1795,-0.1795,-0.1795,-0.1795,-0.1795,-0.1795,-0.1795,-0.1795,-0.1795,-0.1795,-0.1598,-0.129,-0.1037,-0.0813,-0.0448,-0.0056,0.0476,0.1037,0.1374,0.1879,0.2272,0.2693,0.2973,0.3307,0.3531,0.3587,0.3587,0.3587,0.3587,0.3587,0.3587,0.3587,0.3587,0.3614,0.3611,0.3589,0.3563,0.3542,-1.5903,-1.5601,-1.5601,-1.5601,-1.5601,-1.5601,-1.5601,-1.5601,-1.5601,-1.5601,-1.5601,-1.5596,-1.5507,-1.5421,-1.5405,-1.5271,-1.504,-1.4826,-1.4631,-1.4508,-1.4395,-1.4293,-1.4213,-1.4196,-1.4196,-1.4029,-1.3618,-1.3261,-1.3098,-1.2799,-1.255,-1.2359,-1.2141,-1.1864,-1.1596,-1.1267,-1.0966,-1.0747,-1.0555,-1.0417,-1.017,-0.9785,-0.8816,-0.7928,-0.7152,-0.6513,-0.6098,-0.5768,-0.5547,-0.5435,-0.5409,-0.5409,-0.5409,-0.5409,-0.5409,-0.5409,-0.5409,-0.5409,-0.5409,-0.5409,-0.5409,-0.5326,-0.4847,-0.4536,-0.4341,-0.3977,-0.3503,-0.3141,-0.2973,-0.2496,-0.2047,-0.1879,-0.1823,-0.1795,-0.1795,-0.1795,-0.1795,-0.1795,-0.1795,-0.1795,-0.1795,-0.1795,-0.1795,-0.1795,-0.1795,-0.1795,-0.1795,-0.1542,-0.1206,-0.0981,-0.0729,-0.0056,0.0392,0.0813,0.129,0.157,0.1907,0.23,0.2665,0.2945,0.3223,0.3447,0.3559,0.3587,0.3587,0.3587,0.3587,0.3587,0.3587,0.3587,0.3614,0.3613,0.3607,0.3593,0.3571,-1.5844,-1.5601,-1.5601,-1.5601,-1.5601,-1.5601,-1.5601,-1.5601,-1.5601,-1.5601,-1.5601,-1.5601,-1.5601,-1.5596,-1.5569,-1.5483,-1.5271,-1.5068,-1.4846,-1.4696,-1.4535,-1.4395,-1.4304,-1.4207,-1.4137,-1.3975,-1.3699,-1.3369,-1.3207,-1.2881,-1.2604,-1.2332,-1.2082,-1.181,-1.1486,-1.1131,-1.0884,-1.061,-1.0335,-1.0174,-0.9702,-0.8844,-0.7873,-0.7099,-0.6485,-0.6042,-0.5738,-0.5547,-0.5437,-0.5409,-0.5409,-0.5409,-0.5409,-0.5409,-0.5409,-0.5409,-0.5409,-0.5409,-0.5409,-0.5409,-0.5409,-0.5382,-0.4847,-0.4564,-0.4341,-0.3951,-0.3365,-0.2834,-0.2665,-0.244,-0.1963,-0.1795,-0.1795,-0.1795,-0.1795,-0.1795,-0.1795,-0.1795,-0.1795,-0.1795,-0.1795,-0.1795,-0.1795,-0.1795,-0.1795,-0.1795,-0.1795,-0.1598,-0.1262,-0.1037,-0.0645,0.0252,0.0813,0.1121,0.1458,0.1627,0.1907,0.2216,0.2553,0.2862,0.3139,0.339,0.3503,0.3587,0.3587,0.3587,0.3587,0.3587,0.3587,0.3587,0.3587,0.3614,0.3611,0.361,0.3599,-1.5626,-1.5601,-1.5601,-1.5601,-1.5601,-1.5601,-1.5601,-1.5601,-1.5601,-1.5601,-1.5601,-1.5601,-1.5601,-1.5601,-1.5601,-1.558,-1.5483,-1.5292,-1.5131,-1.4979,-1.4711,-1.454,-1.4422,-1.4245,-1.4028,-1.3845,-1.3672,-1.3505,-1.3174,-1.2713,-1.2359,-1.2114,-1.1946,-1.1728,-1.1185,-1.0911,-1.061,-1.0335,-1.0005,-0.9454,-0.8706,-0.7848,-0.7096,-0.6515,-0.6072,-0.5768,-0.5519,-0.5437,-0.5409,-0.5409,-0.5409,-0.5409,-0.5409,-0.5409,-0.5409,-0.5409,-0.5409,-0.5409,-0.5409,-0.5409,-0.5409,-0.5298,-0.4847,-0.4564,-0.4257,-0.3921,-0.3335,-0.275,-0.2693,-0.244,-0.1991,-0.1823,-0.1795,-0.1795,-0.1795,-0.1795,-0.1795,-0.1795,-0.1795,-0.1795,-0.1795,-0.1795,-0.1795,-0.1795,-0.1795,-0.1795,-0.1739,-0.1542,-0.1234,-0.0897,-0.0448,0.0448,0.1093,0.143,0.1542,0.1711,0.1879,0.2132,0.2468,0.2778,0.3029,0.3279,0.3531,0.3587,0.3587,0.3587,0.3587,0.3587,0.3587,0.3587,0.3587,0.3587,0.3615,0.3587,0.3587,-1.5601,-1.5601,-1.5601,-1.5601,-1.5601,-1.5601,-1.5601,-1.5601,-1.5601,-1.5601,-1.5601,-1.5601,-1.5601,-1.5601,-1.5601,-1.5601,-1.5575,-1.5459,-1.5335,-1.521,-1.4929,-1.4732,-1.4474,-1.4236,-1.3965,-1.3644,-1.3369,-1.3017,-1.2767,-1.2523,-1.225,-1.1951,-1.1646,-1.1295,-1.0829,-1.061,-1.0229,-0.9734,-0.9123,-0.8457,-0.7765,-0.7068,-0.6487,-0.6044,-0.5738,-0.5547,-0.5437,-0.5409,-0.5409,-0.5409,-0.5409,-0.5409,-0.5409,-0.5409,-0.5409,-0.5409,-0.5409,-0.5409,-0.5409,-0.5409,-0.5409,-0.527,-0.4847,-0.4367,-0.4061,-0.3755,-0.3418,-0.297,-0.2776,-0.2468,-0.2104,-0.1879,-0.1823,-0.1795,-0.1795,-0.1795,-0.1795,-0.1795,-0.1795,-0.1795,-0.1795,-0.1795,-0.1795,-0.1795,-0.1795,-0.1795,-0.1739,-0.1598,-0.1065,-0.0476,0.0056,0.0701,0.1234,0.1655,0.1711,0.1795,0.1823,0.2075,0.2496,0.275,0.2917,0.3141,0.3447,0.3587,0.3587,0.3587,0.3587,0.3587,0.3587,0.3587,0.3587,0.3587,0.3587,0.3587,0.3587,-1.5601,-1.5601,-1.5601,-1.5601,-1.5601,-1.5601,-1.5601,-1.5601,-1.5601,-1.5601,-1.5601,-1.5601,-1.5601,-1.5601,-1.5572,-1.5542,-1.5448,-1.5477,-1.5293,-1.5112,-1.4951,-1.4745,-1.4428,-1.4136,-1.3773,-1.3473,-1.2977,-1.2527,-1.2164,-1.1919,-1.1755,-1.165,-1.124,-1.0774,-1.0394,-1.0005,-0.9565,-0.8881,-0.8211,-0.7598,-0.6985,-0.6485,-0.607,-0.5738,-0.5519,-0.5409,-0.5409,-0.5409,-0.5409,-0.5409,-0.5409,-0.5409,-0.5409,-0.5409,-0.5409,-0.5409,-0.5409,-0.5409,-0.5409,-0.5409,-0.5409,-0.5214,-0.4819,-0.4283,-0.3755,-0.3587,-0.3447,-0.3109,-0.2833,-0.2553,-0.2244,-0.1963,-0.1823,-0.1795,-0.1795,-0.1795,-0.1795,-0.1795,-0.1795,-0.1795,-0.1795,-0.1795,-0.1795,-0.1795,-0.1795,-0.1795,-0.1711,-0.1598,-0.0981,-0.0252,0.0392,0.0981,0.1486,0.1907,0.2075,0.2047,0.2019,0.2103,0.2496,0.2776,0.2973,0.3223,0.3531,0.3587,0.3587,0.3587,0.3587,0.3587,0.3587,0.3587,0.3587,0.3587,0.3587,0.3587,0.3587,-1.5601,-1.5601,-1.5601,-1.5601,-1.5601,-1.5601,-1.5601,-1.5601,-1.5601,-1.5601,-1.5601,-1.5601,-1.5601,-1.5572,-1.5542,-1.5418,-1.5145,-1.5145,-1.4941,-1.4691,-1.4451,-1.4383,-1.4099,-1.3768,-1.3381,-1.2927,-1.2486,-1.1932,-1.1318,-1.1044,-1.0911,-1.0747,-1.0551,-1.0143,-0.962,-0.912,-0.8571,-0.7937,-0.7379,-0.696,-0.646,-0.6042,-0.574,-0.5521,-0.5437,-0.5409,-0.5409,-0.5409,-0.5409,-0.5409,-0.5409,-0.5409,-0.5409,-0.5409,-0.5409,-0.5409,-0.5409,-0.5409,-0.5409,-0.5409,-0.5382,-0.5214,-0.4847,-0.4257,-0.3755,-0.3615,-0.3447,-0.3194,-0.2945,-0.2637,-0.23,-0.1991,-0.1879,-0.1795,-0.1795,-0.1795,-0.1795,-0.1795,-0.1795,-0.1795,-0.1795,-0.1795,-0.1795,-0.1795,-0.1795,-0.1795,-0.1627,-0.1486,-0.0869,-0.014,0.0561,0.1177,0.1767,0.2188,0.2524,0.2524,0.2384,0.2439,0.2719,0.2915,0.3054,0.3334,0.3587,0.3587,0.3587,0.3587,0.3587,0.3587,0.3587,0.3587,0.3587,0.3587,0.3587,0.3587,0.3587,-1.5601,-1.5601,-1.5601,-1.5601,-1.5601,-1.5601,-1.5601,-1.5601,-1.5601,-1.5601,-1.5601,-1.5601,-1.5601,-1.5542,-1.5359,-1.524,-1.5086,-1.4883,-1.4615,-1.4426,-1.4257,-1.4025,-1.3723,-1.3312,-1.2937,-1.2445,-1.1997,-1.15,-1.0888,-1.0355,-0.9891,-0.9722,-0.9612,-0.9313,-0.8788,-0.8208,-0.7601,-0.7129,-0.6629,-0.6181,-0.6044,-0.574,-0.5519,-0.5409,-0.5409,-0.5409,-0.5409,-0.5409,-0.5409,-0.5409,-0.5409,-0.5409,-0.5409,-0.5409,-0.5409,-0.5409,-0.5409,-0.5409,-0.5409,-0.5382,-0.5298,-0.5044,-0.4733,-0.4313,-0.3868,-0.3699,-0.3587,-0.3363,-0.3111,-0.2748,-0.2525,-0.2244,-0.2019,-0.1879,-0.1795,-0.1767,-0.1739,-0.1711,-0.1683,-0.1598,-0.1711,-0.1795,-0.1795,-0.1795,-0.1795,-0.1795,-0.157,-0.1262,-0.0645,0.0028,0.0757,0.143,0.2019,0.2412,0.2748,0.275,0.2693,0.2833,0.297,0.3082,0.3222,0.339,0.3587,0.3587,0.3587,0.3587,0.3587,0.3587,0.3587,0.3587,0.3587,0.3587,0.3587,0.3587,0.3587,-1.5601,-1.5601,-1.5601,-1.5601,-1.5601,-1.5601,-1.5601,-1.5601,-1.5601,-1.5601,-1.5601,-1.5601,-1.5537,-1.5418,-1.5235,-1.4942,-1.4764,-1.4466,-1.4172,-1.3893,-1.3596,-1.3381,-1.2988,-1.2567,-1.2189,-1.1828,-1.132,-1.0759,-1.0156,-0.9724,-0.9165,-0.8722,-0.8484,-0.8346,-0.7986,-0.7379,-0.6771,-0.6379,-0.61,-0.5738,-0.5684,-0.5519,-0.5409,-0.5409,-0.5409,-0.5409,-0.5409,-0.5409,-0.5409,-0.5409,-0.5409,-0.5409,-0.5409,-0.5409,-0.5409,-0.5409,-0.5409,-0.5409,-0.5409,-0.5382,-0.5242,-0.4959,-0.4789,-0.4426,-0.4064,-0.3813,-0.3729,-0.3531,-0.3223,-0.2915,-0.2665,-0.23,-0.2019,-0.1823,-0.1598,-0.157,-0.1514,-0.1486,-0.1458,-0.1402,-0.1486,-0.1458,-0.143,-0.1402,-0.1458,-0.143,-0.1318,-0.0953,-0.0336,0.0336,0.1065,0.171,0.2299,0.2635,0.2917,0.3029,0.3113,0.3169,0.3279,0.3278,0.339,0.3531,0.3587,0.3587,0.3587,0.3587,0.3587,0.3587,0.3587,0.3587,0.3587,0.3587,0.3587,0.3587,0.3587,-1.5601,-1.5601,-1.5601,-1.5601,-1.5601,-1.5601,-1.5601,-1.5601,-1.5601,-1.5601,-1.5601,-1.5572,-1.5418,-1.5175,-1.5026,-1.4704,-1.4262,-1.3903,-1.3509,-1.3144,-1.2659,-1.2346,-1.2017,-1.1708,-1.1344,-1.0947,-1.0492,-0.9925,-0.932,-0.8977,-0.8404,-0.792,-0.7785,-0.7549,-0.721,-0.6631,-0.6161,-0.5877,-0.5794,-0.5656,-0.5491,-0.5435,-0.5409,-0.5409,-0.5409,-0.5409,-0.5409,-0.5409,-0.5409,-0.5409,-0.5409,-0.5409,-0.5409,-0.5409,-0.5409,-0.5409,-0.5409,-0.5409,-0.5409,-0.5409,-0.5242,-0.4987,-0.4875,-0.4566,-0.4148,-0.3952,-0.3785,-0.3475,-0.3111,-0.2776,-0.2496,-0.2188,-0.1935,-0.1627,-0.143,-0.1262,-0.1206,-0.1121,-0.1065,-0.0953,-0.0925,-0.0925,-0.0925,-0.0925,-0.1009,-0.1009,-0.0981,-0.0589,0.0056,0.0701,0.143,0.2046,0.2634,0.2887,0.3195,0.3419,0.3531,0.3559,0.3531,0.3475,0.3475,0.3559,0.3587,0.3587,0.3587,0.3587,0.3587,0.3587,0.3587,0.3587,0.3587,0.3587,0.3587,0.3587,0.3587,-1.5601,-1.5601,-1.5601,-1.5601,-1.5601,-1.5601,-1.5601,-1.5601,-1.5601,-1.5601,-1.5542,-1.5388,-1.5235,-1.5026,-1.4644,-1.4286,-1.3808,-1.3209,-1.2814,-1.2238,-1.1756,-1.1333,-1.1,-1.0782,-1.0464,-1.0083,-0.9634,-0.9329,-0.8961,-0.8496,-0.8127,-0.7748,-0.7295,-0.6884,-0.6576,-0.6161,-0.5824,-0.5575,-0.5519,-0.5493,-0.5409,-0.5409,-0.5409,-0.5409,-0.5409,-0.5409,-0.5409,-0.5409,-0.5409,-0.5409,-0.5409,-0.5409,-0.5409,-0.5409,-0.5409,-0.5409,-0.5409,-0.5409,-0.5409,-0.5382,-0.5354,-0.5156,-0.4875,-0.4594,-0.4314,-0.3895,-0.3614,-0.3334,-0.3027,-0.2636,-0.216,-0.1963,-0.1683,-0.1262,-0.1009,-0.0869,-0.0785,-0.0673,-0.0561,-0.0392,-0.0308,-0.0252,-0.0224,-0.0112,-0.014,-0.014,-0.0056,0.0196,0.0757,0.1262,0.1879,0.2466,0.2998,0.3222,0.3447,0.3559,0.3587,0.3587,0.3587,0.3559,0.3587,0.3587,0.3587,0.3587,0.3587,0.3587,0.3587,0.3587,0.3587,0.3587,0.3587,0.3587,0.3587,0.3587,0.3587,-1.5601,-1.5601,-1.5601,-1.5601,-1.5601,-1.5601,-1.5601,-1.5572,-1.5477,-1.5418,-1.5359,-1.5086,-1.4788,-1.455,-1.4227,-1.3629,-1.3174,-1.2634,-1.2027,-1.1454,-1.097,-1.0486,-1.0095,-0.9879,-0.9674,-0.9327,-0.9031,-0.8742,-0.8557,-0.8107,-0.7828,-0.754,-0.7082,-0.6738,-0.6378,-0.6023,-0.5712,-0.5491,-0.5437,-0.5437,-0.5409,-0.5409,-0.5409,-0.5409,-0.5409,-0.5409,-0.5409,-0.5409,-0.5409,-0.5409,-0.5409,-0.5409,-0.5409,-0.5409,-0.5409,-0.5409,-0.5409,-0.5409,-0.5409,-0.5242,-0.5184,-0.5156,-0.4819,-0.4622,-0.4424,-0.3951,-0.3502,-0.3194,-0.2858,-0.2383,-0.1879,-0.1711,-0.1149,-0.0701,-0.0476,-0.0308,-0.014,-0.0028,0.0196,0.0364,0.0448,0.0504,0.0561,0.0701,0.0785,0.0841,0.0925,0.1177,0.143,0.1851,0.2271,0.2774,0.3222,0.339,0.3503,0.3559,0.3587,0.3587,0.3587,0.3587,0.3587,0.3587,0.3587,0.3587,0.3587,0.3587,0.3587,0.3587,0.3587,0.3587,0.3587,0.3587,0.3587,0.3587,0.3587,-1.5601,-1.5601,-1.5601,-1.5601,-1.5572,-1.5512,-1.5512,-1.5542,-1.5235,-1.5086,-1.5086,-1.4704,-1.4321,-1.3838,-1.3658,-1.3114,-1.2328,-1.1907,-1.1333,-1.0728,-1.0186,-0.967,-0.9308,-0.9092,-0.8952,-0.8781,-0.8581,-0.8361,-0.8154,-0.7906,-0.7667,-0.7492,-0.7174,-0.6815,-0.6431,-0.6097,-0.574,-0.5502,-0.5409,-0.5409,-0.5409,-0.5409,-0.5409,-0.5409,-0.5409,-0.5409,-0.5409,-0.5409,-0.5409,-0.5409,-0.5409,-0.5409,-0.5409,-0.5409,-0.5409,-0.5409,-0.5409,-0.5409,-0.5354,-0.5156,-0.5015,-0.4987,-0.4789,-0.4678,-0.4341,-0.3782,-0.3306,-0.2774,-0.2326,-0.1962,-0.1598,-0.1009,-0.0392,-0.0084,0.0224,0.0392,0.0589,0.0785,0.1065,0.1234,0.1346,0.143,0.157,0.1683,0.1626,0.1739,0.1795,0.1905,0.213,0.2327,0.2719,0.2998,0.3362,0.3531,0.3587,0.3587,0.3587,0.3587,0.3587,0.3587,0.3587,0.3587,0.3587,0.3587,0.3587,0.3587,0.3587,0.3587,0.3587,0.3587,0.3587,0.3587,0.3587,0.3587,0.3587,-1.5601,-1.5601,-1.5601,-1.5448,-1.5205,-1.4977,-1.5032,-1.5205,-1.4883,-1.4734,-1.4709,-1.4202,-1.3778,-1.3658,-1.2964,-1.2354,-1.1752,-1.1148,-1.0577,-1.0001,-0.9457,-0.9037,-0.8732,-0.858,-0.8397,-0.8272,-0.8111,-0.8066,-0.7988,-0.7758,-0.7706,-0.7606,-0.741,-0.7045,-0.6645,-0.6317,-0.5879,-0.5546,-0.5424,-0.5409,-0.5409,-0.5409,-0.5409,-0.5409,-0.5409,-0.5409,-0.5409,-0.5409,-0.5409,-0.5409,-0.5409,-0.5409,-0.5409,-0.5409,-0.5409,-0.5409,-0.5409,-0.5382,-0.5354,-0.51,-0.4903,-0.4707,-0.437,-0.4007,-0.3755,-0.3418,-0.2915,-0.2326,-0.171,-0.129,-0.0757,-0.014,0.0392,0.0729,0.1009,0.1177,0.1374,0.157,0.1823,0.2019,0.2131,0.2243,0.2412,0.2412,0.2383,0.2552,0.2636,0.2691,0.2746,0.2915,0.3055,0.3307,0.3447,0.3587,0.3587,0.3587,0.3587,0.3587,0.3587,0.3587,0.3587,0.3587,0.3587,0.3587,0.3587,0.3587,0.3587,0.3587,0.3587,0.3587,0.3587,0.3587,0.3587,0.3587,0.3587,-1.5221,-1.521,-1.5215,-1.5037,-1.4734,-1.4376,-1.4321,-1.4336,-1.4262,-1.4262,-1.4142,-1.3444,-1.3054,-1.2749,-1.2027,-1.1394,-1.088,-1.0274,-0.9697,-0.9217,-0.8885,-0.8549,-0.8305,-0.8183,-0.8089,-0.7933,-0.7903,-0.7928,-0.7881,-0.7851,-0.7769,-0.7788,-0.7649,-0.7249,-0.682,-0.6485,-0.6094,-0.5683,-0.5461,-0.5424,-0.5414,-0.5414,-0.5409,-0.5409,-0.5409,-0.5409,-0.5409,-0.5409,-0.5409,-0.5409,-0.5409,-0.5409,-0.5409,-0.5409,-0.5409,-0.5409,-0.5409,-0.5409,-0.5326,-0.4959,-0.4819,-0.451,-0.3923,-0.3363,-0.2999,-0.2663,-0.2215,-0.1711,-0.1093,-0.0504,0.014,0.0729,0.1177,0.1598,0.1795,0.2019,0.216,0.2328,0.2552,0.2776,0.2889,0.3001,0.3057,0.3057,0.3057,0.3113,0.3167,0.3167,0.3194,0.3251,0.3335,0.3475,0.3531,0.3587,0.3587,0.3587,0.3587,0.3587,0.3587,0.3587,0.3587,0.3587,0.3587,0.3587,0.3587,0.3587,0.3587,0.3587,0.3587,0.3587,0.3587,0.3587,0.3587,0.3587,0.3587,-1.4565,-1.4535,-1.4505,-1.4351,-1.4082,-1.3718,-1.3414,-1.3174,-1.3354,-1.3504,-1.3354,-1.2569,-1.2027,-1.1756,-1.1091,-1.0486,-1.0001,-0.9488,-0.9065,-0.8433,-0.8397,-0.8214,-0.8058,-0.7903,-0.7933,-0.7933,-0.7903,-0.7903,-0.7903,-0.7881,-0.787,-0.7894,-0.7799,-0.7445,-0.6975,-0.6705,-0.6318,-0.5849,-0.5574,-0.5439,-0.5406,-0.5394,-0.5409,-0.5409,-0.5409,-0.5409,-0.5409,-0.5409,-0.5409,-0.5409,-0.5409,-0.5409,-0.5409,-0.5409,-0.5409,-0.5409,-0.5409,-0.5409,-0.5242,-0.4903,-0.4592,-0.4201,-0.3614,-0.2914,-0.2467,-0.2103,-0.1683,-0.1037,-0.042,0.0224,0.0841,0.1318,0.1767,0.2131,0.2411,0.2607,0.2776,0.2889,0.2973,0.3169,0.3251,0.3365,0.3365,0.3337,0.3309,0.3475,0.3531,0.3531,0.3531,0.3531,0.3559,0.3587,0.3587,0.3587,0.3587,0.3587,0.3587,0.3587,0.3587,0.3587,0.3587,0.3587,0.3587,0.3587,0.3587,0.3587,0.3587,0.3587,0.3587,0.3587,0.3587,0.3587,0.3587,0.3587,0.3587,-1.4142,-1.3898,-1.3658,-1.3474,-1.3384,-1.281,-1.2539,-1.2389,-1.2027,-1.2118,-1.2359,-1.1816,-1.1303,-1.091,-1.0304,-0.9761,-0.9396,-0.8912,-0.858,-0.8336,-0.8183,-0.8058,-0.7933,-0.7903,-0.7903,-0.7903,-0.7903,-0.7903,-0.7903,-0.7903,-0.7903,-0.79,-0.7851,-0.76,-0.7203,-0.6953,-0.649,-0.6062,-0.5727,-0.5539,-0.5496,-0.5422,-0.5409,-0.5409,-0.5409,-0.5409,-0.5409,-0.5409,-0.5409,-0.5409,-0.5409,-0.5409,-0.5409,-0.5409,-0.5409,-0.5409,-0.5409,-0.5409,-0.5242,-0.4847,-0.4454,-0.3951,-0.3335,-0.2635,-0.2047,-0.1655,-0.1093,-0.0392,0.0252,0.0897,0.1486,0.1907,0.23,0.2635,0.2942,0.3139,0.3309,0.3337,0.3365,0.3447,0.3559,0.3587,0.3587,0.3587,0.3587,0.3587,0.3587,0.3587,0.3587,0.3587,0.3559,0.3587,0.3587,0.3587,0.3587,0.3587,0.3587,0.3587,0.3587,0.3587,0.3587,0.3587,0.3587,0.3587,0.3587,0.3587,0.3587,0.3587,0.3587,0.3587,0.3587,0.3587,0.3587,0.3587,0.3587,-1.3324,-1.3024,-1.2689,-1.2509,-1.2294,-1.1937,-1.1635,-1.1299,-1.0849,-1.0728,-1.0906,-1.0698,-1.0456,-1.0092,-0.9457,-0.9156,-0.8851,-0.8424,-0.8241,-0.8089,-0.8058,-0.7964,-0.7903,-0.7903,-0.7903,-0.7903,-0.7903,-0.7903,-0.7903,-0.7903,-0.7903,-0.7903,-0.7903,-0.7747,-0.7408,-0.7018,-0.6684,-0.6345,-0.5924,-0.5707,-0.5604,-0.5516,-0.5418,-0.5402,-0.5412,-0.5412,-0.5409,-0.5409,-0.5409,-0.5409,-0.5409,-0.5409,-0.5409,-0.5409,-0.5409,-0.5409,-0.5409,-0.5409,-0.5214,-0.4847,-0.4342,-0.3811,-0.3001,-0.2272,-0.1374,-0.0925,-0.042,0.0224,0.0673,0.1262,0.1935,0.2412,0.2776,0.3111,0.3251,0.3391,0.3475,0.3503,0.3503,0.3531,0.3587,0.3587,0.3587,0.3587,0.3587,0.3587,0.3587,0.3587,0.3587,0.3587,0.3587,0.3587,0.3587,0.3587,0.3587,0.3587,0.3587,0.3587,0.3587,0.3587,0.3587,0.3587,0.3587,0.3587,0.3587,0.3587,0.3587,0.3587,0.3587,0.3587,0.3587,0.3587,0.3587,0.3587,0.3587,-1.2324,-1.1997,-1.1726,-1.1454,-1.1178,-1.1061,-1.0728,-1.0213,-0.9822,-0.9518,-0.9366,-0.9548,-0.943,-0.9065,-0.8702,-0.8491,-0.8305,-0.8119,-0.7964,-0.7933,-0.7933,-0.7903,-0.7903,-0.7903,-0.7903,-0.7903,-0.7903,-0.7903,-0.7903,-0.7903,-0.7903,-0.7903,-0.7841,-0.775,-0.7416,-0.7079,-0.6731,-0.6461,-0.6103,-0.5824,-0.5712,-0.5616,-0.5502,-0.5433,-0.5398,-0.5392,-0.5416,-0.5409,-0.5409,-0.5409,-0.5409,-0.5409,-0.5409,-0.5409,-0.5409,-0.5409,-0.5409,-0.5354,-0.5212,-0.4791,-0.4314,-0.3727,-0.2747,-0.1823,-0.0953,-0.028,0.0196,0.0701,0.1121,0.1598,0.2244,0.2721,0.3057,0.3365,0.3447,0.3559,0.3587,0.3587,0.3587,0.3587,0.3587,0.3587,0.3587,0.3587,0.3587,0.3587,0.3587,0.3587,0.3587,0.3587,0.3587,0.3587,0.3587,0.3587,0.3587,0.3587,0.3587,0.3587,0.3587,0.3587,0.3587,0.3587,0.3587,0.3587,0.3587,0.3587,0.3587,0.3587,0.3587,0.3587,0.3587,0.3587,0.3587,0.3587,0.3587,-1.1363,-1.1027,-1.0725,-1.0547,-1.0425,-0.9943,-0.9609,-0.9457,-0.9186,-0.8885,-0.8671,-0.861,-0.861,-0.8552,-0.8491,-0.8308,-0.8058,-0.7933,-0.7933,-0.7903,-0.7903,-0.7903,-0.7903,-0.7903,-0.7903,-0.7903,-0.7903,-0.7903,-0.7903,-0.7903,-0.7903,-0.7903,-0.7903,-0.7841,-0.775,-0.7327,-0.6837,-0.6576,-0.6198,-0.5853,-0.5776,-0.568,-0.5582,-0.5522,-0.5484,-0.5441,-0.5434,-0.5414,-0.5409,-0.5409,-0.5409,-0.5409,-0.5409,-0.5409,-0.5409,-0.5409,-0.5409,-0.5242,-0.5044,-0.4678,-0.4203,-0.3418,-0.2466,-0.1598,-0.0757,0.0028,0.0533,0.1093,0.1486,0.1767,0.2272,0.2525,0.2833,0.3167,0.3362,0.3503,0.3587,0.3587,0.3587,0.3587,0.3587,0.3587,0.3587,0.3587,0.3587,0.3587,0.3587,0.3587,0.3587,0.3587,0.3587,0.3587,0.3587,0.3587,0.3587,0.3587,0.3587,0.3587,0.3587,0.3587,0.3587,0.3587,0.3587,0.3587,0.3587,0.3587,0.3587,0.3587,0.3587,0.3587,0.3587,0.3587,0.3587,0.3587,0.3587]},{"header":{"parameterUnit":"m.s-1","parameterCategory":1,"la1":31.0,"la2":29.5877,"lo1":-88.7671,"lo2":-86.6584,"dy":0.0162,"dx":0.0185,"nx":115,"ny":88,"refTime":"2024-05-08T12:00:00:Z","depth":0,"parameterNumber":3,"parameterNumberName":"V-component_of_WINDS"},"data":[0.0,0.0,0.0,0.0,0.0,0.0,0.0,0.0,0.0,0.0,0.0,0.0,0.0,0.0,0.0,0.0,0.0,0.0,0.0,0.0,0.0,0.0,0.0,0.0,0.0,0.0,0.0,0.0,0.0,0.0,0.0,0.0,0.0,0.0,0.0,0.0,0.0,0.0,0.0,0.0,0.0,0.0,0.0,0.0,0.0,0.0,0.0,0.0,0.0,0.0,0.0,0.0,0.0,0.0,0.0,0.0,0.0,0.0,0.0,0.0,0.0,0.0,0.0,0.0,0.0,0.0,0.0,0.0,0.0,0.0,0.0,0.0,0.0,0.0,0.0,0.0,0.0,0.0,0.0,0.0,0.0,0.0,0.0,0.0,0.0,0.0,0.0,0.0,0.0,0.0,0.0,0.0,0.0,0.0,0.0,0.0,0.0,0.0,0.0,0.0,0.0,0.0,0.0,0.0,0.0,0.0,0.0,0.0,0.0,0.0,0.0,0.0,0.0,0.0,0.0,0.0,0.0,0.0,0.0,0.0,0.0,0.0,0.0,0.0,0.0,0.0,0.0,0.0,0.0,0.0,0.0,0.0,0.0,0.0,0.0,0.0,0.0,0.0,0.0,0.0,0.0,0.0,0.0,0.0,0.0,0.0,0.0,0.0,0.0,0.0,0.0,0.0,0.0,0.0,0.0,0.0,0.0,0.0,0.0,0.0,0.0,0.0,0.0,0.0,0.0,0.0,0.0,0.0,0.0,0.0,0.0,0.0,0.0,0.0,0.0,0.0,0.0,0.0,0.0,0.0,0.0,0.0,0.0,0.0,0.0,0.0,0.0,0.0,0.0,0.0,0.0,0.0,0.0,0.0,0.0,0.0,0.0,0.0,0.0,0.0,0.0,0.0,0.0,0.0,0.0,0.0,0.0,0.0,0.0,0.0,0.0,0.0,0.0,0.0,0.0,0.0,0.0,0.0,0.0,0.0,0.0,0.0,0.0,0.0,0.0,0.0,0.0,0.0,0.0,0.0,0.0,0.0,0.0,0.0,0.0,0.0,0.0,0.0,0.0,0.0,0.0,0.0,0.0,0.0,0.0,0.0,0.0,0.0,0.0,0.0,0.0,0.0,0.0,0.0,0.0,0.0,0.0,0.0,0.0,0.0,0.0,0.0,0.0,0.0,0.0,0.0,0.0,0.0,0.0,0.0,0.0,0.0,0.0,0.0,0.0,0.0,0.0,0.0,0.0,0.0,0.0,0.0,0.0,0.0,0.0,0.0,0.0,0.0,0.0,0.0,0.0,0.0,0.0,0.0,0.0,0.0,0.0,0.0,0.0,0.0,0.0,0.0,0.0,0.0,0.0,0.0,0.0,0.0,0.0,0.0,0.0,0.0,0.0,0.0,0.0,0.0,0.0,0.0,0.0,0.0,0.0,0.0,0.0,0.0,0.0,0.0,0.0,0.0,0.0,0.0,0.0,0.0,0.0,0.0,0.0,0.0,0.0,0.0,0.0,0.0,0.0,0.0,0.0,0.0,0.0,0.0,0.0,0.0,0.0,0.0,0.0,0.0,0.0,0.0,0.0,0.0,0.0,0.0,0.0,0.0,0.0,0.0,0.0,0.0,0.0,0.0,0.0,0.0,0.0,0.0,0.0,0.0,0.0,0.0,0.0,0.0,0.0,0.0,0.0,0.0,0.0,0.0,0.0,0.0,0.0,0.0,0.0,0.0,0.0,0.0,0.0,0.0,0.0,0.0,0.0,0.0,0.0,0.0,0.0,0.0,0.0,0.0,0.0,0.0,0.0,0.0,0.0,0.0,0.0,0.0,0.0,0.0,0.0,0.0,0.0,0.0,0.0,0.0,0.0,0.0,0.0,0.0,0.0,0.0,0.0,0.0,0.0,0.0,0.0,0.0,0.0,0.0,0.0,0.0,0.0,0.0,0.0,0.0,0.0,0.0,0.0,0.0,0.0,0.0,0.0,0.0,0.0,0.0,0.0,0.0,0.0,0.0,0.0,0.0,0.0,0.0,0.0,0.0,0.0,0.0,0.0,0.0,0.0,0.0,0.0,0.0,0.0,0.0,0.0,0.0,0.0,0.0,0.0,0.0,0.0,0.0,0.0,0.0,0.0,0.0,0.0,0.0,0.0,0.0,0.0,0.0,0.0,0.0,0.0,0.0,0.0,0.0,0.0,0.0,0.0,0.0,0.0,0.0,0.0,0.0,0.0,0.0,0.0,0.0,0.0,0.0,0.0,0.0,0.0,0.0,0.0,0.0,0.0,0.0,0.0,0.0,0.0,0.0,0.0,0.0,0.0,0.0,0.0,0.0,0.0,0.0,0.0,0.0,0.0,0.0,0.0,0.0,0.0,0.0,0.0,0.0,0.0,0.0,0.0,0.0,0.0,0.0,0.0,0.0,0.0,0.0,0.0,0.0,0.0,0.0,0.0,0.0,0.0,0.0,0.0,0.0,0.0,0.0,0.0,0.0,0.0,0.0,0.0,0.0,0.0,0.0,0.0,0.0,0.0,0.0,0.0,0.0,0.0,0.0,0.0,0.0,0.0,0.0,0.0,0.0,0.0,0.0,0.0,0.0,0.0,0.0,0.0,0.0,0.0,0.0,0.0,0.0,0.0,0.0,0.0,0.0,0.0,0.0,0.0,0.0,0.0,0.0,0.0,0.0,0.0,0.0,0.0,0.0,0.0,0.0,0.0,0.0,0.0,0.0,0.0,0.0,0.0,0.0,0.0,0.0,0.0,0.0,0.0,0.0,0.0,0.0,0.0,0.0,0.0,0.0,0.0,0.0,0.0,0.0,0.0,0.0,0.0,0.0,0.0,0.0,0.0,0.0,0.0,0.0,0.0,0.0,0.0,0.0,0.0,0.0,0.0,0.0,0.0,0.0,0.0,0.0,0.0,0.0,0.0,0.0,0.0,0.0,0.0,0.0,0.0,0.0,0.0,0.0,0.0,0.0,0.0,0.0,0.0,0.0,0.0,0.0,0.0,0.0,0.0,0.0,0.0,0.0,0.0,0.0,0.0,0.0,0.0,0.0,0.0,0.0,0.0,0.0,0.0,0.0,0.0,0.0,0.0,0.0,0.0,0.0,0.0,0.0,0.0,0.0,0.0,0.0,0.0,0.0,0.0,0.0,0.0,0.0,0.0,0.0,0.0,0.0,0.0,0.0,0.0,0.0,0.0,0.0,0.0,0.0,0.0,0.0,0.0,0.0,0.0,0.0,0.0,0.0,0.0,0.0,0.0,0.0,0.0,0.0,0.0,0.0,0.0,0.0,0.0,0.0,0.0,0.0,0.0,0.0,0.0,0.0,0.0,0.0,0.0,0.0,0.0,0.0,0.0,0.0,0.0,0.0,0.0,0.0,0.0,0.0,0.0,0.0,0.0,0.0,0.0,0.0,0.0,0.0,0.0,0.0,0.0,0.0,0.0,0.0,0.0,0.0,0.0,0.0,0.0,0.0,0.0,0.0,0.0,0.0,0.0,0.0,0.0,0.0,0.0,0.0,0.0,0.0,0.0,0.0,0.0,0.0,0.0,0.0,0.0,0.0,0.0,0.0,0.0,0.0,0.0,0.0,0.0,0.0,0.0,0.0,0.0,0.0,0.0,0.0,0.0,0.0,0.0,0.0,0.0,0.0,0.0,0.0,0.0,0.0,0.0,0.0,0.0,0.0,0.0,0.0,0.0,0.0,0.0,0.0,0.0,0.0,0.0,0.0,0.0,0.0,0.0,0.0,0.0,0.0,0.0,0.0,0.0,0.0,0.0,0.0,0.0,0.0,0.0,0.0,0.0,0.0,0.0,0.0,0.0,0.0,0.0,0.0,0.0,0.0,0.0,0.0,0.0,0.0,0.0,0.0,0.0,0.0,0.0,0.0,0.0,0.0,0.0,0.0,0.0,0.0,0.0,0.0,0.0,0.0,0.0,0.0,0.0,0.0,0.0,0.0,0.0,0.0,0.0,0.0,0.0,0.0,0.0,0.0,0.0,0.0,0.0,0.0,0.0,0.0,0.0,0.0,0.0,0.0,0.0,0.0,0.0,0.0,0.0,0.0,0.0,0.0,0.0,0.0,0.0,0.0,0.0,0.0,0.0,0.0,0.0,0.0,0.0,0.0,0.0,0.0,0.0,0.0,0.0,0.0,0.0,0.0,0.0,0.0,0.0,0.0,0.0,0.0,0.0,0.0,0.0,0.0,0.0,0.0,0.0,0.0,0.0,0.0,0.0,0.0,0.0,0.0,0.0,0.0,0.0,0.0,0.0,0.0,3.157,0.0,0.0,0.0,0.0,0.0,0.0,0.0,0.0,0.0,0.0,0.0,0.0,0.0,0.0,0.0,0.0,0.0,0.0,0.0,0.0,0.0,0.0,0.0,0.0,0.0,0.0,0.0,0.0,0.0,0.0,0.0,0.0,0.0,0.0,0.0,0.0,0.0,0.0,0.0,0.0,0.0,0.0,0.0,0.0,0.0,0.0,0.0,0.0,0.0,0.0,0.0,0.0,0.0,0.0,0.0,0.0,0.0,0.0,0.0,0.0,0.0,0.0,0.0,0.0,0.0,0.0,0.0,0.0,0.0,0.0,0.0,0.0,0.0,0.0,0.0,0.0,0.0,0.0,0.0,0.0,0.0,0.0,0.0,0.0,0.0,0.0,0.0,0.0,0.0,0.0,0.0,0.0,0.0,0.0,0.0,0.0,0.0,0.0,0.0,0.0,0.0,0.0,0.0,0.0,0.0,0.0,0.0,0.0,0.0,0.0,3.0912,3.0912,3.1032,3.1213,3.1511,0.0,0.0,0.0,0.0,0.0,0.0,0.0,0.0,0.0,0.0,0.0,0.0,0.0,0.0,0.0,0.0,0.0,0.0,0.0,0.0,0.0,0.0,0.0,0.0,0.0,0.0,0.0,0.0,0.0,0.0,0.0,0.0,0.0,0.0,0.0,0.0,0.0,0.0,0.0,0.0,0.0,0.0,0.0,0.0,0.0,0.0,0.0,0.0,0.0,0.0,0.0,0.0,0.0,0.0,0.0,0.0,0.0,0.0,0.0,0.0,0.0,0.0,0.0,0.0,0.0,0.0,0.0,0.0,0.0,0.0,0.0,0.0,0.0,0.0,0.0,0.0,0.0,0.0,0.0,0.0,0.0,0.0,0.0,0.0,0.0,0.0,0.0,0.0,0.0,0.0,0.0,0.0,0.0,0.0,0.0,0.0,0.0,0.0,0.0,0.0,0.0,0.0,0.0,0.0,0.0,0.0,0.0,0.0,0.0,0.0,0.0,0.0,3.0902,3.1144,3.1551,0.0,0.0,0.0,0.0,0.0,0.0,0.0,0.0,0.0,0.0,0.0,0.0,0.0,0.0,0.0,0.0,0.0,0.0,0.0,0.0,0.0,0.0,0.0,0.0,0.0,0.0,0.0,0.0,0.0,0.0,0.0,0.0,0.0,0.0,0.0,0.0,0.0,0.0,0.0,0.0,0.0,0.0,0.0,0.0,0.0,0.0,0.0,0.0,0.0,0.0,0.0,0.0,0.0,0.0,0.0,0.0,0.0,0.0,0.0,0.0,0.0,0.0,0.0,0.0,0.0,0.0,0.0,0.0,0.0,0.0,0.0,0.0,0.0,0.0,0.0,0.0,0.0,0.0,0.0,0.0,0.0,0.0,0.0,0.0,0.0,0.0,0.0,0.0,0.0,0.0,0.0,0.0,0.0,0.0,0.0,0.0,0.0,0.0,0.0,0.0,0.0,0.0,0.0,0.0,0.0,0.0,0.0,0.0,0.0,0.0,3.0537,3.0547,3.0671,0.0,3.1657,0.0,0.0,0.0,0.0,0.0,0.0,0.0,0.0,0.0,0.0,0.0,0.0,0.0,0.0,0.0,0.0,0.0,0.0,0.0,0.0,0.0,0.0,0.0,0.0,0.0,0.0,0.0,0.0,0.0,0.0,0.0,0.0,0.0,0.0,0.0,0.0,0.0,0.0,0.0,0.0,0.0,0.0,0.0,0.0,0.0,0.0,0.0,0.0,0.0,0.0,0.0,0.0,0.0,0.0,0.0,0.0,0.0,0.0,0.0,0.0,0.0,0.0,0.0,0.0,0.0,0.0,0.0,0.0,0.0,0.0,0.0,0.0,0.0,0.0,0.0,0.0,0.0,0.0,0.0,0.0,0.0,0.0,0.0,0.0,0.0,0.0,0.0,0.0,0.0,0.0,0.0,0.0,0.0,0.0,0.0,0.0,0.0,0.0,0.0,0.0,0.0,0.0,0.0,0.0,0.0,0.0,0.0,0.0,0.0,0.0,3.0489,3.0489,3.0753,3.1114,0.0,0.0,0.0,0.0,0.0,0.0,0.0,0.0,0.0,0.0,0.0,0.0,0.0,0.0,0.0,0.0,0.0,0.0,0.0,0.0,0.0,0.0,0.0,0.0,0.0,0.0,0.0,0.0,0.0,0.0,0.0,0.0,0.0,0.0,0.0,0.0,0.0,0.0,0.0,0.0,0.0,0.0,0.0,0.0,0.0,0.0,0.0,0.0,0.0,0.0,0.0,0.0,0.0,0.0,0.0,0.0,0.0,0.0,0.0,0.0,0.0,0.0,0.0,0.0,0.0,0.0,0.0,0.0,0.0,0.0,0.0,0.0,0.0,0.0,0.0,0.0,0.0,0.0,0.0,0.0,0.0,0.0,0.0,0.0,0.0,0.0,0.0,0.0,0.0,0.0,0.0,0.0,0.0,0.0,0.0,0.0,0.0,0.0,0.0,0.0,0.0,0.0,0.0,0.0,0.0,0.0,0.0,0.0,0.0,0.0,3.0489,3.0489,3.0499,3.0814,3.1124,3.1445,0.0,0.0,0.0,0.0,0.0,0.0,0.0,0.0,0.0,0.0,0.0,0.0,0.0,0.0,0.0,0.0,0.0,0.0,0.0,0.0,0.0,0.0,0.0,0.0,0.0,0.0,0.0,0.0,0.0,0.0,0.0,0.0,0.0,0.0,0.0,0.0,0.0,0.0,0.0,0.0,0.0,0.0,0.0,0.0,0.0,0.0,0.0,0.0,0.0,0.0,0.0,0.0,0.0,0.0,0.0,0.0,0.0,0.0,0.0,0.0,0.0,0.0,0.0,0.0,0.0,0.0,0.0,0.0,0.0,0.0,0.0,0.0,0.0,0.0,0.0,0.0,0.0,0.0,0.0,0.0,0.0,0.0,0.0,0.0,0.0,0.0,0.0,0.0,0.0,0.0,0.0,0.0,0.0,0.0,0.0,0.0,0.0,0.0,0.0,0.0,0.0,0.0,0.0,0.0,0.0,0.0,0.0,0.0,3.0489,3.0489,3.0489,3.0506,3.0753,3.1035,0.0,0.0,0.0,0.0,0.0,0.0,0.0,0.0,0.0,0.0,0.0,0.0,0.0,0.0,0.0,0.0,0.0,0.0,0.0,0.0,0.0,0.0,0.0,0.0,0.0,0.0,0.0,0.0,0.0,0.0,0.0,0.0,0.0,0.0,0.0,0.0,0.0,0.0,0.0,0.0,0.0,0.0,0.0,0.0,0.0,0.0,0.0,0.0,0.0,0.0,0.0,0.0,0.0,0.0,0.0,0.0,0.0,0.0,0.0,0.0,0.0,0.0,0.0,0.0,0.0,0.0,0.0,0.0,0.0,0.0,0.0,0.0,0.0,0.0,0.0,0.0,0.0,0.0,0.0,0.0,0.0,0.0,0.0,0.0,0.0,0.0,0.0,0.0,0.0,0.0,0.0,0.0,0.0,0.0,0.0,0.0,0.0,0.0,0.0,0.0,0.0,0.0,0.0,0.0,0.0,0.0,0.0,0.0,0.0,3.0422,3.0375,3.0348,3.0432,3.0667,3.0915,0.0,0.0,0.0,0.0,0.0,0.0,0.0,0.0,0.0,0.0,0.0,0.0,0.0,0.0,0.0,0.0,0.0,0.0,0.0,0.0,0.0,0.0,0.0,0.0,0.0,0.0,0.0,0.0,0.0,0.0,0.0,0.0,0.0,0.0,0.0,0.0,0.0,0.0,0.0,0.0,0.0,0.0,0.0,0.0,0.0,0.0,0.0,0.0,0.0,0.0,0.0,0.0,0.0,0.0,0.0,0.0,0.0,0.0,0.0,0.0,0.0,0.0,0.0,0.0,0.0,0.0,0.0,0.0,0.0,0.0,0.0,0.0,0.0,0.0,0.0,0.0,0.0,0.0,0.0,0.0,0.0,0.0,0.0,0.0,0.0,0.0,0.0,0.0,0.0,0.0,0.0,0.0,0.0,0.0,0.0,0.0,0.0,0.0,0.0,0.0,0.0,0.0,0.0,0.0,0.0,0.0,0.0,0.0,0.0,3.0396,0.0,3.0253,3.038,3.0599,3.0871,0.0,0.0,0.0,0.0,0.0,0.0,0.0,0.0,0.0,0.0,0.0,0.0,0.0,0.0,0.0,0.0,0.0,0.0,0.0,0.0,0.0,0.0,0.0,0.0,0.0,0.0,0.0,0.0,0.0,0.0,0.0,0.0,0.0,0.0,0.0,0.0,0.0,0.0,0.0,0.0,0.0,0.0,0.0,0.0,0.0,0.0,0.0,0.0,0.0,0.0,0.0,0.0,0.0,0.0,0.0,0.0,0.0,0.0,0.0,0.0,0.0,0.0,0.0,0.0,0.0,0.0,0.0,0.0,0.0,0.0,0.0,0.0,0.0,0.0,0.0,0.0,0.0,0.0,0.0,0.0,0.0,0.0,0.0,0.0,0.0,0.0,0.0,0.0,0.0,0.0,0.0,0.0,0.0,0.0,0.0,0.0,0.0,0.0,0.0,0.0,0.0,0.0,0.0,0.0,0.0,0.0,0.0,0.0,3.0507,3.0407,3.028,3.0242,3.038,3.0589,3.0855,0.0,0.0,0.0,0.0,0.0,0.0,0.0,0.0,0.0,0.0,0.0,0.0,0.0,0.0,0.0,0.0,0.0,0.0,0.0,0.0,0.0,0.0,0.0,0.0,0.0,0.0,0.0,0.0,0.0,0.0,0.0,0.0,0.0,0.0,0.0,0.0,0.0,0.0,0.0,0.0,0.0,0.0,0.0,0.0,0.0,0.0,0.0,0.0,0.0,0.0,0.0,0.0,0.0,0.0,0.0,0.0,0.0,0.0,0.0,0.0,0.0,0.0,0.0,0.0,0.0,0.0,0.0,0.0,0.0,0.0,0.0,0.0,0.0,0.0,0.0,0.0,0.0,0.0,0.0,0.0,0.0,0.0,0.0,0.0,0.0,0.0,0.0,0.0,0.0,0.0,0.0,0.0,0.0,0.0,0.0,0.0,0.0,0.0,0.0,0.0,0.0,0.0,0.0,0.0,0.0,0.0,0.0,0.0,0.0,3.044,3.0167,3.0157,3.038,3.0506,3.0763,0.0,0.0,0.0,0.0,0.0,0.0,0.0,0.0,0.0,0.0,0.0,0.0,0.0,0.0,0.0,0.0,0.0,0.0,0.0,0.0,0.0,0.0,0.0,0.0,0.0,0.0,0.0,0.0,0.0,0.0,0.0,0.0,0.0,0.0,0.0,0.0,0.0,0.0,0.0,0.0,0.0,0.0,0.0,0.0,0.0,0.0,0.0,0.0,0.0,0.0,0.0,0.0,0.0,0.0,0.0,0.0,0.0,0.0,0.0,0.0,0.0,0.0,0.0,0.0,0.0,0.0,0.0,0.0,0.0,0.0,0.0,0.0,0.0,0.0,0.0,0.0,0.0,0.0,0.0,0.0,0.0,0.0,0.0,0.0,0.0,0.0,0.0,0.0,0.0,0.0,0.0,0.0,0.0,0.0,0.0,0.0,0.0,0.0,0.0,0.0,0.0,0.0,0.0,0.0,0.0,0.0,0.0,0.0,0.0,3.135,3.1052,3.0866,3.0819,3.093,3.1047,3.1207,0.0,0.0,0.0,0.0,0.0,0.0,0.0,0.0,0.0,0.0,0.0,0.0,0.0,0.0,0.0,0.0,0.0,0.0,0.0,0.0,0.0,0.0,0.0,0.0,0.0,0.0,0.0,0.0,0.0,0.0,0.0,0.0,0.0,0.0,0.0,0.0,0.0,0.0,0.0,0.0,0.0,0.0,0.0,0.0,0.0,0.0,0.0,0.0,0.0,0.0,0.0,0.0,0.0,0.0,0.0,0.0,0.0,0.0,0.0,0.0,0.0,0.0,0.0,0.0,0.0,0.0,0.0,0.0,0.0,0.0,0.0,0.0,0.0,0.0,0.0,0.0,0.0,0.0,0.0,0.0,0.0,0.0,0.0,0.0,0.0,0.0,0.0,0.0,0.0,0.0,0.0,0.0,0.0,0.0,0.0,0.0,0.0,0.0,0.0,0.0,0.0,0.0,0.0,0.0,0.0,0.0,0.0,0.0,3.3034,3.2722,3.2235,3.1599,3.1761,3.1692,0.0,0.0,0.0,0.0,0.0,0.0,0.0,0.0,0.0,0.0,0.0,0.0,0.0,0.0,0.0,0.0,0.0,0.0,0.0,0.0,0.0,0.0,0.0,0.0,0.0,0.0,0.0,0.0,0.0,0.0,0.0,0.0,0.0,0.0,0.0,0.0,0.0,0.0,0.0,0.0,0.0,0.0,0.0,0.0,0.0,0.0,0.0,0.0,0.0,0.0,0.0,0.0,0.0,0.0,0.0,0.0,0.0,0.0,0.0,0.0,0.0,0.0,0.0,0.0,0.0,0.0,0.0,0.0,0.0,0.0,0.0,0.0,0.0,0.0,0.0,0.0,0.0,0.0,0.0,0.0,0.0,0.0,0.0,0.0,0.0,0.0,0.0,0.0,0.0,0.0,0.0,0.0,0.0,0.0,0.0,0.0,0.0,0.0,0.0,0.0,0.0,0.0,0.0,0.0,0.0,0.0,0.0,0.0,0.0,3.4671,3.4579,3.3883,3.2602,3.2683,3.2587,0.0,0.0,0.0,0.0,0.0,0.0,0.0,0.0,0.0,0.0,0.0,0.0,0.0,0.0,0.0,0.0,0.0,0.0,0.0,0.0,0.0,0.0,0.0,0.0,0.0,0.0,0.0,0.0,0.0,0.0,0.0,0.0,0.0,0.0,0.0,0.0,0.0,0.0,0.0,0.0,0.0,0.0,0.0,0.0,0.0,0.0,0.0,0.0,0.0,0.0,0.0,0.0,0.0,0.0,0.0,0.0,0.0,0.0,0.0,0.0,0.0,0.0,0.0,0.0,0.0,0.0,0.0,0.0,0.0,0.0,0.0,0.0,0.0,0.0,0.0,0.0,0.0,0.0,0.0,0.0,0.0,0.0,0.0,0.0,0.0,0.0,0.0,0.0,0.0,0.0,0.0,0.0,0.0,0.0,0.0,0.0,0.0,0.0,0.0,0.0,0.0,0.0,0.0,0.0,0.0,0.0,0.0,0.0,3.5622,3.5503,3.5475,3.5003,3.4129,3.3848,3.3518,0.0,0.0,0.0,0.0,0.0,0.0,0.0,0.0,0.0,0.0,0.0,0.0,0.0,0.0,0.0,0.0,0.0,0.0,0.0,0.0,0.0,0.0,0.0,0.0,0.0,0.0,0.0,0.0,0.0,0.0,0.0,0.0,0.0,0.0,0.0,0.0,0.0,0.0,0.0,0.0,0.0,0.0,0.0,0.0,0.0,0.0,0.0,0.0,0.0,0.0,0.0,0.0,0.0,0.0,0.0,0.0,0.0,0.0,0.0,0.0,0.0,0.0,0.0,0.0,0.0,0.0,0.0,0.0,0.0,0.0,0.0,0.0,0.0,0.0,0.0,0.0,0.0,0.0,0.0,0.0,0.0,0.0,0.0,0.0,0.0,0.0,0.0,0.0,0.0,0.0,0.0,0.0,0.0,0.0,0.0,0.0,0.0,0.0,0.0,0.0,0.0,0.0,0.0,0.0,0.0,0.0,0.0,0.0,3.585,3.5839,3.5711,3.5723,3.5844,3.5083,3.4487,0.0,0.0,0.0,0.0,0.0,0.0,0.0,0.0,0.0,0.0,0.0,0.0,0.0,0.0,0.0,0.0,0.0,0.0,0.0,0.0,0.0,0.0,0.0,0.0,0.0,0.0,0.0,0.0,0.0,0.0,0.0,0.0,0.0,0.0,0.0,0.0,0.0,0.0,0.0,0.0,0.0,0.0,0.0,0.0,0.0,0.0,0.0,0.0,0.0,0.0,0.0,0.0,0.0,0.0,0.0,0.0,0.0,0.0,0.0,0.0,0.0,0.0,0.0,0.0,0.0,0.0,0.0,0.0,0.0,0.0,0.0,0.0,0.0,0.0,0.0,0.0,0.0,0.0,0.0,0.0,0.0,0.0,0.0,0.0,0.0,0.0,0.0,0.0,0.0,0.0,0.0,0.0,0.0,0.0,0.0,0.0,0.0,0.0,0.0,0.0,0.0,0.0,0.0,0.0,0.0,0.0,0.0,0.0,3.6159,3.6112,3.6079,3.6165,3.6356,3.5987,3.5576,0.0,0.0,0.0,0.0,0.0,0.0,0.0,0.0,0.0,0.0,0.0,0.0,0.0,0.0,0.0,0.0,0.0,0.0,0.0,0.0,0.0,0.0,0.0,0.0,0.0,0.0,0.0,0.0,0.0,0.0,0.0,0.0,0.0,0.0,0.0,0.0,0.0,0.0,0.0,0.0,0.0,0.0,0.0,0.0,0.0,0.0,0.0,0.0,3.5587,0.0,0.0,0.0,0.0,0.0,0.0,0.0,0.0,0.0,0.0,0.0,0.0,0.0,0.0,0.0,0.0,0.0,0.0,0.0,0.0,0.0,0.0,0.0,0.0,0.0,0.0,0.0,0.0,0.0,0.0,0.0,0.0,0.0,0.0,0.0,0.0,0.0,0.0,0.0,0.0,0.0,0.0,0.0,0.0,0.0,0.0,0.0,0.0,0.0,0.0,0.0,0.0,0.0,0.0,0.0,0.0,0.0,0.0,0.0,3.6644,3.6942,3.6627,3.6665,3.7144,3.6762,3.642,0.0,0.0,0.0,0.0,0.0,0.0,0.0,0.0,0.0,0.0,0.0,0.0,0.0,0.0,0.0,0.0,0.0,0.0,0.0,0.0,0.0,0.0,0.0,0.0,0.0,0.0,0.0,0.0,0.0,0.0,0.0,0.0,0.0,0.0,0.0,0.0,0.0,0.0,0.0,0.0,0.0,0.0,0.0,0.0,0.0,0.0,0.0,0.0,0.0,0.0,0.0,0.0,0.0,0.0,0.0,0.0,0.0,0.0,0.0,0.0,0.0,0.0,0.0,0.0,0.0,0.0,0.0,0.0,0.0,0.0,0.0,0.0,0.0,0.0,0.0,0.0,0.0,0.0,0.0,0.0,0.0,0.0,0.0,0.0,0.0,0.0,0.0,0.0,0.0,0.0,0.0,0.0,0.0,0.0,0.0,0.0,0.0,0.0,0.0,0.0,0.0,0.0,0.0,0.0,0.0,0.0,0.0,3.6888,3.7233,3.7802,3.7376,3.7427,3.8057,3.7546,3.721,3.7105,0.0,0.0,0.0,0.0,0.0,0.0,0.0,0.0,0.0,0.0,0.0,0.0,0.0,0.0,0.0,0.0,0.0,0.0,0.0,0.0,0.0,0.0,0.0,0.0,0.0,0.0,0.0,0.0,0.0,0.0,0.0,0.0,0.0,0.0,0.0,0.0,0.0,0.0,3.3849,3.4724,0.0,0.0,0.0,0.0,0.0,0.0,0.0,0.0,3.6237,0.0,0.0,0.0,0.0,0.0,0.0,0.0,0.0,0.0,0.0,0.0,0.0,0.0,0.0,0.0,0.0,0.0,0.0,0.0,0.0,0.0,0.0,0.0,0.0,0.0,0.0,0.0,0.0,0.0,0.0,0.0,0.0,0.0,0.0,0.0,0.0,0.0,0.0,0.0,0.0,0.0,0.0,0.0,0.0,0.0,0.0,0.0,0.0,0.0,0.0,0.0,0.0,0.0,0.0,0.0,0.0,3.6809,3.7564,3.8018,3.814,3.8741,3.8861,3.8441,3.8475,3.8197,3.7557,0.0,0.0,0.0,0.0,0.0,0.0,0.0,0.0,0.0,0.0,0.0,0.0,0.0,0.0,0.0,0.0,0.0,0.0,0.0,0.0,0.0,0.0,0.0,0.0,0.0,0.0,0.0,0.0,0.0,0.0,0.0,0.0,0.0,0.0,0.0,0.0,0.0,0.0,0.0,3.546,3.6104,0.0,0.0,0.0,0.0,0.0,0.0,0.0,0.0,3.7588,0.0,0.0,0.0,0.0,0.0,0.0,0.0,0.0,0.0,0.0,0.0,0.0,0.0,0.0,0.0,0.0,0.0,0.0,0.0,0.0,0.0,0.0,0.0,0.0,0.0,0.0,0.0,0.0,0.0,0.0,0.0,0.0,0.0,0.0,0.0,0.0,0.0,0.0,0.0,0.0,0.0,0.0,0.0,0.0,0.0,0.0,0.0,0.0,0.0,0.0,0.0,0.0,0.0,0.0,0.0,3.7666,3.8131,3.8732,3.9509,3.9621,3.9526,3.9234,3.9024,3.8591,0.0,0.0,0.0,0.0,0.0,0.0,0.0,0.0,0.0,0.0,0.0,0.0,0.0,0.0,0.0,0.0,0.0,0.0,0.0,0.0,0.0,0.0,0.0,0.0,0.0,0.0,0.0,0.0,0.0,0.0,0.0,0.0,0.0,0.0,0.0,0.0,0.0,0.0,0.0,0.0,3.6479,3.696,3.747,0.0,0.0,0.0,0.0,0.0,0.0,3.8274,3.8163,0.0,0.0,0.0,0.0,0.0,0.0,0.0,0.0,0.0,0.0,0.0,0.0,0.0,0.0,0.0,0.0,0.0,0.0,0.0,0.0,0.0,0.0,0.0,0.0,0.0,0.0,0.0,0.0,0.0,0.0,0.0,0.0,0.0,0.0,0.0,0.0,0.0,0.0,0.0,0.0,0.0,0.0,0.0,0.0,0.0,0.0,0.0,0.0,0.0,0.0,0.0,0.0,0.0,0.0,0.0,3.8775,3.8962,3.9637,4.0808,4.0554,4.0253,4.0001,3.9543,3.8931,0.0,0.0,0.0,0.0,0.0,0.0,0.0,0.0,0.0,0.0,0.0,0.0,0.0,0.0,0.0,0.0,0.0,0.0,0.0,0.0,0.0,0.0,0.0,0.0,0.0,0.0,0.0,0.0,0.0,0.0,0.0,0.0,0.0,0.0,0.0,0.0,0.0,0.0,0.0,0.0,0.0,3.7811,3.8582,3.8699,0.0,0.0,0.0,0.0,3.8264,3.829,0.0,0.0,0.0,0.0,0.0,0.0,0.0,0.0,0.0,0.0,0.0,0.0,0.0,0.0,0.0,0.0,0.0,0.0,0.0,0.0,0.0,0.0,0.0,0.0,0.0,0.0,0.0,0.0,0.0,0.0,0.0,0.0,0.0,0.0,0.0,0.0,0.0,0.0,0.0,0.0,0.0,0.0,0.0,0.0,0.0,0.0,0.0,0.0,0.0,0.0,0.0,0.0,0.0,0.0,0.0,0.0,3.9852,4.0609,4.1059,4.1274,4.1908,4.1674,4.0392,4.0348,3.9702,0.0,0.0,0.0,0.0,0.0,0.0,0.0,0.0,0.0,0.0,0.0,0.0,0.0,0.0,0.0,0.0,0.0,0.0,0.0,0.0,0.0,0.0,0.0,0.0,0.0,0.0,0.0,0.0,0.0,0.0,0.0,0.0,0.0,0.0,0.0,0.0,0.0,0.0,0.0,0.0,0.0,3.8442,3.8673,3.8699,3.8692,0.0,0.0,3.8415,3.8462,3.8379,0.0,0.0,0.0,0.0,0.0,0.0,0.0,0.0,0.0,0.0,0.0,0.0,0.0,0.0,0.0,0.0,0.0,0.0,0.0,0.0,0.0,0.0,0.0,0.0,0.0,0.0,0.0,0.0,0.0,0.0,0.0,0.0,0.0,0.0,0.0,0.0,0.0,0.0,0.0,0.0,0.0,0.0,0.0,0.0,0.0,0.0,0.0,0.0,0.0,0.0,0.0,0.0,0.0,0.0,0.0,4.0488,4.09,4.1213,4.1571,4.2029,4.2509,4.2244,4.1161,4.0852,4.0259,0.0,0.0,0.0,0.0,0.0,0.0,0.0,0.0,0.0,0.0,0.0,0.0,0.0,0.0,0.0,0.0,0.0,0.0,0.0,0.0,0.0,0.0,0.0,0.0,0.0,0.0,0.0,0.0,0.0,0.0,0.0,0.0,0.0,0.0,0.0,0.0,0.0,0.0,0.0,0.0,0.0,0.0,3.8784,3.8788,0.0,0.0,0.0,3.8546,3.8454,0.0,0.0,0.0,0.0,0.0,0.0,0.0,0.0,0.0,0.0,0.0,0.0,0.0,0.0,0.0,0.0,0.0,0.0,0.0,0.0,0.0,0.0,0.0,0.0,0.0,0.0,0.0,0.0,0.0,0.0,0.0,0.0,0.0,0.0,0.0,0.0,0.0,0.0,0.0,0.0,0.0,0.0,0.0,0.0,0.0,0.0,0.0,0.0,0.0,0.0,0.0,0.0,0.0,0.0,0.0,0.0,0.0,4.1985,4.1901,4.2152,4.2729,4.29,4.2613,4.1842,4.1452,0.0,0.0,0.0,0.0,0.0,0.0,0.0,0.0,0.0,0.0,0.0,0.0,0.0,0.0,0.0,0.0,0.0,0.0,0.0,0.0,0.0,0.0,0.0,0.0,0.0,0.0,0.0,3.9101,0.0,0.0,0.0,0.0,0.0,0.0,0.0,0.0,0.0,0.0,0.0,0.0,0.0,0.0,3.868,3.8892,3.8874,3.8807,0.0,0.0,3.8689,3.8551,3.8541,3.8588,0.0,0.0,0.0,0.0,0.0,0.0,0.0,0.0,0.0,0.0,0.0,0.0,0.0,0.0,0.0,0.0,0.0,0.0,0.0,0.0,0.0,0.0,0.0,0.0,0.0,0.0,0.0,0.0,0.0,0.0,0.0,0.0,0.0,0.0,0.0,0.0,0.0,0.0,0.0,0.0,0.0,0.0,0.0,0.0,0.0,0.0,0.0,0.0,0.0,0.0,0.0,0.0,0.0,0.0,4.3032,4.3087,4.3096,4.3087,4.3169,4.316,4.2849,4.2189,4.2182,4.1544,0.0,0.0,0.0,0.0,0.0,0.0,0.0,0.0,0.0,0.0,0.0,0.0,0.0,0.0,0.0,0.0,0.0,0.0,0.0,0.0,0.0,0.0,0.0,0.0,0.0,0.0,0.0,0.0,0.0,0.0,0.0,0.0,0.0,0.0,0.0,0.0,0.0,0.0,0.0,0.0,0.0,3.8918,3.899,3.8947,3.8903,0.0,3.8837,3.8814,3.8848,3.8822,3.8818,3.8954,0.0,0.0,0.0,0.0,0.0,0.0,0.0,0.0,0.0,0.0,0.0,0.0,0.0,0.0,0.0,0.0,0.0,0.0,0.0,0.0,0.0,0.0,0.0,0.0,0.0,0.0,0.0,0.0,0.0,0.0,0.0,0.0,0.0,0.0,0.0,0.0,0.0,0.0,0.0,0.0,0.0,0.0,0.0,0.0,0.0,0.0,0.0,0.0,0.0,0.0,0.0,0.0,0.0,4.3323,4.3304,4.3242,4.3205,4.3205,4.3269,4.3194,4.2937,4.2537,4.2067,0.0,0.0,0.0,0.0,0.0,0.0,0.0,0.0,0.0,0.0,0.0,0.0,0.0,0.0,0.0,0.0,0.0,0.0,0.0,0.0,0.0,0.0,0.0,0.0,0.0,0.0,0.0,0.0,3.9101,3.9115,3.9156,0.0,0.0,0.0,0.0,0.0,0.0,0.0,0.0,0.0,0.0,3.9115,3.9237,3.9168,0.0,0.0,3.9043,3.8981,3.9028,3.8964,3.8968,3.9031,3.9115,0.0,0.0,0.0,0.0,0.0,0.0,0.0,0.0,0.0,0.0,0.0,0.0,0.0,0.0,0.0,0.0,0.0,0.0,0.0,0.0,0.0,0.0,0.0,0.0,0.0,0.0,0.0,0.0,0.0,0.0,0.0,0.0,0.0,0.0,0.0,0.0,0.0,0.0,0.0,0.0,0.0,0.0,0.0,0.0,0.0,0.0,0.0,0.0,0.0,0.0,0.0,0.0,4.3429,4.3429,4.3578,4.3661,4.3661,4.3732,4.3786,4.3768,4.3085,4.2608,0.0,0.0,0.0,0.0,0.0,0.0,0.0,0.0,0.0,0.0,0.0,0.0,0.0,0.0,0.0,0.0,0.0,0.0,0.0,0.0,0.0,0.0,0.0,0.0,0.0,0.0,0.0,0.0,3.9188,3.9209,3.9256,0.0,0.0,0.0,0.0,0.0,0.0,0.0,0.0,0.0,0.0,3.9382,3.9458,3.9389,3.9305,3.9304,3.9245,3.9219,3.9212,3.9183,3.9158,3.9232,0.0,0.0,0.0,0.0,0.0,0.0,0.0,0.0,0.0,0.0,0.0,0.0,0.0,0.0,0.0,0.0,0.0,0.0,0.0,0.0,0.0,0.0,0.0,0.0,0.0,0.0,0.0,4.1948,0.0,0.0,4.3114,0.0,0.0,0.0,0.0,0.0,0.0,0.0,0.0,0.0,0.0,0.0,0.0,0.0,0.0,0.0,0.0,0.0,0.0,0.0,0.0,0.0,0.0,4.3506,4.3524,4.4251,4.4654,4.4673,4.4681,4.4681,4.4654,4.3952,4.3222,4.2476,0.0,0.0,0.0,0.0,0.0,0.0,0.0,0.0,0.0,0.0,0.0,0.0,0.0,0.0,0.0,0.0,0.0,0.0,0.0,0.0,0.0,0.0,0.0,0.0,0.0,0.0,3.9485,3.9398,3.9423,0.0,0.0,0.0,0.0,0.0,0.0,0.0,0.0,0.0,3.9682,3.9699,3.9693,3.9675,3.9635,3.9569,3.9514,3.9502,3.9502,3.9483,3.9496,3.952,0.0,0.0,0.0,0.0,0.0,0.0,0.0,0.0,0.0,0.0,0.0,0.0,0.0,0.0,0.0,0.0,0.0,0.0,0.0,0.0,0.0,0.0,0.0,0.0,0.0,0.0,0.0,4.2558,4.2795,0.0,0.0,0.0,0.0,0.0,0.0,0.0,0.0,0.0,0.0,0.0,4.5076,4.5103,0.0,0.0,0.0,0.0,0.0,0.0,0.0,0.0,0.0,0.0,0.0,0.0,4.3754,4.4287,4.4571,4.4957,4.548,4.5498,4.5516,4.5489,4.5249,4.4779,4.4022,0.0,0.0,0.0,0.0,0.0,0.0,0.0,0.0,0.0,0.0,0.0,0.0,0.0,0.0,0.0,0.0,0.0,0.0,0.0,0.0,0.0,0.0,0.0,0.0,0.0,4.1067,0.0,0.0,0.0,0.0,0.0,0.0,0.0,0.0,0.0,0.0,3.9787,3.987,3.9892,3.9892,3.9892,3.9897,3.9837,3.9787,0.0,0.0,0.0,0.0,0.0,0.0,0.0,0.0,0.0,0.0,0.0,0.0,0.0,0.0,4.022,4.0143,4.0225,4.0293,4.0331,0.0,0.0,0.0,0.0,0.0,0.0,0.0,0.0,0.0,0.0,0.0,0.0,0.0,0.0,4.3366,4.3358,4.333,0.0,0.0,0.0,0.0,0.0,0.0,0.0,0.0,4.5167,4.5478,4.5974,4.6011,4.6037,4.6136,4.6161,4.5581,0.0,0.0,0.0,0.0,0.0,0.0,0.0,0.0,4.4255,4.4744,4.5304,4.5846,4.6287,4.6315,4.6315,4.6296,4.6049,4.5672,4.5201,4.3972,4.3355,0.0,0.0,0.0,0.0,0.0,0.0,0.0,0.0,0.0,0.0,0.0,0.0,0.0,0.0,0.0,0.0,0.0,0.0,0.0,0.0,0.0,0.0,0.0,4.1721,0.0,0.0,0.0,0.0,0.0,0.0,0.0,0.0,0.0,3.9941,4.0264,4.0531,4.0552,4.0819,4.1001,4.0962,0.0,0.0,0.0,0.0,0.0,0.0,0.0,4.0851,4.0907,4.0926,4.0938,4.0996,4.1113,4.1243,4.1352,0.0,0.0,4.0447,4.0633,4.0906,4.0918,4.1205,4.1468,4.1481,4.1303,4.1183,0.0,0.0,0.0,0.0,4.3822,0.0,0.0,0.0,4.3888,4.3848,0.0,4.3746,0.0,0.0,0.0,0.0,4.4672,4.4727,0.0,0.0,4.6074,4.6128,4.6192,4.6281,4.6287,4.6277,4.638,4.6402,4.6338,4.5524,0.0,0.0,0.0,0.0,0.0,0.0,4.498,4.4978,4.646,4.7243,4.715,4.714,4.714,4.7131,4.6351,4.5938,4.5902,4.5211,4.4902,4.5014,4.4303,0.0,0.0,0.0,0.0,0.0,0.0,0.0,0.0,0.0,0.0,0.0,0.0,0.0,0.0,0.0,0.0,0.0,0.0,0.0,0.0,4.2781,0.0,0.0,0.0,0.0,0.0,0.0,0.0,0.0,0.0,4.1213,4.0394,4.1002,4.1581,4.1632,0.0,0.0,0.0,0.0,4.28,4.2752,4.2804,4.2785,4.2785,4.2785,4.2766,4.2766,0.0,0.0,4.2868,4.2994,4.3076,4.3165,4.3121,4.2656,4.0954,4.1339,4.1858,4.1949,4.2598,4.3224,4.3239,4.2643,4.2231,4.5743,0.0,0.0,0.0,0.0,4.4492,4.4726,4.4763,4.5288,4.5467,4.5442,4.546,0.0,0.0,0.0,0.0,0.0,0.0,4.62,4.6965,4.701,4.7323,4.7895,4.7985,4.8083,4.8125,4.8183,4.8286,4.8342,4.7583,4.6829,4.6073,0.0,0.0,0.0,0.0,4.6163,4.664,4.7129,4.7637,4.8163,4.8117,4.806,4.7948,4.7177,4.6773,4.6746,4.6002,4.5634,4.5777,4.5088,0.0,0.0,0.0,0.0,0.0,0.0,0.0,0.0,0.0,0.0,0.0,0.0,0.0,0.0,0.0,0.0,0.0,0.0,0.0,4.4474,4.4272,4.3899,0.0,0.0,0.0,0.0,0.0,0.0,0.0,0.0,0.0,4.2244,4.2386,4.2516,0.0,0.0,4.2869,4.2879,4.2879,4.2889,4.295,4.2935,0.0,4.3022,4.3026,4.3007,4.3026,4.3013,4.3036,4.3115,4.315,4.3189,4.3257,4.3292,4.3152,4.2746,4.2718,4.2883,4.2969,4.3202,4.3369,4.3413,4.3249,4.3125,4.7365,4.6675,4.5675,4.5204,4.5191,4.5632,4.5786,4.5765,4.6217,4.638,4.6357,4.6365,4.6062,4.5584,4.5532,0.0,0.0,0.0,4.719,4.7975,4.8,4.8294,4.8748,4.8935,4.902,4.9071,4.9176,4.9292,4.9348,4.8945,4.8427,4.7744,0.0,4.6611,4.6544,4.6828,4.7163,4.7553,4.7887,4.8241,4.8678,4.8587,4.8485,4.8363,4.7913,4.7637,4.7562,4.681,4.6434,4.6552,4.55,4.4951,0.0,0.0,0.0,0.0,0.0,0.0,0.0,0.0,0.0,0.0,0.0,4.4433,4.4475,0.0,0.0,0.0,4.4852,4.4931,4.4967,4.4973,0.0,0.0,0.0,0.0,0.0,0.0,0.0,4.3378,4.3396,4.3579,4.4058,4.4045,4.3895,4.3583,4.3799,4.4006,4.4011,0.0,4.4019,4.4068,4.4108,4.4128,4.4156,4.4176,4.4184,4.4164,4.4198,4.4223,4.4262,4.4295,4.4343,4.4397,4.4447,4.4466,4.4472,4.444,4.4289,4.4033,4.4263,4.4522,4.4563,4.4334,4.4111,4.8852,4.8711,4.7676,4.7128,4.6926,4.6994,4.6922,4.6834,4.6891,4.69,4.681,4.6802,4.6744,4.6607,4.6479,0.0,4.744,4.7638,4.8108,4.8849,4.8968,4.9017,4.9061,4.9252,4.9332,4.9321,4.9521,4.9604,4.9611,4.9678,4.9714,4.9676,4.7998,4.7136,4.7155,4.7797,4.8077,4.7934,4.8634,4.894,4.8822,4.8687,4.8587,4.8513,4.8504,4.8457,4.8316,4.7609,4.7279,4.7362,4.587,4.5048,4.5068,0.0,0.0,0.0,0.0,0.0,0.0,0.0,0.0,0.0,0.0,0.0,0.0,0.0,0.0,0.0,4.5197,0.0,4.5316,4.5321,0.0,0.0,0.0,4.514,4.4399,4.4301,4.4375,4.4476,0.0,0.0,4.5708,4.5874,4.5646,4.4916,4.5333,4.5731,4.5804,4.5769,4.5831,4.5893,4.5951,4.6015,4.6007,4.5939,4.5785,4.5669,4.5893,4.5831,4.5798,4.5869,4.5989,4.5957,4.6085,4.6058,4.61,4.5982,4.5852,4.5053,4.5558,4.616,4.605,4.5554,4.5093,4.9791,4.9752,4.9479,4.8493,4.7177,4.7746,4.7946,4.7988,4.8502,4.8745,4.8729,4.8729,4.8353,4.7713,4.7634,4.7697,4.7878,4.8528,4.8943,4.9187,4.9209,4.9257,4.9302,4.9475,4.9529,4.9536,4.9645,4.9699,4.9757,4.9816,4.9878,4.9906,4.9487,4.9167,4.898,4.9138,4.916,4.9021,4.9145,4.9135,4.8959,4.8873,4.8795,4.8724,4.8633,4.855,4.8523,4.8338,4.8255,4.8264,4.7412,4.6661,4.6012,4.5335,0.0,0.0,0.0,0.0,0.0,0.0,0.0,0.0,0.0,4.4646,4.4751,0.0,4.5887,0.0,4.6696,4.7196,4.724,4.7282,0.0,0.0,4.7338,4.7272,4.7071,4.6518,4.6175,4.6212,4.6334,4.6515,4.6738,4.7354,4.7715,4.7565,4.6508,4.602,4.6642,4.6765,4.7007,4.7581,4.7752,4.7863,4.7773,4.7338,4.6715,4.6055,4.6003,4.6043,4.6051,4.6073,4.608,4.6089,4.6146,4.6183,4.6162,4.618,4.6129,4.5928,4.6063,4.6225,4.6248,4.6104,4.598,5.0157,5.0151,5.0132,4.9518,4.8526,4.8906,4.9027,4.9056,4.944,4.9622,4.9566,4.9555,4.9258,4.8776,4.873,4.8684,4.8652,4.9141,4.9406,4.9426,4.9464,4.9518,4.9593,4.9699,4.9757,4.9774,4.9836,4.991,4.9925,4.9953,5.0011,5.0044,5.005,4.9972,4.9823,4.9759,4.9681,4.9585,4.9461,4.9355,4.9182,4.911,4.8993,4.8839,4.8759,4.8696,4.8596,4.8578,4.8578,4.8559,4.7911,4.73,4.68,4.6126,4.5543,0.0,0.0,0.0,0.0,0.0,0.0,0.0,0.0,0.0,0.0,0.0,4.6953,4.7045,4.7559,4.7897,4.7947,4.7973,4.8013,4.8013,4.8033,4.8039,4.8049,4.7673,4.7428,4.7512,4.76,4.7695,4.7743,4.8141,4.8477,4.8534,4.7691,4.7204,4.76,4.7743,4.7924,4.8386,4.852,4.8555,4.859,4.7891,4.7184,4.6729,4.6353,4.613,4.616,4.6152,4.6146,4.6144,4.6175,4.6207,4.6202,4.6216,4.6245,4.625,4.6251,4.6251,4.6291,4.6296,4.6306,5.0273,5.0206,5.0206,5.0169,5.0107,5.007,5.0005,4.9932,4.9913,4.9891,4.9816,4.9771,4.9707,4.9648,4.9634,4.957,4.9457,4.9597,4.9641,4.9648,4.9714,4.9759,4.9848,4.9898,4.9946,5.0018,5.0076,5.0108,5.0114,5.0114,5.012,5.0126,5.0101,5.0126,5.012,5.0018,4.9912,4.9828,4.9699,4.957,4.9453,4.9368,4.9228,4.8968,4.895,4.8846,4.8678,4.8669,4.8669,4.865,4.8003,4.7577,4.7466,4.6869,4.6527,0.0,4.6597,0.0,0.0,0.0,0.0,0.0,0.0,0.0,0.0,4.7779,4.8086,4.8295,4.8344,4.833,4.833,4.834,4.834,4.8345,4.839,4.8419,4.8446,4.8409,4.8432,4.8562,4.8588,4.8621,4.8678,4.8771,4.8885,4.9037,4.9017,4.8956,4.8877,4.8779,4.8763,4.8893,4.8944,4.9136,4.8935,4.8304,4.7724,4.7427,4.6865,4.6326,4.6222,4.6206,4.6212,4.6205,4.621,4.6216,4.6209,4.626,4.6288,4.6294,4.6299,4.6299,4.629,4.629,4.6298,5.0296,5.0284,5.0284,5.0278,5.0242,5.0236,5.0176,5.007,5.0063,5.0057,5.0037,4.9959,4.9939,4.9925,4.9871,4.9843,4.9823,4.9836,4.9878,4.9925,4.9945,4.9978,5.0044,5.0057,5.007,5.0082,5.0076,5.0133,5.0188,5.0175,5.0219,5.0267,5.0261,5.0267,5.0261,0.0,0.0,0.0,4.9866,4.9809,4.9717,4.9611,4.9475,4.9321,4.9249,0.0,4.9096,4.9096,4.9088,4.9096,4.8938,0.0,0.0,0.0,0.0,0.0,0.0,0.0,0.0,0.0,0.0,0.0,4.8509,4.8335,4.7806,4.8463,4.9238,4.9944,5.0082,5.0108,5.0108,5.0153,5.0197,5.0202,5.0183,5.0211,5.0191,4.9738,4.9428,4.9442,4.9566,4.9623,4.9663,5.0277,5.0726,5.0687,5.0774,5.0782,5.0712,5.0101,4.9999,5.0607,5.0661,5.0479,4.9916,4.9646,4.8943,4.7914,4.7387,4.6979,4.6398,4.6203,4.6228,4.626,4.6289,4.6278,4.6268,4.6299,4.6304,4.6305,4.6288,4.6288,4.6301,4.63,4.6303,5.0296,5.0296,5.0296,5.0296,0.0,5.0296,5.0267,5.0201,5.0201,5.0169,5.0132,5.0082,5.005,5.005,5.0018,5.0005,5.0005,4.9986,5.0018,5.005,5.0057,5.0089,5.0139,5.0139,5.017,5.0201,5.0201,5.0225,5.0236,5.0261,5.0273,5.0296,5.0296,5.0296,5.0296,5.0296,5.0224,5.0095,5.0044,4.9965,4.9891,4.9814,4.9681,4.9555,4.948,0.0,0.0,0.0,0.0,0.0,0.0,0.0,0.0,4.8698,0.0,4.8157,4.8194,4.8303,4.8416,4.8528,4.8851,4.9435,4.9708,4.9658,4.9198,4.9615,5.0078,5.0545,5.0633,5.0643,5.0643,5.0692,5.0688,5.0688,5.0692,5.0734,5.0754,5.0502,5.0325,5.0377,5.0454,5.0517,5.0596,5.0966,5.1298,5.1344,5.1349,5.1333,5.132,5.0943,5.0848,5.1294,5.1349,5.1213,5.0798,5.0314,4.9886,4.8915,4.8097,4.7434,4.6966,4.6538,4.6269,4.6298,4.6301,4.6287,4.6303,4.6287,4.6289,4.6288,4.6306,4.6285,4.6268,4.6269,4.6289,5.0436,5.0296,5.0296,5.0296,5.0296,5.0296,5.0296,5.0296,5.0296,0.0,0.0,5.0164,5.0139,5.0139,5.0133,5.0139,5.0133,5.0139,5.0139,5.0139,5.012,5.017,5.0206,5.0225,5.0255,5.0296,5.0296,5.0296,5.0296,5.0296,5.0296,5.0296,5.0296,5.0296,5.0296,5.0296,5.0259,5.0225,5.0139,5.0076,5.0044,4.9978,4.9871,4.9724,4.9685,4.9585,4.9461,4.9453,4.9453,4.9453,4.9453,4.9453,4.9453,4.9461,4.9525,4.9619,4.9656,4.9738,4.9893,4.994,5.007,5.0331,5.05,5.0598,5.0598,5.0608,5.0658,5.0688,5.0688,5.0688,5.0688,5.0688,5.0693,5.0683,5.0706,5.0751,5.088,5.0925,5.0937,5.109,5.1089,5.1174,5.1261,5.1296,5.1349,5.1375,5.1401,5.1403,5.14,5.1331,5.1265,5.1375,5.138,5.1387,5.13,5.0853,5.031,4.9964,4.8777,4.7821,4.7511,4.6887,4.6365,4.6295,4.6293,4.6301,4.6289,4.6288,4.6286,4.6293,4.6288,4.6265,4.6241,4.6253,4.6261,5.099,5.0296,5.0296,5.0296,5.0296,5.0296,5.0296,5.0296,5.0296,5.029,5.0284,5.0278,5.0273,5.0273,5.0273,5.0253,5.0253,5.0253,5.0273,5.0273,5.0273,5.0278,5.0284,5.029,5.0296,5.0296,5.0296,5.0296,5.0296,5.0296,5.0296,5.0296,5.0296,5.0296,5.0296,5.0296,5.0296,5.0284,5.0231,5.0175,5.0163,5.0108,5.0011,4.9885,4.9864,4.9795,4.967,4.9644,4.9663,4.9663,4.9663,4.9644,4.9682,4.9702,4.9757,4.9778,4.9897,4.9965,4.9998,5.0139,5.0331,5.0527,5.0588,5.0598,5.0603,5.0648,5.0683,5.0688,5.0688,5.0688,5.0688,5.0688,5.0688,5.0706,5.0757,5.0823,5.0886,5.0992,5.1105,5.1181,5.1227,5.1294,5.1358,5.1379,5.1372,5.1385,5.1386,5.1388,5.1386,5.14,5.1394,5.1396,5.1384,5.139,5.1371,5.1333,5.0884,5.0202,4.9325,4.8411,4.7791,4.6994,4.6413,4.6305,4.6287,4.6289,4.6305,4.6296,4.6267,4.6233,4.6224,4.6217,4.6214,4.6201,4.6225,5.1366,5.0959,5.0458,5.0255,5.0249,5.0213,5.0194,5.0175,5.0218,5.0273,5.0296,5.0296,5.0296,5.0296,5.0296,5.0296,5.0296,5.0296,5.0296,5.0296,5.0296,5.0296,5.0296,5.0296,5.0296,5.0296,5.0296,5.0296,5.0296,5.0296,5.0296,5.0296,5.0296,5.0296,5.0296,5.0296,5.0296,5.0296,5.0253,5.0261,5.0261,5.0194,5.012,5.0063,5.0018,4.9985,4.9918,4.9912,4.9912,4.9931,4.9899,4.9912,4.9918,4.9945,4.9959,4.9959,5.0018,5.0057,5.0101,5.0302,5.0438,5.0551,5.0613,5.0648,5.0648,5.0673,5.0688,5.0688,5.0688,5.0688,5.0688,5.0688,5.0688,5.0692,5.0807,5.0877,5.0959,5.103,5.1139,5.122,5.128,5.1339,5.1383,5.1394,5.1402,5.1392,5.1394,5.1394,5.1394,5.139,5.1387,5.1387,5.1391,5.1393,5.1394,5.1394,5.1219,5.0827,5.0072,4.9217,4.8401,4.7547,4.6871,4.6405,4.6288,4.6303,4.6293,4.6275,4.6238,4.6209,4.6202,4.6213,4.6206,4.6203,4.6204,5.1915,5.1514,5.0785,5.036,5.0163,5.0126,5.0101,5.0108,5.0145,5.02,5.0255,5.0265,5.0296,5.0296,5.0296,5.0296,5.0296,5.0296,5.0296,5.0296,5.0296,5.0296,5.0296,5.0296,5.0296,5.0296,5.0296,5.0296,5.0296,5.0296,5.0296,5.0296,5.0296,5.0296,5.0296,5.0296,5.0296,5.0296,5.0296,5.0296,5.0296,5.0255,5.0212,5.0188,5.0139,5.012,5.0101,5.0101,5.0101,5.0101,5.0101,5.0101,5.0101,5.0114,5.0126,5.0126,5.0139,5.0176,5.0249,5.0401,5.0495,5.0521,5.0618,5.0697,5.0683,5.0683,5.0683,5.0683,5.0688,5.0693,5.0726,5.0726,5.0726,5.0742,5.0831,5.091,5.1007,5.1059,5.1175,5.1282,5.1308,5.1335,5.1387,5.14,5.1386,5.1392,5.1394,5.1394,5.1394,5.1394,5.1394,5.1394,5.1394,5.1394,5.1394,5.1394,5.1376,5.1397,5.0661,4.9751,4.8916,4.8122,4.7305,4.6542,4.6281,4.6267,4.6273,4.6232,4.621,4.6203,4.62,4.6214,4.6204,4.6197,4.6213,5.2883,5.1599,5.1364,5.0837,5.0127,5.0101,5.0095,5.0095,5.0108,5.0114,5.0133,5.0249,5.0296,5.0296,5.0296,5.0296,5.0296,5.0296,5.0296,5.0296,5.0296,5.0296,5.0296,5.0296,5.0296,5.0296,5.0296,5.0296,5.0296,5.0296,5.0296,5.0296,5.0296,5.0296,5.0296,5.0296,5.0296,5.0296,5.0296,5.0296,5.0296,5.0296,5.0267,5.0194,5.0188,5.0151,5.0114,5.0101,5.0101,5.0101,5.0108,5.0101,5.0108,5.0164,5.0188,5.0182,5.0255,5.0327,5.0359,5.0388,5.0462,5.0577,5.0603,5.0634,5.0697,5.0692,5.0692,5.0696,5.0696,5.0734,5.0779,5.0803,5.0834,5.0862,5.089,5.0936,5.1049,5.1147,5.122,5.129,5.1351,5.1397,5.1396,5.1387,5.1392,5.1393,5.1394,5.1394,5.1394,5.1394,5.1394,5.1394,5.1394,5.1394,5.1394,5.1394,5.1399,5.1328,5.0706,4.9893,4.9061,4.8203,4.7301,4.6529,4.6239,4.6223,4.6226,4.6204,4.62,4.6208,4.6203,4.6201,4.6196,4.6206,4.6202,5.3548,5.2824,5.1788,5.0822,5.003,4.9985,4.9985,4.9966,5.0024,5.0044,5.0057,5.0145,5.0182,5.0182,5.0225,5.0249,5.0249,5.0265,5.0296,5.0296,5.0296,5.0296,5.0296,5.0296,5.0296,5.0296,5.0296,5.0296,5.0296,5.0296,5.0296,5.0296,5.0296,5.0296,5.0296,5.0296,5.0296,5.0296,5.0296,5.0296,5.0296,5.0296,5.029,5.0273,5.0261,5.0255,5.0225,5.0219,5.0219,5.0219,5.0219,5.0219,5.0219,5.0249,5.0267,5.0267,5.0284,5.0314,5.0356,5.0384,5.044,5.0532,5.0575,5.0625,5.0692,5.077,5.0834,5.0831,5.0782,5.0807,5.0851,5.0855,5.0869,5.0948,5.1,5.1069,5.1158,5.1225,5.1282,5.1348,5.1376,5.1394,5.1386,5.1391,5.1394,5.1394,5.1394,5.1394,5.1394,5.1394,5.1394,5.1394,5.1394,5.1394,5.1395,5.14,5.1385,5.1332,5.1125,5.0507,4.9121,4.8645,4.7891,4.6528,4.6277,4.6202,4.621,4.6195,4.6206,4.6197,4.6197,4.6197,4.6197,4.6212,4.6212,5.4063,5.3619,5.1999,5.0882,5.0246,5.0,4.9893,4.9893,4.994,4.9978,4.9985,5.0031,5.005,5.0063,5.0126,5.0182,5.0188,5.0231,5.0249,5.0243,5.0249,5.0274,5.0273,5.0278,5.0284,5.0296,5.0296,5.0296,5.0296,5.0296,5.0296,5.0296,5.0296,5.0296,5.0296,5.0296,5.0296,5.0296,5.0296,5.0296,5.0296,5.0296,5.0296,5.0296,5.0296,5.0296,5.0296,5.0296,5.0296,5.0296,5.0296,5.0296,5.0296,5.0296,5.0296,5.0296,5.0296,5.0296,5.0296,5.0354,5.0429,5.05,5.0551,5.064,5.0757,5.0868,5.0937,5.0963,5.0894,5.0921,5.0929,5.0964,5.0983,5.1029,5.1092,5.1153,5.122,5.1274,5.1317,5.1376,5.1391,5.1402,5.1391,5.1394,5.1394,5.1394,5.1394,5.1394,5.1394,5.1394,5.1394,5.1394,5.1394,5.1394,5.1395,5.1383,5.1389,5.1398,5.1307,5.0722,4.9234,4.8865,4.8182,4.6682,4.6389,4.62,4.6196,4.6204,4.6199,4.6197,4.6197,4.6197,4.6197,4.6197,4.6197,5.4494,5.3606,5.1935,5.118,5.1066,5.0239,4.9905,4.9891,4.9893,4.9893,4.9912,4.9925,4.9899,4.9932,5.0031,5.012,5.0101,5.0095,5.012,5.0126,5.012,5.0151,5.0213,5.02,5.0224,5.029,5.029,5.0296,5.0296,5.0296,5.0296,5.0296,5.0296,5.0296,5.0296,5.0296,5.0296,5.0296,5.0296,5.0296,5.0296,5.0296,5.0296,5.0296,5.0296,5.0296,5.0296,5.0296,5.0296,5.0296,5.0296,5.0296,5.0296,5.0296,5.0296,5.0296,5.0296,5.0296,5.0308,5.0354,5.0435,5.0505,5.0581,5.0696,5.0868,5.0956,5.1034,5.1085,5.1088,5.1098,5.1075,5.1066,5.1092,5.109,5.1147,5.1223,5.1284,5.1298,5.1328,5.1386,5.1399,5.1385,5.1393,5.1394,5.1394,5.1394,5.1394,5.1394,5.1394,5.1394,5.1394,5.1394,5.1394,5.1394,5.1395,5.1385,5.1396,5.1384,5.125,5.0874,4.9706,4.8608,4.7673,4.6875,4.645,4.6224,4.6201,4.6199,4.6197,4.6197,4.6197,4.6197,4.6197,4.6197,4.6197,5.439,5.3512,5.2373,5.1572,5.0917,5.0118,4.9785,4.9785,4.9809,4.9848,4.9836,4.9885,4.9893,4.9893,4.9959,5.0005,5.0044,5.0082,5.0101,5.0101,5.0101,5.0114,5.012,5.0145,5.0163,5.0218,5.0224,5.0267,5.0296,5.0296,5.0296,5.0296,5.0296,5.0296,5.0296,5.0296,5.0296,5.0296,5.0296,5.0296,5.0296,5.0296,5.0296,5.0296,5.0296,5.0296,5.0296,5.0296,5.0296,5.0296,5.0296,5.0296,5.0296,5.0296,5.0296,5.0296,5.0296,5.0296,5.0308,5.0354,5.0451,5.0553,5.0669,5.0806,5.0933,5.1016,5.1098,5.1156,5.1212,5.124,5.1237,5.1189,5.115,5.1161,5.122,5.1254,5.13,5.1333,5.1362,5.1395,5.1385,5.139,5.1392,5.1394,5.1394,5.1394,5.1394,5.1394,5.1394,5.1394,5.1394,5.1394,5.1394,5.1397,5.1385,5.1391,5.1399,5.1386,5.1248,5.0846,4.9963,4.9139,4.8256,4.729,4.6708,4.6297,4.6297,4.6199,4.6197,4.6197,4.6197,4.6197,4.6197,4.6197,4.6197,5.4431,5.3788,5.3002,5.2141,5.1251,5.0439,4.9937,4.9737,4.975,4.9771,4.9778,4.9828,4.9836,4.9811,4.9836,4.9838,4.9912,4.9979,5.0044,5.0037,5.0037,5.0031,5.007,5.007,5.0108,5.0176,5.0182,5.0224,5.0296,5.0296,5.0296,5.0296,5.0296,5.0296,5.0296,5.0296,5.0296,5.0296,5.0296,5.0296,5.0296,5.0296,5.0296,5.0296,5.0296,5.0296,5.0296,5.0296,5.0296,5.0296,5.0296,5.0296,5.0296,5.0296,5.0296,5.0296,5.0296,5.0308,5.0356,5.0424,5.0505,5.0609,5.0748,5.0889,5.0977,5.1082,5.1164,5.1223,5.1278,5.13,5.1328,5.1302,5.1258,5.125,5.1298,5.1321,5.133,5.1361,5.1378,5.1384,5.1389,5.1393,5.1394,5.1394,5.1394,5.1394,5.1394,5.1394,5.1394,5.1394,5.1394,5.1394,5.1394,5.1401,5.1391,5.1398,5.1384,5.1387,5.1377,5.0948,5.0401,4.9611,4.8807,4.782,4.7094,4.6626,4.6334,4.6236,4.6197,4.6197,4.6197,4.6197,4.6197,4.6197,4.6197,5.4689,5.4492,5.3756,5.2892,5.2095,5.1145,5.0413,4.9847,4.9704,4.9699,4.9681,4.9707,4.9721,4.9707,4.9728,4.9714,4.975,4.985,4.9912,4.9918,4.9906,4.9933,5.0005,5.0005,5.0056,5.0101,5.0157,5.0218,5.0284,5.029,5.029,5.0296,5.0296,5.0296,5.0296,5.0296,5.0296,5.0296,5.0296,5.0296,5.0296,5.0296,5.0296,5.0296,5.0296,5.0296,5.0296,5.0296,5.0296,5.0296,5.0296,5.0296,5.0296,5.0296,5.0296,5.0302,5.0302,5.035,5.0407,5.0516,5.058,5.0659,5.0784,5.0921,5.1033,5.1125,5.1225,5.1286,5.1317,5.1336,5.1388,5.139,5.1361,5.1317,5.1361,5.1397,5.1391,5.1397,5.1402,5.139,5.1394,5.1394,5.1394,5.1394,5.1394,5.1394,5.1394,5.1394,5.1394,5.1394,5.1394,5.1394,5.1395,5.1401,5.1395,5.1383,5.1386,5.1385,5.1368,5.1163,5.0642,4.9972,4.9308,4.8417,4.756,4.7055,4.6628,4.649,4.6236,4.6197,4.6197,4.6217,4.6197,4.6197,4.6197,5.463,5.4479,5.368,5.3177,5.2696,5.139,5.059,5.0315,4.9872,4.9619,4.9634,4.9678,4.9718,4.9711,4.9718,4.9711,4.9718,4.975,4.9792,4.9823,4.9878,4.9899,4.992,4.992,4.9953,5.0037,5.0082,5.0176,5.0212,5.0224,5.0255,5.029,5.0296,5.0296,5.0296,5.0296,5.0296,5.0296,5.0296,5.0296,5.0296,5.0296,5.0296,5.0296,5.0296,5.0296,5.0296,5.0296,5.0296,5.0296,5.0296,5.0296,5.0296,5.0296,5.0296,5.0302,5.0361,5.0407,5.0454,5.0559,5.064,5.0739,5.0871,5.1007,5.1119,5.1207,5.1289,5.1316,5.1338,5.1394,5.1389,5.1399,5.1392,5.137,5.1382,5.1392,5.1399,5.1385,5.139,5.1393,5.1394,5.1394,5.1394,5.1394,5.1394,5.1394,5.1394,5.1394,5.1394,5.1394,5.1394,5.1394,5.1396,5.1402,5.1396,5.1384,5.1387,5.1402,5.1382,5.1373,5.0886,5.0452,4.979,4.906,4.8202,4.7579,4.7133,4.6743,4.649,4.6275,4.6256,4.6236,4.6217,4.6197,4.6197,5.4518,5.4407,5.3929,5.3509,5.3111,5.2022,5.1244,5.0715,5.0217,4.9845,4.9627,4.96,4.963,4.9623,4.963,4.9623,4.963,4.9641,4.9697,4.9736,4.9816,4.9857,4.9871,4.9898,4.9939,5.0005,5.0025,5.0101,5.017,5.0201,5.0212,5.0261,5.0284,5.0296,5.0296,5.0296,5.0296,5.0296,5.0296,5.0296,5.0296,5.0296,5.0296,5.0296,5.0296,5.0296,5.0296,5.0296,5.0296,5.0302,5.0319,5.035,5.0331,5.0354,5.0371,5.0401,5.0446,5.05,5.053,5.063,5.0713,5.0847,5.0969,5.1088,5.1186,5.1261,5.1308,5.1307,5.134,5.1357,5.1394,5.1384,5.1402,5.1394,5.1399,5.1385,5.1386,5.139,5.1393,5.1394,5.1394,5.1394,5.1394,5.1394,5.1394,5.1394,5.1394,5.1394,5.1394,5.1394,5.1394,5.1394,5.1394,5.1385,5.1397,5.1385,5.1386,5.1398,5.1396,5.1394,5.1178,5.0897,5.0404,4.9644,4.8826,4.836,4.7912,4.725,4.686,4.6646,4.6509,4.6236,4.6197,4.6197,4.6197,5.4342,5.4409,5.4409,5.3967,5.3347,5.3122,5.2258,5.1037,5.0688,5.0257,4.9742,4.9543,4.9524,4.9516,4.9521,4.9521,4.9505,4.9563,4.9593,4.9619,4.9714,4.9792,4.9821,4.9857,4.9925,4.9966,4.9998,5.0037,5.0101,5.0145,5.0207,5.0225,5.0273,5.0296,5.0296,5.0296,5.0296,5.0296,5.0296,5.0296,5.0296,5.0296,5.0296,5.0296,5.0296,5.0302,5.0314,5.0331,5.0325,5.0314,5.0359,5.0418,5.0404,5.0473,5.05,5.0492,5.0563,5.06,5.0635,5.0741,5.0843,5.0929,5.1024,5.1139,5.1197,5.1264,5.1306,5.1301,5.1312,5.1327,5.1389,5.1399,5.1402,5.1392,5.1392,5.1392,5.1393,5.1394,5.1394,5.1394,5.1394,5.1394,5.1394,5.1394,5.1394,5.1394,5.1394,5.1394,5.1394,5.1394,5.1394,5.1394,5.1394,5.1385,5.1396,5.1385,5.1386,5.1398,5.1396,5.1391,5.139,5.1167,5.1008,5.0248,4.9566,4.912,4.8652,4.8048,4.7659,4.7542,4.7172,4.6529,4.6295,4.6392,4.6217,5.4342,5.4409,5.4409,5.4277,5.3996,5.3478,5.298,5.2379,5.1214,5.0662,5.0267,4.9734,4.9527,4.9509,4.9509,4.9509,4.9498,4.9513,4.9528,4.9525,4.9608,4.9726,4.9785,4.9828,4.9864,4.9906,4.9939,4.9965,5.0031,5.0076,5.0158,5.0194,5.0267,5.0296,5.0296,5.0296,5.0296,5.0296,5.0296,5.0296,5.0296,5.0296,5.0296,5.0296,5.0302,5.0325,5.0384,5.0468,5.0468,5.039,5.0421,5.0495,5.0532,5.0577,5.0589,5.0591,5.0635,5.0696,5.0758,5.083,5.0913,5.1026,5.1069,5.1125,5.1196,5.1271,5.1302,5.1306,5.1301,5.134,5.1379,5.1392,5.1402,5.1392,5.1394,5.1394,5.1394,5.1394,5.1394,5.1394,5.1394,5.1394,5.1394,5.1394,5.1394,5.1394,5.1394,5.1394,5.1394,5.1394,5.1394,5.1394,5.1396,5.1387,5.1397,5.1385,5.1386,5.1398,5.1397,5.1403,5.1364,5.1284,5.1189,5.0909,5.0268,4.9761,4.943,4.9003,4.8768,4.8436,4.7815,4.7191,4.6899,4.6821,4.6392,5.4288,5.4409,5.4409,5.4409,5.4352,5.3892,5.3516,5.3074,5.222,5.13,5.0718,5.023,4.9809,4.9527,4.9509,4.9509,4.9509,4.9509,4.949,4.9498,4.9532,4.9638,4.9728,4.9785,4.9809,4.9857,4.9891,4.9932,4.9972,5.0012,5.0095,5.0145,5.0231,5.0253,5.0296,5.0296,5.0296,5.0296,5.0296,5.0296,5.0296,5.0296,5.0296,5.0302,5.0319,5.039,5.0478,5.0549,5.0554,5.0521,5.0539,5.06,5.0644,5.0673,5.0688,5.072,5.076,5.0801,5.0867,5.0944,5.1009,5.1092,5.1116,5.1164,5.1203,5.1256,5.1297,5.1298,5.1292,5.1331,5.1373,5.1394,5.1387,5.1393,5.1394,5.1394,5.1394,5.1394,5.1394,5.1394,5.1394,5.1394,5.1394,5.1394,5.1394,5.1394,5.1394,5.1394,5.1394,5.1394,5.1394,5.1395,5.1398,5.1388,5.1398,5.1386,5.1385,5.1395,5.1393,5.1397,5.1354,5.1317,5.1289,5.1143,5.0774,5.0463,5.017,4.9859,4.9508,4.906,4.8458,4.7932,4.7581,4.7133,4.6704,5.4225,5.4409,5.4409,5.4409,5.4409,5.439,5.3985,5.3422,5.3122,5.2322,5.1263,5.0906,5.0418,4.964,4.9779,4.9602,4.9509,4.9509,4.9509,4.949,4.9513,4.9555,4.9667,4.974,4.9778,4.9821,4.9845,4.9898,4.9932,4.9959,5.0012,5.0082,5.0157,5.0237,5.0278,5.029,5.0296,5.0296,5.0296,5.0296,5.0296,5.0296,5.0308,5.0331,5.041,5.0481,5.057,5.0625,5.0649,5.0663,5.0692,5.0734,5.0733,5.0782,5.084,5.0897,5.0909,5.0948,5.0997,5.1053,5.1095,5.1114,5.1181,5.1202,5.1208,5.1256,5.1297,5.1298,5.1298,5.1321,5.1372,5.1399,5.1391,5.1394,5.1394,5.1394,5.1394,5.1394,5.1394,5.1394,5.1394,5.1394,5.1394,5.1394,5.1394,5.1394,5.1394,5.1394,5.1396,5.1398,5.1398,5.1399,5.1383,5.1388,5.1399,5.1386,5.1384,5.1391,5.1385,5.1388,5.134,5.1304,5.1302,5.1164,5.0969,5.095,5.0969,5.0638,5.0209,4.9878,4.9412,4.873,4.8068,4.7561,4.7094,5.4225,5.4409,5.4409,5.4409,5.4409,5.4409,5.4296,5.4079,5.346,5.2998,5.254,5.1949,5.1206,5.0429,5.0418,5.0128,4.9602,4.9546,4.9509,4.9509,4.9509,4.9505,4.9567,4.9615,4.9711,4.9771,4.9795,4.9843,4.9886,4.994,4.9992,5.0025,5.0126,5.02,5.0237,5.0278,5.0296,5.0296,5.0296,5.0296,5.0302,5.0308,5.035,5.0401,5.0493,5.0601,5.0678,5.0767,5.0858,5.0889,5.0888,5.0869,5.0913,5.0937,5.0979,5.1005,5.1043,5.1048,5.1089,5.1089,5.1127,5.1152,5.1186,5.1205,5.1208,5.1254,5.1297,5.1294,5.13,5.1319,5.1373,5.14,5.1392,5.1394,5.1394,5.1394,5.1394,5.1394,5.1394,5.1394,5.1394,5.1394,5.1394,5.1394,5.1394,5.1394,5.1394,5.1394,5.1397,5.1402,5.1384,5.1385,5.1389,5.1395,5.1384,5.1386,5.1399,5.1403,5.1395,5.1364,5.1316,5.13,5.13,5.13,5.1261,5.1298,5.1279,5.124,5.0794,5.0579,5.0326,4.9683,4.9001,4.8302,4.7659,5.4207,5.4409,5.4409,5.4409,5.4409,5.4409,5.4409,5.4334,5.3967,5.3535,5.3167,5.2671,5.2043,5.13,5.1236,5.0823,5.0109,4.9659,4.9509,4.9509,4.9509,4.9509,4.9498,4.9544,4.9608,4.9718,4.9797,4.9828,4.9857,4.9925,4.9972,4.9992,5.0089,5.0176,5.0219,5.0267,5.0296,5.0296,5.0296,5.0296,5.0302,5.0331,5.0391,5.0483,5.0586,5.0682,5.078,5.0882,5.0978,5.1015,5.1004,5.1005,5.1043,5.103,5.1051,5.1079,5.1085,5.1121,5.1146,5.1159,5.1165,5.1199,5.1211,5.1202,5.1208,5.1254,5.1297,5.1296,5.1312,5.131,5.1383,5.1402,5.1393,5.1394,5.1394,5.1394,5.1394,5.1394,5.1394,5.1394,5.1394,5.1394,5.1394,5.1394,5.1394,5.1394,5.1394,5.1395,5.1384,5.1387,5.1391,5.1393,5.1396,5.1401,5.1386,5.1384,5.1389,5.1389,5.1386,5.1358,5.131,5.1302,5.13,5.13,5.13,5.13,5.1298,5.13,5.13,5.1067,5.0755,5.0443,4.9995,4.9255,4.867,5.4262,5.4409,5.4409,5.4409,5.4409,5.4409,5.4409,5.4409,5.4409,5.4004,5.3478,5.3385,5.2888,5.225,5.21,5.163,5.086,5.0109,4.9828,4.9817,4.9584,4.9527,4.9498,4.9505,4.9517,4.9582,4.9714,4.9778,4.9828,4.9864,4.9939,4.9992,5.0031,5.012,5.0194,5.0236,5.0271,5.0296,5.0296,5.0308,5.0319,5.0365,5.0451,5.0586,5.0691,5.0784,5.0898,5.0966,5.1055,5.1118,5.1124,5.1124,5.1124,5.1095,5.1105,5.1101,5.1101,5.1153,5.1187,5.1196,5.1199,5.1202,5.122,5.1205,5.1211,5.1239,5.1282,5.1302,5.1301,5.1348,5.1395,5.1388,5.1393,5.1394,5.1394,5.1394,5.1394,5.1394,5.1394,5.1394,5.1394,5.1394,5.1394,5.1394,5.1394,5.1394,5.1394,5.1398,5.1386,5.1392,5.1395,5.1401,5.1383,5.1386,5.1385,5.1399,5.1399,5.14,5.1396,5.1356,5.1312,5.1302,5.13,5.13,5.13,5.13,5.13,5.13,5.13,5.13,5.1183,5.0872,5.0521,5.0151,4.9605,5.4314,5.4409,5.4409,5.4409,5.4409,5.4409,5.4409,5.4409,5.4409,5.4352,5.4202,5.4183,5.3685,5.314,5.2998,5.2502,5.1686,5.0917,5.0455,5.0305,4.9922,4.9602,4.9509,4.9509,4.9505,4.9551,4.966,4.9743,4.98,4.9864,4.9905,4.992,4.9979,5.0044,5.0133,5.0188,5.0242,5.0296,5.0308,5.0325,5.0379,5.0435,5.0523,5.0673,5.0789,5.0906,5.0984,5.1056,5.1118,5.1171,5.1174,5.119,5.1178,5.1178,5.1181,5.1187,5.1168,5.1193,5.1199,5.1199,5.1199,5.1211,5.1211,5.122,5.1218,5.125,5.1292,5.131,5.1335,5.1379,5.1396,5.1389,5.1393,5.1394,5.1394,5.1394,5.1394,5.1394,5.1394,5.1394,5.1394,5.1394,5.1394,5.1394,5.1394,5.1394,5.1394,5.1401,5.139,5.1396,5.14,5.1385,5.1387,5.1384,5.1396,5.1388,5.1391,5.1395,5.1394,5.1359,5.1319,5.1304,5.13,5.13,5.13,5.13,5.13,5.13,5.13,5.13,5.1279,5.124,5.0928,5.0558,5.0266,5.4342,5.4409,5.4409,5.4409,5.4409,5.4409,5.4409,5.4409,5.4409,5.4409,5.4409,5.439,5.4192,5.3892,5.3835,5.3366,5.2558,5.1705,5.1131,5.0699,5.0305,4.9847,4.9565,4.9509,4.9509,4.9536,4.963,4.9707,4.975,4.9828,4.9871,4.9918,4.9972,5.0018,5.0101,5.0176,5.0243,5.029,5.0331,5.0359,5.041,5.0486,5.0645,5.0771,5.0887,5.0972,5.1043,5.1121,5.1165,5.1177,5.1199,5.1199,5.1199,5.1199,5.1199,5.1199,5.1199,5.1199,5.1199,5.1199,5.1199,5.1208,5.1216,5.1206,5.1223,5.1252,5.1306,5.1349,5.1359,5.1385,5.1385,5.1391,5.1393,5.1394,5.1394,5.1394,5.1394,5.1394,5.1394,5.1394,5.1394,5.1394,5.1394,5.1394,5.1394,5.1394,5.1394,5.1403,5.1392,5.1397,5.1401,5.1387,5.1385,5.14,5.139,5.1402,5.139,5.1394,5.1396,5.1361,5.1325,5.131,5.1302,5.13,5.13,5.13,5.13,5.13,5.13,5.13,5.1279,5.1259,5.1182,5.0987,5.0675,5.4359,5.4409,5.4409,5.4409,5.4409,5.4409,5.4409,5.4409,5.4409,5.4409,5.4409,5.4409,5.4409,5.439,5.4296,5.3996,5.3366,5.255,5.1882,5.1357,5.0793,5.0305,4.9884,4.9546,4.9505,4.9551,4.9608,4.9678,4.9721,4.9807,4.9857,4.9925,4.9966,5.0031,5.0126,5.0207,5.0261,5.0319,5.0376,5.0429,5.0502,5.064,5.078,5.0914,5.0976,5.105,5.1105,5.1165,5.1196,5.1199,5.1199,5.1199,5.1199,5.1199,5.1199,5.1199,5.1199,5.1199,5.1199,5.1199,5.1199,5.1202,5.1216,5.1203,5.1223,5.1274,5.1335,5.1387,5.1396,5.1387,5.1388,5.1394,5.1394,5.1394,5.1394,5.1394,5.1394,5.1394,5.1394,5.1394,5.1394,5.1394,5.1394,5.1394,5.1394,5.1394,5.1394,5.1401,5.1391,5.1396,5.1402,5.1386,5.14,5.1394,5.1385,5.14,5.139,5.1397,5.1401,5.1385,5.133,5.1294,5.1306,5.13,5.13,5.13,5.13,5.13,5.13,5.13,5.13,5.1279,5.124,5.122,5.1065,5.4382,5.4409,5.4409,5.4409,5.4409,5.4409,5.4409,5.4409,5.4409,5.4409,5.4409,5.4409,5.4409,5.4409,5.4409,5.4334,5.3996,5.3441,5.2878,5.2454,5.1515,5.0812,5.0399,4.9779,4.9638,4.9608,4.9615,4.9641,4.9709,4.983,4.9918,4.9978,4.9999,5.005,5.0194,5.0255,5.0319,5.0376,5.0443,5.0549,5.0664,5.0804,5.0894,5.0992,5.1066,5.1121,5.1168,5.1196,5.1199,5.1199,5.1199,5.1199,5.1199,5.1199,5.1199,5.1199,5.1199,5.1199,5.1199,5.1199,5.1199,5.1211,5.1216,5.1203,5.123,5.1256,5.1317,5.1391,5.1394,5.1387,5.1387,5.1393,5.1394,5.1394,5.1394,5.1394,5.1394,5.1394,5.1394,5.1394,5.1394,5.1394,5.1394,5.1394,5.1394,5.1394,5.1396,5.1403,5.1391,5.1398,5.1385,5.1385,5.1395,5.1386,5.1403,5.1397,5.1391,5.1401,5.1386,5.139,5.1356,5.1321,5.1304,5.13,5.13,5.13,5.13,5.13,5.13,5.13,5.13,5.13,5.1298,5.13,5.13,5.4409,5.4409,5.4409,5.4409,5.4409,5.4409,5.4409,5.4409,5.4409,5.4409,5.4409,5.4409,5.4409,5.4409,5.4409,5.4409,5.4315,5.4023,5.3591,5.3261,5.2387,5.159,5.079,5.0371,5.0142,4.9724,4.9678,4.9771,4.9816,4.9878,4.9945,5.0018,5.007,5.017,5.0273,5.0319,5.0418,5.0516,5.061,5.0706,5.0816,5.0898,5.0995,5.1069,5.1105,5.1165,5.1196,5.1199,5.1199,5.1199,5.1199,5.1199,5.1199,5.1199,5.1199,5.1199,5.1199,5.1199,5.1199,5.1199,5.1199,5.1214,5.1216,5.1201,5.1245,5.1288,5.1292,5.132,5.137,5.1386,5.1402,5.1391,5.1393,5.1394,5.1394,5.1394,5.1394,5.1394,5.1394,5.1394,5.1394,5.1394,5.1394,5.1394,5.1394,5.1394,5.1396,5.1401,5.1395,5.1384,5.1387,5.1401,5.1391,5.1399,5.1397,5.1394,5.1393,5.1384,5.1385,5.1391,5.1362,5.1349,5.131,5.13,5.13,5.13,5.13,5.13,5.13,5.13,5.13,5.13,5.13,5.13,5.13,5.4409,5.4409,5.4409,5.4409,5.4409,5.4409,5.4409,5.4409,5.4409,5.4409,5.4409,5.4409,5.4409,5.4409,5.4417,5.4426,5.4432,5.4424,5.4111,5.3695,5.3233,5.25,5.1696,5.1189,5.0519,4.9953,4.9842,4.9897,4.9946,5.0005,5.0044,5.0089,5.0182,5.0284,5.0384,5.0443,5.0528,5.0693,5.0766,5.0841,5.091,5.0976,5.1047,5.1105,5.1168,5.1199,5.1199,5.1199,5.1199,5.1199,5.1199,5.1199,5.1199,5.1199,5.1199,5.1199,5.1199,5.1199,5.1199,5.1199,5.1199,5.122,5.1219,5.1208,5.1288,5.13,5.131,5.1292,5.1367,5.1401,5.1396,5.1388,5.1393,5.1394,5.1394,5.1394,5.1394,5.1394,5.1394,5.1394,5.1394,5.1394,5.1394,5.1394,5.1394,5.1394,5.1397,5.1401,5.1397,5.1386,5.1385,5.1397,5.1385,5.139,5.1384,5.1385,5.1386,5.1383,5.1385,5.137,5.1359,5.1325,5.1304,5.13,5.13,5.13,5.13,5.13,5.13,5.13,5.13,5.13,5.13,5.13,5.13,5.4409,5.4409,5.4409,5.4409,5.4409,5.4409,5.4409,5.4409,5.4409,5.4409,5.4409,5.4409,5.4409,5.4417,5.4426,5.4441,5.4497,5.4497,5.4452,5.4237,5.3816,5.3329,5.2616,5.1835,5.1049,5.0783,5.043,5.0183,5.0145,5.0206,5.0255,5.029,5.0312,5.0416,5.0518,5.0591,5.0706,5.0829,5.0893,5.0933,5.0999,5.105,5.1124,5.1187,5.1196,5.1199,5.1199,5.1199,5.1199,5.1199,5.1199,5.1199,5.1199,5.1199,5.1199,5.1199,5.1199,5.1199,5.1199,5.1199,5.1202,5.122,5.1216,5.123,5.1288,5.1298,5.131,5.1307,5.1361,5.1397,5.1394,5.1387,5.1391,5.1394,5.1394,5.1394,5.1394,5.1394,5.1394,5.1394,5.1394,5.1394,5.1394,5.1394,5.1394,5.1394,5.14,5.1385,5.1399,5.1386,5.1384,5.1393,5.1395,5.1399,5.1383,5.1383,5.139,5.1368,5.1354,5.1343,5.1315,5.1298,5.13,5.13,5.13,5.13,5.13,5.13,5.13,5.13,5.13,5.13,5.13,5.13,5.13,5.4409,5.4409,5.4409,5.4409,5.4409,5.4409,5.4409,5.4409,5.4409,5.4409,5.4409,5.4409,5.4409,5.4426,5.4458,5.4491,5.4513,5.459,5.4662,5.4672,5.4393,5.3989,5.3422,5.2901,5.225,5.1466,5.095,5.0564,5.028,5.0472,5.0446,5.0458,5.048,5.0556,5.0649,5.0747,5.0861,5.0929,5.0997,5.1033,5.1069,5.1124,5.1168,5.1199,5.1199,5.1199,5.1199,5.1199,5.1199,5.1199,5.1199,5.1199,5.1199,5.1199,5.1199,5.1199,5.1199,5.1199,5.1199,5.1202,5.1211,5.1217,5.1207,5.1225,5.13,5.1292,5.13,5.1316,5.1331,5.1372,5.1403,5.1396,5.1386,5.1391,5.1394,5.1395,5.1396,5.1397,5.1398,5.1401,5.1397,5.1394,5.1394,5.1394,5.1394,5.1394,5.1402,5.1391,5.1402,5.1387,5.1401,5.1386,5.1386,5.1389,5.1372,5.1391,5.1394,5.1367,5.132,5.1314,5.1305,5.1294,5.13,5.13,5.13,5.13,5.13,5.13,5.13,5.13,5.13,5.13,5.13,5.13,5.13,5.4409,5.4409,5.4409,5.4409,5.4409,5.4409,5.4409,5.4409,5.4409,5.4409,5.4409,5.4409,5.4407,5.4441,5.4472,5.4573,5.4622,5.4702,5.4799,5.483,5.4783,5.4555,5.4228,5.3765,5.3192,5.2272,5.1865,5.1585,5.0911,5.0916,5.0841,5.076,5.0701,5.0724,5.0782,5.0893,5.0998,5.1029,5.1063,5.1105,5.113,5.1168,5.1199,5.1199,5.1199,5.1199,5.1199,5.1199,5.1199,5.1199,5.1199,5.1199,5.1199,5.1199,5.1199,5.1199,5.1199,5.1199,5.1199,5.1202,5.1217,5.1206,5.1202,5.1235,5.1284,5.1304,5.131,5.1304,5.1325,5.1343,5.1396,5.1394,5.1386,5.1393,5.1401,5.1402,5.1384,5.1385,5.1385,5.1387,5.1385,5.1385,5.1386,5.1387,5.1385,5.1386,5.1389,5.1397,5.1386,5.1386,5.1395,5.1378,5.1374,5.1358,5.1362,5.1356,5.1351,5.1348,5.1321,5.1301,5.1294,5.1304,5.13,5.13,5.13,5.13,5.13,5.13,5.13,5.13,5.13,5.13,5.13,5.13,5.13,5.4409,5.4409,5.4409,5.4409,5.4409,5.4409,5.4409,5.4409,5.4409,5.4409,5.4409,5.4417,5.4441,5.4489,5.453,5.4638,5.4775,5.4867,5.4946,5.5014,5.5107,5.5119,5.4911,5.4499,5.4097,5.3959,5.3353,5.2587,5.1864,5.1905,5.1605,5.1089,5.0951,5.0888,5.0898,5.1016,5.1095,5.1089,5.1098,5.1133,5.1171,5.1177,5.1199,5.1199,5.1199,5.1199,5.1199,5.1199,5.1199,5.1199,5.1199,5.1199,5.1199,5.1199,5.1199,5.1199,5.1199,5.1199,5.1199,5.1199,5.1217,5.1203,5.1214,5.1223,5.1278,5.1293,5.1306,5.1308,5.1331,5.137,5.1385,5.1399,5.1389,5.14,5.1386,5.1391,5.1392,5.1394,5.1395,5.1397,5.1398,5.1398,5.1398,5.1398,5.1396,5.1396,5.1397,5.1383,5.1387,5.1401,5.1386,5.1365,5.1339,5.1345,5.1326,5.1312,5.1304,5.1302,5.1304,5.1308,5.1308,5.1302,5.13,5.13,5.13,5.13,5.13,5.13,5.13,5.13,5.13,5.13,5.13,5.13,5.13,5.4409,5.4409,5.4409,5.4409,5.4409,5.4409,5.4409,5.4409,5.4409,5.4409,5.4426,5.4449,5.4472,5.453,5.4654,5.4749,5.4871,5.5019,5.5092,5.5203,5.5307,5.5395,5.5303,5.5147,5.4791,5.4405,5.3951,5.3589,5.2839,5.2896,5.2421,5.1846,5.13,5.1002,5.1023,5.1095,5.1114,5.1162,5.1168,5.119,5.1199,5.1199,5.1199,5.1199,5.1199,5.1199,5.1199,5.1199,5.1199,5.1199,5.1199,5.1199,5.1199,5.1199,5.1199,5.1199,5.1199,5.1199,5.1199,5.1202,5.1205,5.1206,5.1214,5.122,5.1244,5.1278,5.1279,5.1298,5.1336,5.1378,5.14,5.1388,5.1398,5.1391,5.1396,5.1399,5.14,5.1402,5.1384,5.1385,5.1386,5.1386,5.1386,5.1386,5.1386,5.1386,5.1387,5.1386,5.1401,5.1391,5.1391,5.1347,5.1319,5.1305,5.131,5.1302,5.13,5.13,5.13,5.1302,5.13,5.13,5.13,5.13,5.13,5.13,5.13,5.13,5.13,5.13,5.13,5.13,5.13,5.13,5.13,5.4409,5.4409,5.4409,5.4409,5.4409,5.4409,5.4409,5.4417,5.4424,5.4441,5.4458,5.4513,5.4595,5.4659,5.4764,5.4916,5.5007,5.5133,5.5249,5.5371,5.5468,5.5562,5.5654,5.5673,5.5392,5.4996,5.4887,5.4617,5.3836,5.3846,5.3374,5.2607,5.1823,5.1613,5.1481,5.1367,5.1127,5.1171,5.1196,5.1196,5.1199,5.1199,5.1199,5.1199,5.1199,5.1199,5.1199,5.1199,5.1199,5.1199,5.1199,5.1199,5.1199,5.1199,5.1199,5.1199,5.1199,5.1199,5.1199,5.1217,5.1203,5.1206,5.1219,5.1218,5.1215,5.1274,5.1287,5.1307,5.1327,5.137,5.1391,5.1397,5.1393,5.1401,5.1384,5.1386,5.1386,5.1387,5.1386,5.1385,5.1385,5.1384,5.1384,5.1401,5.14,5.1399,5.1398,5.1393,5.1386,5.1392,5.1375,5.1331,5.1305,5.1294,5.1306,5.1302,5.13,5.13,5.13,5.13,5.13,5.13,5.13,5.13,5.13,5.13,5.13,5.13,5.13,5.13,5.13,5.13,5.13,5.13,5.13,5.4409,5.4409,5.4409,5.4409,5.4417,5.4434,5.4434,5.4426,5.4472,5.4513,5.4513,5.4638,5.476,5.4864,5.4909,5.5021,5.5182,5.5275,5.5395,5.5516,5.5638,5.573,5.5811,5.5827,5.5731,5.5837,5.575,5.5329,5.4767,5.4527,5.4127,5.3521,5.2717,5.243,5.2144,5.1751,5.1379,5.1268,5.1199,5.1199,5.1199,5.1199,5.1199,5.1199,5.1199,5.1199,5.1199,5.1199,5.1199,5.1199,5.1199,5.1199,5.1199,5.1199,5.1199,5.1199,5.1199,5.1199,5.1205,5.1206,5.12,5.1203,5.1202,5.1212,5.1223,5.1267,5.13,5.1331,5.1353,5.1369,5.1401,5.1396,5.1385,5.1387,5.1386,5.1385,5.1383,5.14,5.1395,5.1391,5.1389,5.1386,5.1402,5.1398,5.138,5.1396,5.1394,5.1351,5.1362,5.1373,5.1354,5.1319,5.1296,5.1304,5.13,5.13,5.13,5.13,5.13,5.13,5.13,5.13,5.13,5.13,5.13,5.13,5.13,5.13,5.13,5.13,5.13,5.13,5.13,5.13,5.13,5.4409,5.4409,5.4409,5.4432,5.448,5.4584,5.4549,5.448,5.459,5.463,5.4657,5.4791,5.4879,5.4909,5.5057,5.5157,5.5288,5.5413,5.5545,5.5651,5.5766,5.5875,5.5924,5.5947,5.5975,5.5974,5.5938,5.5846,5.5522,5.52,5.4832,5.4333,5.3572,5.3286,5.2924,5.2394,5.1855,5.142,5.1335,5.1199,5.1199,5.1199,5.1199,5.1199,5.1199,5.1199,5.1199,5.1199,5.1199,5.1199,5.1199,5.1199,5.1199,5.1199,5.1199,5.1199,5.1199,5.1202,5.1205,5.1211,5.1211,5.1229,5.124,5.1269,5.1288,5.1292,5.1343,5.1353,5.1378,5.139,5.1401,5.1386,5.1385,5.1401,5.1396,5.1393,5.1388,5.1402,5.1393,5.1386,5.1381,5.1377,5.1389,5.1389,5.137,5.1382,5.1378,5.1355,5.1333,5.1343,5.1335,5.1319,5.131,5.13,5.13,5.13,5.13,5.13,5.13,5.13,5.13,5.13,5.13,5.13,5.13,5.13,5.13,5.13,5.13,5.13,5.13,5.13,5.13,5.13,5.13,5.4537,5.4499,5.4518,5.4568,5.463,5.4725,5.476,5.4695,5.4775,5.4775,5.4806,5.4941,5.5035,5.5087,5.5249,5.5383,5.5486,5.5602,5.5705,5.5826,5.59,5.5952,5.5989,5.6007,5.6001,5.6003,5.6008,5.5965,5.5853,5.564,5.5277,5.5195,5.4426,5.4146,5.3847,5.3298,5.2715,5.2152,5.1685,5.1335,5.1238,5.1238,5.1199,5.1199,5.1199,5.1199,5.1199,5.1199,5.1199,5.1199,5.1199,5.1199,5.1199,5.1199,5.1199,5.1199,5.1199,5.1199,5.1208,5.1206,5.1219,5.1228,5.1276,5.1316,5.1338,5.1357,5.1378,5.1397,5.1395,5.1384,5.1386,5.1401,5.1393,5.1401,5.1394,5.1386,5.14,5.1392,5.1382,5.137,5.1364,5.1358,5.1354,5.1354,5.1354,5.1351,5.1328,5.1328,5.1307,5.1323,5.1317,5.1308,5.1304,5.13,5.13,5.13,5.13,5.13,5.13,5.13,5.13,5.13,5.13,5.13,5.13,5.13,5.13,5.13,5.13,5.13,5.13,5.13,5.13,5.13,5.13,5.4716,5.4723,5.4731,5.4752,5.4822,5.4894,5.4949,5.5007,5.4963,5.4927,5.4963,5.5128,5.5249,5.5307,5.5444,5.5562,5.5651,5.5761,5.5851,5.6009,5.5975,5.6002,5.6005,5.6008,5.6003,5.6003,5.6008,5.6008,5.6008,5.5853,5.5776,5.595,5.5273,5.4927,5.4831,5.4117,5.3633,5.3411,5.2478,5.1746,5.1435,5.1319,5.1199,5.1199,5.1199,5.1199,5.1199,5.1199,5.1199,5.1199,5.1199,5.1199,5.1199,5.1199,5.1199,5.1199,5.1199,5.1199,5.1217,5.1211,5.1201,5.1234,5.1279,5.1323,5.1366,5.1383,5.1398,5.1396,5.1385,5.1386,5.1399,5.1389,5.1395,5.1381,5.1369,5.136,5.137,5.1364,5.1359,5.1348,5.1323,5.1335,5.1335,5.1337,5.1339,5.1308,5.1304,5.1304,5.1304,5.1304,5.1302,5.13,5.13,5.13,5.13,5.13,5.13,5.13,5.13,5.13,5.13,5.13,5.13,5.13,5.13,5.13,5.13,5.13,5.13,5.13,5.13,5.13,5.13,5.13,5.13,5.4806,5.4849,5.4909,5.4934,5.4956,5.5073,5.5135,5.5169,5.5249,5.5229,5.5176,5.5294,5.5402,5.548,5.5596,5.5714,5.5776,5.5876,5.5947,5.5984,5.6007,5.6005,5.6003,5.6008,5.6008,5.6008,5.6008,5.6008,5.6008,5.6008,5.6008,5.5988,5.564,5.5616,5.5649,5.4893,5.4576,5.4527,5.364,5.2698,5.229,5.1591,5.1199,5.1199,5.1199,5.1199,5.1199,5.1199,5.1199,5.1199,5.1199,5.1199,5.1199,5.1199,5.1199,5.1199,5.1199,5.1199,5.1217,5.1216,5.1232,5.1274,5.1317,5.1358,5.1385,5.1399,5.1395,5.1385,5.1386,5.1398,5.1385,5.139,5.1394,5.1358,5.1322,5.133,5.1339,5.1337,5.1335,5.131,5.1302,5.13,5.13,5.13,5.13,5.13,5.13,5.13,5.13,5.13,5.1302,5.13,5.13,5.13,5.13,5.13,5.13,5.13,5.13,5.13,5.13,5.13,5.13,5.13,5.13,5.13,5.13,5.13,5.13,5.13,5.13,5.13,5.13,5.13,5.13,5.4971,5.5042,5.5101,5.5142,5.517,5.5268,5.5333,5.5382,5.5492,5.5516,5.5461,5.5522,5.5568,5.5635,5.5766,5.5836,5.5885,5.5951,5.5979,5.6001,5.6005,5.5999,5.6008,5.6008,5.6008,5.6008,5.6008,5.6008,5.6008,5.6008,5.6008,5.6008,5.6008,5.601,5.6036,5.5653,5.5438,5.5419,5.4641,5.4016,5.3319,5.2484,5.1552,5.1396,5.1219,5.1219,5.1199,5.1199,5.1199,5.1199,5.1199,5.1199,5.1199,5.1199,5.1199,5.1199,5.1199,5.1199,5.122,5.1216,5.1242,5.1284,5.1358,5.1395,5.1388,5.1398,5.1385,5.1386,5.1402,5.1391,5.1389,5.1389,5.137,5.1331,5.1323,5.1314,5.1308,5.1306,5.1306,5.1304,5.13,5.13,5.13,5.13,5.13,5.13,5.13,5.13,5.13,5.13,5.13,5.13,5.13,5.13,5.13,5.13,5.13,5.13,5.13,5.13,5.13,5.13,5.13,5.13,5.13,5.13,5.13,5.13,5.13,5.13,5.13,5.13,5.13,5.13,5.13,5.5163,5.5255,5.5314,5.5371,5.5407,5.545,5.5516,5.5613,5.5703,5.5756,5.5782,5.5751,5.5791,5.5851,5.5929,5.5981,5.5989,5.5996,5.5999,5.6003,5.6003,5.6008,5.6008,5.6008,5.6008,5.6008,5.6008,5.6008,5.6008,5.6008,5.6008,5.6008,5.6016,5.6029,5.6094,5.6137,5.6082,5.5897,5.5446,5.5123,5.4349,5.3436,5.2348,5.1688,5.1358,5.1299,5.1258,5.1199,5.1199,5.1199,5.1199,5.1199,5.1199,5.1199,5.1199,5.1199,5.1199,5.1205,5.12,5.1222,5.1244,5.129,5.1352,5.1393,5.1397,5.1386,5.1386,5.1401,5.1394,5.1401,5.1396,5.1393,5.1354,5.1335,5.131,5.1302,5.13,5.13,5.13,5.13,5.13,5.13,5.13,5.13,5.13,5.13,5.13,5.13,5.13,5.13,5.13,5.13,5.13,5.13,5.13,5.13,5.13,5.13,5.13,5.13,5.13,5.13,5.13,5.13,5.13,5.13,5.13,5.13,5.13,5.13,5.13,5.13,5.13,5.13,5.13,5.5389,5.5437,5.5497,5.5551,5.5573,5.5682,5.574,5.5766,5.5831,5.59,5.5933,5.5943,5.5943,5.5971,5.5981,5.6008,5.6005,5.6003,5.6003,5.6008,5.6008,5.6008,5.6008,5.6008,5.6008,5.6008,5.6008,5.6008,5.6008,5.6008,5.6008,5.6008,5.6008,5.6016,5.6029,5.6125,5.6187,5.6081,5.6025,5.5689,5.4951,5.4038,5.3106,5.2542,5.2173,5.1766,5.1432,5.1238,5.1199,5.1199,5.1199,5.1199,5.1199,5.1199,5.1199,5.1199,5.1199,5.1217,5.1217,5.1212,5.1254,5.1292,5.1347,5.1401,5.1401,5.1387,5.1384,5.1395,5.1385,5.1395,5.1395,5.1403,5.1367,5.1328,5.1296,5.1306,5.13,5.13,5.13,5.13,5.13,5.13,5.13,5.13,5.13,5.13,5.13,5.13,5.13,5.13,5.13,5.13,5.13,5.13,5.13,5.13,5.13,5.13,5.13,5.13,5.13,5.13,5.13,5.13,5.13,5.13,5.13,5.13,5.13,5.13,5.13,5.13,5.13,5.13,5.13]}]]